[[{"header":{"parameterUnit":"m.s-1","parameterCategory":1,"la1":30.6,"la2":28.766,"lo1":-90.7593,"lo2":-88.6598,"dy":0.0162,"dx":0.0183,"nx":116,"ny":114,"refTime":"2023-04-02T06:00:00:Z","depth":0,"parameterNumber":2,"parameterNumberName":"U-component_of_WINDS"},"data":[0.0,0.0,0.0,0.0,0.0,0.0,0.0,0.0,0.0,0.0,0.0,0.0,0.0,0.0,0.0,0.0,0.0,0.0,0.0,0.0,0.0,0.0,0.0,0.0,0.0,0.0,0.0,0.0,0.0,0.0,0.0,0.0,0.0,0.0,0.0,0.0,0.0,0.0,0.0,0.0,0.0,0.0,0.0,0.0,0.0,0.0,0.0,0.0,0.0,0.0,0.0,0.0,0.0,0.0,0.0,0.0,0.0,0.0,0.0,0.0,0.0,0.0,0.0,0.0,0.0,0.0,0.0,0.0,0.0,0.0,0.0,0.0,0.0,0.0,0.0,0.0,0.0,0.0,0.0,0.0,0.0,0.0,0.0,0.0,0.0,0.0,0.0,0.0,0.0,0.0,0.0,0.0,0.0,0.0,0.0,0.0,0.0,0.0,0.0,0.0,0.0,0.0,0.0,0.0,0.0,0.0,0.0,0.0,0.0,0.0,0.0,0.0,0.0,0.0,0.0,0.0,0.0,0.0,0.0,0.0,0.0,0.0,0.0,0.0,0.0,0.0,0.0,0.0,0.0,0.0,0.0,0.0,0.0,0.0,0.0,0.0,0.0,0.0,0.0,0.0,0.0,0.0,0.0,0.0,0.0,0.0,0.0,0.0,0.0,0.0,0.0,0.0,0.0,0.0,0.0,0.0,0.0,0.0,0.0,0.0,0.0,0.0,0.0,0.0,0.0,0.0,0.0,0.0,0.0,0.0,0.0,0.0,0.0,0.0,0.0,0.0,0.0,0.0,0.0,0.0,0.0,0.0,0.0,0.0,0.0,0.0,0.0,0.0,0.0,0.0,0.0,0.0,0.0,0.0,0.0,0.0,0.0,0.0,0.0,0.0,0.0,0.0,0.0,0.0,0.0,0.0,0.0,0.0,0.0,0.0,0.0,0.0,0.0,0.0,0.0,0.0,0.0,0.0,0.0,0.0,0.0,0.0,0.0,0.0,0.0,0.0,0.0,0.0,0.0,0.0,0.0,0.0,0.0,0.0,0.0,0.0,0.0,0.0,0.0,0.0,0.0,0.0,0.0,0.0,0.0,0.0,0.0,0.0,0.0,0.0,0.0,0.0,0.0,0.0,0.0,0.0,0.0,0.0,0.0,0.0,0.0,0.0,0.0,0.0,0.0,0.0,0.0,0.0,0.0,0.0,0.0,0.0,0.0,0.0,0.0,0.0,0.0,0.0,0.0,0.0,0.0,0.0,0.0,0.0,0.0,0.0,0.0,0.0,0.0,0.0,0.0,0.0,0.0,0.0,0.0,0.0,0.0,0.0,0.0,0.0,0.0,0.0,0.0,0.0,0.0,0.0,0.0,0.0,0.0,0.0,0.0,0.0,0.0,0.0,0.0,0.0,0.0,0.0,0.0,0.0,0.0,0.0,0.0,0.0,0.0,0.0,0.0,0.0,0.0,0.0,0.0,0.0,0.0,0.0,0.0,0.0,0.0,0.0,0.0,0.0,0.0,0.0,0.0,0.0,0.0,0.0,0.0,0.0,0.0,0.0,0.0,0.0,0.0,0.0,0.0,0.0,0.0,0.0,0.0,0.0,0.0,0.0,0.0,0.0,0.0,0.0,0.0,0.0,0.0,0.0,0.0,0.0,0.0,0.0,0.0,0.0,0.0,0.0,0.0,0.0,0.0,0.0,0.0,0.0,0.0,0.0,0.0,0.0,0.0,0.0,0.0,0.0,0.0,0.0,0.0,0.0,0.0,0.0,0.0,0.0,0.0,0.0,0.0,0.0,0.0,0.0,0.0,0.0,0.0,0.0,0.0,0.0,0.0,0.0,0.0,0.0,0.0,0.0,0.0,0.0,0.0,0.0,0.0,0.0,0.0,0.0,0.0,0.0,0.0,0.0,0.0,0.0,0.0,0.0,0.0,0.0,0.0,0.0,0.0,0.0,0.0,0.0,0.0,0.0,0.0,0.0,0.0,0.0,0.0,0.0,0.0,0.0,0.0,0.0,0.0,0.0,0.0,0.0,0.0,0.0,0.0,0.0,0.0,0.0,0.0,0.0,0.0,0.0,0.0,0.0,0.0,0.0,0.0,0.0,0.0,0.0,0.0,0.0,0.0,0.0,0.0,0.0,0.0,0.0,0.0,0.0,0.0,0.0,0.0,0.0,0.0,0.0,0.0,0.0,0.0,0.0,0.0,0.0,0.0,0.0,0.0,0.0,0.0,0.0,0.0,0.0,0.0,0.0,0.0,0.0,0.0,0.0,0.0,0.0,0.0,0.0,0.0,0.0,0.0,0.0,0.0,0.0,0.0,0.0,0.0,0.0,0.0,0.0,0.0,0.0,0.0,0.0,0.0,0.0,0.0,0.0,0.0,0.0,0.0,0.0,0.0,0.0,0.0,0.0,0.0,0.0,0.0,0.0,0.0,0.0,0.0,0.0,0.0,0.0,0.0,0.0,0.0,0.0,0.0,0.0,0.0,0.0,0.0,0.0,0.0,0.0,0.0,0.0,0.0,0.0,0.0,0.0,0.0,0.0,0.0,0.0,0.0,0.0,0.0,0.0,0.0,0.0,0.0,0.0,0.0,0.0,0.0,0.0,0.0,0.0,0.0,0.0,0.0,0.0,0.0,0.0,0.0,0.0,0.0,0.0,0.0,0.0,0.0,0.0,0.0,0.0,0.0,0.0,0.0,0.0,0.0,0.0,0.0,0.0,0.0,0.0,0.0,0.0,0.0,0.0,0.0,0.0,0.0,0.0,0.0,0.0,0.0,0.0,0.0,0.0,0.0,0.0,0.0,0.0,0.0,0.0,0.0,0.0,0.0,0.0,0.0,0.0,0.0,0.0,0.0,0.0,0.0,0.0,0.0,0.0,0.0,0.0,0.0,0.0,0.0,0.0,0.0,0.0,0.0,0.0,0.0,0.0,0.0,0.0,0.0,0.0,0.0,0.0,0.0,0.0,0.0,0.0,0.0,0.0,0.0,0.0,0.0,0.0,0.0,0.0,0.0,0.0,0.0,0.0,0.0,0.0,0.0,0.0,0.0,0.0,0.0,0.0,0.0,0.0,0.0,0.0,0.0,0.0,0.0,0.0,0.0,0.0,0.0,0.0,0.0,0.0,0.0,0.0,0.0,0.0,0.0,0.0,0.0,0.0,0.0,0.0,0.0,0.0,0.0,0.0,0.0,0.0,0.0,0.0,0.0,0.0,0.0,0.0,0.0,0.0,0.0,0.0,0.0,0.0,0.0,0.0,0.0,0.0,0.0,0.0,0.0,0.0,0.0,0.0,0.0,0.0,0.0,0.0,0.0,0.0,0.0,0.0,0.0,0.0,0.0,0.0,0.0,0.0,0.0,0.0,0.0,0.0,0.0,0.0,0.0,0.0,0.0,0.0,0.0,0.0,0.0,0.0,0.0,0.0,0.0,0.0,0.0,0.0,0.0,0.0,0.0,0.0,0.0,0.0,0.0,0.0,0.0,0.0,0.0,0.0,0.0,0.0,0.0,0.0,0.0,0.0,0.0,0.0,0.0,0.0,0.0,0.0,0.0,0.0,0.0,0.0,0.0,0.0,0.0,0.0,0.0,0.0,0.0,0.0,0.0,0.0,0.0,0.0,0.0,0.0,0.0,0.0,0.0,0.0,0.0,0.0,0.0,0.0,0.0,0.0,0.0,0.0,0.0,0.0,0.0,0.0,0.0,0.0,0.0,0.0,0.0,0.0,0.0,0.0,0.0,0.0,0.0,0.0,0.0,0.0,0.0,0.0,0.0,0.0,0.0,0.0,0.0,0.0,0.0,0.0,0.0,0.0,0.0,0.0,0.0,0.0,0.0,0.0,0.0,0.0,0.0,0.0,0.0,0.0,0.0,0.0,0.0,0.0,0.0,0.0,0.0,0.0,0.0,0.0,0.0,0.0,0.0,0.0,0.0,0.0,0.0,0.0,0.0,0.0,0.0,0.0,0.0,0.0,0.0,0.0,0.0,0.0,0.0,0.0,0.0,0.0,0.0,0.0,0.0,0.0,0.0,0.0,0.0,0.0,0.0,0.0,0.0,0.0,0.0,0.0,0.0,0.0,0.0,0.0,0.0,0.0,0.0,0.0,0.0,0.0,0.0,0.0,0.0,0.0,0.0,0.0,0.0,0.0,0.0,0.0,0.0,0.0,0.0,0.0,0.0,0.0,0.0,0.0,0.0,0.0,0.0,0.0,0.0,0.0,0.0,0.0,0.0,0.0,0.0,0.0,0.0,0.0,0.0,0.0,0.0,0.0,0.0,0.0,0.0,0.0,0.0,0.0,0.0,0.0,0.0,0.0,0.0,0.0,0.0,0.0,0.0,0.0,0.0,0.0,0.0,0.0,0.0,0.0,0.0,0.0,0.0,0.0,0.0,0.0,0.0,0.0,0.0,0.0,0.0,0.0,0.0,0.0,0.0,0.0,0.0,0.0,0.0,0.0,0.0,0.0,0.0,0.0,0.0,0.0,0.0,0.0,0.0,0.0,0.0,0.0,0.0,0.0,0.0,0.0,0.0,0.0,0.0,0.0,0.0,0.0,0.0,0.0,0.0,0.0,0.0,0.0,0.0,0.0,0.0,0.0,0.0,0.0,0.0,0.0,0.0,0.0,0.0,0.0,0.0,0.0,0.0,0.0,0.0,0.0,0.0,0.0,0.0,0.0,0.0,0.0,0.0,0.0,0.0,0.0,0.0,0.0,0.0,0.0,0.0,0.0,0.0,0.0,0.0,0.0,0.0,0.0,0.0,0.0,0.0,0.0,0.0,0.0,0.0,0.0,0.0,0.0,0.0,0.0,0.0,0.0,0.0,0.0,0.0,0.0,0.0,0.0,0.0,0.0,0.0,0.0,0.0,0.0,0.0,0.0,0.0,0.0,0.0,0.0,0.0,0.0,0.0,0.0,0.0,0.0,0.0,0.0,0.0,0.0,0.0,0.0,0.0,0.0,0.0,0.0,0.0,0.0,0.0,0.0,0.0,0.0,0.0,0.0,0.0,0.0,0.0,0.0,0.0,0.0,0.0,0.0,0.0,0.0,0.0,0.0,0.0,0.0,0.0,0.0,0.0,0.0,0.0,0.0,0.0,0.0,0.0,0.0,0.0,0.0,0.0,0.0,0.0,0.0,0.0,0.0,0.0,0.0,0.0,0.0,0.0,0.0,0.0,0.0,0.0,0.0,0.0,0.0,0.0,0.0,0.0,0.0,0.0,0.0,0.0,0.0,0.0,0.0,0.0,0.0,0.0,0.0,0.0,0.0,0.0,0.0,0.0,0.0,0.0,0.0,0.0,0.0,0.0,0.0,0.0,0.0,0.0,0.0,0.0,0.0,0.0,0.0,0.0,0.0,0.0,0.0,0.0,0.0,0.0,0.0,0.0,0.0,0.0,0.0,0.0,0.0,0.0,0.0,0.0,0.0,0.0,0.0,0.0,0.0,0.0,0.0,0.0,0.0,0.0,0.0,0.0,0.0,0.0,0.0,0.0,0.0,0.0,0.0,0.0,0.0,0.0,0.0,0.0,0.0,0.0,0.0,0.0,0.0,0.0,0.0,0.0,0.0,0.0,0.0,0.0,0.0,0.0,0.0,0.0,0.0,0.0,0.0,0.0,0.0,0.0,0.0,0.0,0.0,0.0,0.0,0.0,0.0,0.0,0.0,0.0,0.0,0.0,0.0,0.0,0.0,0.0,0.0,0.0,0.0,0.0,0.0,0.0,0.0,0.0,0.0,0.0,0.0,0.0,0.0,0.0,0.0,0.0,0.0,0.0,0.0,0.0,0.0,0.0,0.0,0.0,0.0,0.0,0.0,0.0,0.0,0.0,0.0,0.0,0.0,0.0,0.0,0.0,0.0,0.0,0.0,0.0,0.0,0.0,0.0,0.0,0.0,0.0,0.0,0.0,0.0,0.0,0.0,0.0,0.0,0.0,0.0,0.0,0.0,0.0,0.0,0.0,0.0,0.0,0.0,0.0,0.0,0.0,0.0,0.0,0.0,0.0,0.0,0.0,0.0,0.0,0.0,0.0,0.0,0.0,0.0,0.0,0.0,0.0,0.0,0.0,0.0,0.0,0.0,0.0,0.0,0.0,0.0,-6.7677,-6.6912,0.0,0.0,0.0,0.0,0.0,0.0,0.0,0.0,0.0,0.0,0.0,0.0,0.0,0.0,0.0,0.0,0.0,0.0,0.0,0.0,0.0,0.0,0.0,0.0,0.0,0.0,0.0,0.0,0.0,0.0,0.0,0.0,0.0,0.0,0.0,0.0,0.0,0.0,-7.2899,-7.367,-7.4845,-7.4441,-7.4097,-7.3855,0.0,0.0,0.0,0.0,0.0,0.0,0.0,0.0,0.0,0.0,0.0,0.0,0.0,0.0,0.0,0.0,0.0,0.0,0.0,0.0,0.0,0.0,0.0,0.0,0.0,0.0,0.0,0.0,0.0,0.0,0.0,0.0,0.0,0.0,0.0,0.0,0.0,0.0,0.0,0.0,0.0,0.0,0.0,0.0,0.0,0.0,0.0,0.0,0.0,0.0,0.0,0.0,0.0,0.0,0.0,0.0,0.0,0.0,0.0,0.0,0.0,0.0,0.0,0.0,0.0,0.0,0.0,0.0,0.0,0.0,-6.73,-6.7449,0.0,0.0,0.0,0.0,0.0,0.0,0.0,0.0,0.0,0.0,0.0,0.0,0.0,0.0,0.0,0.0,0.0,0.0,0.0,0.0,0.0,0.0,0.0,0.0,-7.5778,-7.5879,-7.5779,0.0,0.0,0.0,0.0,0.0,0.0,0.0,0.0,0.0,0.0,-7.2716,-7.3817,-7.4955,-7.6093,-7.624,-7.5772,-7.4735,-7.372,0.0,0.0,0.0,0.0,0.0,0.0,0.0,0.0,0.0,0.0,0.0,0.0,0.0,0.0,0.0,0.0,0.0,0.0,0.0,0.0,0.0,0.0,0.0,0.0,0.0,0.0,0.0,0.0,0.0,0.0,0.0,0.0,0.0,0.0,0.0,0.0,0.0,0.0,0.0,0.0,0.0,0.0,0.0,0.0,0.0,0.0,0.0,0.0,0.0,0.0,0.0,0.0,0.0,0.0,0.0,0.0,0.0,0.0,0.0,0.0,0.0,0.0,0.0,-6.808,-6.8022,-6.776,-6.7905,-6.7484,-6.6707,-6.7986,-6.8866,-6.9158,-6.6498,0.0,0.0,0.0,0.0,0.0,0.0,0.0,0.0,0.0,0.0,0.0,0.0,0.0,0.0,0.0,0.0,0.0,0.0,0.0,0.0,0.0,-7.5322,-7.511,-7.5686,-7.5708,-7.5666,0.0,0.0,0.0,0.0,0.0,0.0,0.0,-7.2496,-7.2826,-7.3523,-7.5763,-7.6607,-7.613,-7.6827,-7.6674,-7.5912,-7.6198,-7.4977,-7.2816,0.0,0.0,0.0,0.0,0.0,0.0,0.0,0.0,0.0,0.0,0.0,0.0,0.0,0.0,0.0,0.0,0.0,0.0,0.0,0.0,0.0,0.0,0.0,0.0,0.0,0.0,0.0,0.0,0.0,0.0,0.0,0.0,0.0,0.0,0.0,0.0,0.0,0.0,0.0,0.0,0.0,-6.5375,-6.7011,0.0,0.0,0.0,0.0,0.0,0.0,0.0,0.0,0.0,0.0,0.0,0.0,0.0,-6.6555,-6.9086,-6.9014,-6.96,-7.0941,-7.1666,-7.1598,-7.0946,-7.1635,-7.1494,-7.0661,-6.9564,0.0,-6.835,-6.792,0.0,0.0,0.0,0.0,0.0,0.0,0.0,0.0,0.0,0.0,0.0,0.0,0.0,0.0,0.0,0.0,0.0,0.0,0.0,0.0,0.0,-7.5515,-7.6225,-7.6399,-7.6881,-7.7083,-7.6932,0.0,0.0,0.0,0.0,0.0,-7.2496,-7.2936,-7.378,-7.5065,-7.613,-7.668,-7.679,-7.668,-7.646,-7.613,-7.6803,-7.589,-7.392,-7.5181,0.0,0.0,0.0,0.0,0.0,0.0,0.0,0.0,0.0,0.0,0.0,0.0,0.0,0.0,0.0,0.0,0.0,0.0,0.0,0.0,0.0,0.0,0.0,0.0,0.0,0.0,0.0,0.0,0.0,0.0,0.0,0.0,0.0,0.0,0.0,0.0,0.0,0.0,0.0,-6.4646,-6.6439,-6.8064,-6.7128,-6.5685,0.0,0.0,0.0,0.0,0.0,0.0,0.0,0.0,0.0,-6.6351,-6.7184,-6.8742,-7.1132,-7.1603,-7.2183,-7.2871,-7.3233,-7.3197,-7.2871,-7.2762,-7.2509,-7.211,-7.0987,-7.0361,-6.9951,-6.8615,-6.7912,-6.7426,0.0,0.0,0.0,0.0,-6.1105,-6.2023,0.0,0.0,0.0,0.0,0.0,0.0,0.0,0.0,0.0,0.0,0.0,0.0,-7.386,-7.5899,-7.7224,-7.7045,-7.7818,-7.8041,-7.7426,-7.5384,0.0,0.0,0.0,-7.2005,-7.1872,-7.2863,-7.4184,-7.5799,-7.6019,-7.6313,-7.6686,-7.6276,-7.6093,-7.613,-7.6754,-7.613,-7.4654,-7.5678,-7.5075,-7.3491,0.0,0.0,0.0,0.0,0.0,0.0,0.0,0.0,0.0,0.0,0.0,0.0,0.0,0.0,0.0,0.0,0.0,0.0,0.0,0.0,0.0,0.0,0.0,0.0,0.0,0.0,0.0,0.0,0.0,0.0,0.0,0.0,0.0,0.0,0.0,0.0,0.0,-6.5844,-6.7619,-6.9026,-6.8669,-6.751,0.0,0.0,0.0,0.0,0.0,0.0,-6.4396,-6.5011,-6.6496,-6.914,-6.9792,-7.1024,-7.3016,-7.3631,-7.3921,-7.3921,-7.4106,-7.4102,-7.3885,-7.3486,-7.3088,-7.269,-7.2074,-7.182,-7.1675,-6.972,-6.8778,-6.838,-6.5953,-6.4178,-6.273,-6.11,-6.1426,-6.244,0.0,0.0,0.0,0.0,0.0,0.0,0.0,0.0,0.0,0.0,0.0,-7.4668,-7.463,-7.6245,-7.7254,-7.7124,-7.7812,-7.7577,-7.5846,-7.5114,-7.3838,-7.1704,-7.1155,-7.0702,-7.0248,-7.1762,-7.334,-7.4955,-7.5726,-7.5726,-7.5065,-7.5763,-7.6093,-7.6093,-7.613,-7.5285,-7.3891,-7.6233,-7.5977,-7.394,-7.3516,0.0,0.0,0.0,0.0,0.0,0.0,0.0,0.0,0.0,0.0,0.0,0.0,0.0,0.0,0.0,0.0,0.0,0.0,0.0,0.0,0.0,0.0,0.0,0.0,0.0,0.0,0.0,0.0,0.0,0.0,0.0,0.0,0.0,0.0,0.0,0.0,0.0,0.0,-6.9098,-7.1096,0.0,0.0,0.0,0.0,-6.4287,-6.4251,-6.5337,-6.7655,-6.78,-6.9249,-7.2364,-7.2509,-7.2943,-7.3849,-7.3885,-7.3921,-7.3921,-7.4649,-7.4612,-7.3921,-7.4649,-7.4175,-7.2726,-7.2653,-7.2653,-7.2581,-7.1712,-7.0915,-7.0009,-6.7619,-6.617,-6.5229,-6.3599,-6.3526,-6.4251,0.0,0.0,0.0,0.0,0.0,0.0,0.0,0.0,0.0,-7.3014,-7.3591,-7.3937,-7.3937,-7.6899,-7.8869,-7.8737,-7.8925,-7.8641,-7.7608,-7.5002,-7.2763,-7.1128,-7.0098,-6.9998,-7.0844,-7.2459,-7.3817,-7.4918,-7.4661,-7.4404,-7.4111,-7.3891,-7.4074,-7.4588,-7.5102,-7.5322,-7.5285,-7.6166,-7.5779,-7.4552,-7.3813,-7.2341,0.0,0.0,0.0,0.0,0.0,0.0,0.0,0.0,0.0,0.0,0.0,0.0,0.0,0.0,0.0,0.0,0.0,0.0,0.0,0.0,0.0,0.0,0.0,0.0,0.0,0.0,0.0,0.0,0.0,0.0,0.0,0.0,0.0,0.0,0.0,0.0,0.0,-7.1313,-7.3124,0.0,-7.1241,-6.9865,-6.8633,-6.7547,-6.8887,-7.0118,-7.0987,-7.1531,-7.2327,-7.345,-7.3993,-7.4359,-7.4649,-7.5189,-7.5442,-7.5442,-7.5732,-7.5442,-7.4649,-7.4431,-7.374,-7.269,-7.2146,-7.1929,-7.1929,-7.1639,-7.135,-7.0879,-6.8488,-6.7402,-6.6895,-6.4758,-6.4794,-6.5881,0.0,0.0,0.0,0.0,0.0,0.0,0.0,0.0,0.0,-7.2822,-7.3553,-7.4245,-7.5091,-7.8207,-8.0177,-8.0129,-7.9709,-7.8912,-7.7511,-7.4282,-7.1537,-6.9669,-6.8889,-6.9522,-7.1688,-7.2496,-7.3413,-7.4515,-7.3707,-7.3303,-7.3266,-7.2753,-7.3083,-7.4147,-7.4661,-7.5506,-7.6497,-7.624,-7.6066,-7.5875,-7.4603,-7.2786,-7.0411,0.0,0.0,0.0,0.0,0.0,0.0,0.0,0.0,0.0,0.0,0.0,0.0,0.0,0.0,0.0,0.0,0.0,0.0,0.0,0.0,0.0,0.0,0.0,0.0,0.0,0.0,0.0,0.0,0.0,0.0,0.0,0.0,0.0,0.0,-6.8706,-7.2074,-7.3378,-7.5913,-7.6782,-7.4899,-7.3812,-7.2871,-7.2038,-7.3197,-7.3921,-7.3921,-7.4428,-7.4718,-7.4718,-7.5225,-7.5515,-7.5515,-7.6022,-7.6275,-7.6275,-7.6275,-7.6022,-7.5515,-7.4971,-7.4138,-7.3088,-7.2545,-7.2001,-7.1494,-7.1494,-7.1494,-7.1313,-6.9213,-6.8416,-6.8162,-6.5989,-6.5881,-6.6677,0.0,0.0,0.0,0.0,0.0,0.0,0.0,0.0,-7.0783,-7.4168,-7.4668,-7.563,-7.8207,-8.0054,-8.1093,-8.1054,-8.0103,-7.8202,-7.5284,-7.2872,-7.0249,-6.728,-6.7535,-6.9229,-7.2349,-7.1725,-7.2092,-7.367,-7.2899,-7.2496,-7.2496,-7.2496,-7.3377,-7.4918,-7.4918,-7.5769,-7.7237,-7.646,-7.6891,-7.7896,-7.5779,-7.4744,-7.4026,0.0,0.0,0.0,0.0,0.0,0.0,0.0,0.0,0.0,0.0,0.0,0.0,0.0,0.0,0.0,0.0,0.0,0.0,0.0,0.0,0.0,0.0,0.0,0.0,0.0,0.0,0.0,0.0,0.0,0.0,0.0,0.0,0.0,-6.8017,-7.1567,-7.4392,-7.5192,-7.9499,-8.1454,-7.9064,-7.8847,-7.8484,-7.7651,-7.6855,-7.6384,-7.6314,-7.6348,-7.6311,-7.6244,-7.6311,-7.6275,-7.6242,-7.6275,-7.6275,-7.6275,-7.6275,-7.6239,-7.6203,-7.6203,-7.5334,-7.3849,-7.3849,-7.2943,-7.1494,-7.1494,-7.1494,-7.135,-6.9792,-6.9207,-6.9026,-6.7402,-6.6786,-6.6677,0.0,0.0,0.0,0.0,0.0,0.0,0.0,-6.7859,-6.8359,-7.236,-7.3437,-7.5014,-7.8169,-8.0054,-8.0862,-8.0208,-7.9204,-7.7447,-7.4702,-7.2154,-6.9528,-6.6835,0.0,-6.9853,-7.0734,-7.1688,-7.2386,-7.2826,-7.2606,-7.2496,-7.2496,-7.2496,-7.3377,-7.4918,-7.4918,-7.5769,-7.7273,-7.7053,-7.7175,-7.7436,-7.6227,-7.4676,-7.2981,0.0,0.0,0.0,0.0,0.0,0.0,0.0,0.0,0.0,0.0,0.0,0.0,0.0,0.0,0.0,0.0,0.0,0.0,0.0,0.0,0.0,0.0,0.0,0.0,0.0,0.0,0.0,0.0,0.0,0.0,0.0,-6.8271,-7.0951,-7.0589,-7.45,-7.8122,-8.0078,-8.2505,-8.3555,-8.2287,-8.1635,-8.073,-7.9354,-7.9028,-7.8384,-7.7163,-7.7123,-7.6587,-7.5307,-7.5977,-7.6038,-7.5442,-7.6038,-7.6275,-7.6275,-7.5696,-7.5116,-7.4537,-7.3957,-7.3124,-7.2183,-7.2183,-7.1929,-7.1494,-7.1494,-7.1494,-7.135,-6.9792,-6.9207,-6.9026,-6.7402,-6.6786,-6.6605,0.0,0.0,0.0,0.0,0.0,0.0,0.0,-6.6744,-6.7667,-7.2591,-7.3399,-7.5053,-7.9131,-8.0477,-8.0746,-7.99,-7.8551,-7.67,-7.4252,-7.1228,0.0,0.0,0.0,-7.0403,-7.1101,-7.2018,-7.2496,-7.2496,-7.2826,-7.2826,-7.2496,-7.2826,-7.3487,-7.4404,-7.4771,-7.5616,-7.6827,-7.7163,-7.7494,-7.7818,-7.7341,-7.5873,-7.4001,-7.378,-7.2532,-7.0807,-7.0146,-7.0513,-7.1073,-6.9669,0.0,0.0,0.0,0.0,0.0,0.0,0.0,0.0,0.0,0.0,0.0,0.0,0.0,0.0,0.0,0.0,0.0,0.0,0.0,0.0,0.0,0.0,0.0,0.0,-7.1313,-7.4645,-7.5841,-7.8738,-8.1346,-8.3084,-8.4424,-8.4855,-8.3932,-8.3138,-8.2016,-8.0343,-7.9911,-7.9193,-7.7972,-7.7954,-7.7486,-7.65,-7.7019,-7.6758,-7.562,-7.6072,-7.5949,-7.5297,-7.5189,-7.4682,-7.3921,-7.3776,-7.3088,-7.2001,-7.2001,-7.182,-7.1494,-7.1494,-7.1313,0.0,0.0,0.0,0.0,0.0,-6.6605,-6.6134,0.0,0.0,0.0,0.0,0.0,0.0,0.0,-6.6359,-6.7975,-7.3822,-7.3937,-7.5438,-8.0554,-8.1093,-8.0708,-7.9746,-7.803,-7.5999,-7.3666,0.0,0.0,-7.0285,-7.0431,-7.1211,-7.2753,-7.2789,-7.2716,-7.2642,-7.334,-7.334,-7.2642,-7.3266,-7.3707,-7.4001,-7.4735,-7.5506,-7.6276,-7.709,-7.7892,-7.8589,-7.8589,-7.7708,-7.624,-7.4882,-7.4331,-7.4074,-7.2642,-7.2129,-7.2092,-7.1908,0.0,0.0,0.0,0.0,0.0,0.0,0.0,0.0,0.0,0.0,0.0,0.0,0.0,0.0,0.0,0.0,0.0,0.0,0.0,0.0,0.0,0.0,0.0,0.0,-7.4537,-7.8557,-8.2287,-8.3517,-8.413,-8.4638,-8.5287,-8.5339,-8.4314,-8.359,-8.2513,-8.0934,-8.0076,-7.9316,-7.8591,-7.8494,0.0,0.0,0.0,-7.7555,-7.6008,-7.6108,-7.5417,-7.4043,-7.4652,-7.4576,-7.3921,-7.4431,-7.3921,-7.2581,-7.2581,-7.2183,-7.1494,-7.1422,-7.0879,-7.0046,-6.9352,-6.9026,-6.8772,-6.7221,-6.6207,-6.5482,0.0,0.0,0.0,0.0,0.0,0.0,0.0,-6.6013,-6.7782,-7.3053,-7.3577,-7.5438,-8.0554,-8.1093,-8.0477,-7.89,-7.7731,-7.5535,0.0,0.0,-7.1516,-7.1621,-7.2493,-7.345,-7.4404,-7.4441,-7.4111,-7.345,-7.3597,-7.3597,-7.345,-7.2973,-7.378,-7.5652,-7.5799,-7.6313,-7.709,-7.8002,-7.8442,-7.8589,-7.8589,-7.8405,-7.8148,-7.8479,-7.8222,-7.7598,-7.7304,-7.7194,-7.6974,-7.5616,-7.4661,-7.3854,-7.3193,0.0,0.0,0.0,0.0,0.0,0.0,0.0,0.0,0.0,0.0,0.0,0.0,0.0,0.0,0.0,0.0,0.0,0.0,0.0,0.0,-7.4464,-7.9607,-8.3809,-8.5873,-8.6697,-8.6429,-8.4676,-8.4604,-8.4349,-8.3348,-8.312,-8.2646,-8.1664,-8.0883,-7.9826,-7.8388,-7.7776,-7.6831,-7.543,-7.5557,-7.5187,-7.4182,-7.4959,-7.5156,-7.4834,-7.4346,0.0,-7.3885,-7.2726,-7.2038,-7.1748,-7.1748,-7.1639,-7.1458,-7.0842,-6.9756,-6.8452,-6.8307,-6.7836,-6.7148,-6.6207,-6.5736,-6.5374,0.0,0.0,0.0,0.0,0.0,0.0,0.0,0.0,-6.7436,-7.1668,-7.2206,-7.3976,-7.8669,-7.8438,-7.7553,-7.6669,-7.5748,0.0,0.0,-7.3515,-7.4076,-7.3974,-7.4421,-7.4761,-7.4918,-7.4918,-7.4698,-7.4294,-7.4698,-7.4882,-7.4882,-7.4478,-7.5175,-7.6717,-7.6717,-7.6937,-7.7347,-7.8222,-7.8809,-7.9176,-7.9176,-7.969,-8.0351,-7.9947,-7.9543,-7.9176,-7.9176,-7.9176,-7.914,-7.8699,-7.8038,-7.7414,-7.7818,-7.5983,-7.3303,0.0,0.0,0.0,0.0,0.0,0.0,0.0,0.0,0.0,0.0,0.0,0.0,0.0,0.0,-6.5591,-6.7583,0.0,-7.4175,-7.8593,-8.192,-8.464,-8.6617,-8.6731,-8.6195,-8.5139,-8.4549,-8.3727,-8.244,-8.2313,-8.1771,-8.0534,-7.9776,-7.9017,-7.8258,-7.7519,-7.6981,-7.6543,-7.6259,-7.573,-7.4953,-7.464,-7.4297,-7.3892,-7.3471,-7.3088,-7.269,-7.1857,-7.1494,-7.1494,-7.1096,-7.1168,-7.1458,-7.0698,-6.9684,-6.8561,-6.8162,-6.751,-6.6714,-6.5881,-6.5337,-6.483,0.0,0.0,0.0,0.0,0.0,0.0,0.0,0.0,0.0,-7.0244,-7.0783,-7.2399,-7.6361,-7.5707,-7.4745,0.0,0.0,0.0,0.0,-7.5514,-7.6667,-7.6681,-7.649,-7.6179,-7.5787,-7.5757,-7.5625,-7.5395,-7.6203,-7.6497,-7.635,-7.6166,-7.6533,-7.7273,-7.7273,-7.7384,-7.7604,-7.8479,-7.9286,-8.0021,-8.0021,-8.0901,-8.2039,-8.0755,-8.0241,-8.0241,-8.0241,-7.9947,-7.9727,-8.0865,-8.0571,-8.0131,-8.2039,-8.0645,-7.7781,-7.5359,-7.4184,0.0,0.0,0.0,0.0,0.0,0.0,0.0,0.0,-6.4794,-6.4468,-6.7329,-6.8162,-6.9394,-7.2762,-7.5334,-7.834,-8.2505,-8.3891,-8.5019,-8.6929,-8.6312,-8.5672,-8.5513,-8.4511,-8.316,-8.1517,-8.1352,-8.0809,-7.9413,-7.8619,-7.8298,-7.8384,-7.7571,-7.7382,-7.8092,-7.7089,-7.6269,-7.5677,-7.4498,-7.3547,-7.2914,-7.3103,-7.2762,-7.1965,-7.182,-7.1639,-7.1458,-7.0879,-7.0879,-7.1241,-7.0625,-6.9828,-6.8887,-6.8235,-6.751,-6.6677,-6.5736,-6.4939,-6.4251,0.0,0.0,0.0,0.0,0.0,0.0,0.0,0.0,0.0,-6.9475,-7.0475,-7.1937,-7.4707,0.0,0.0,0.0,0.0,0.0,-7.3415,-7.6644,-7.8845,-7.9448,-7.8972,-7.8791,-7.8889,-7.8861,-7.824,-7.7017,-7.7892,-7.7928,-7.7127,-7.6423,-7.6533,-7.7273,-7.7273,-7.7745,-7.8516,-7.9323,-8.0131,-8.0865,-8.0865,-8.1415,-8.2186,-8.2003,-8.1929,-8.1929,-8.1929,-8.0534,-7.9066,-8.1305,-8.1048,-8.0314,-8.3361,-8.3104,-8.1195,-7.8772,-7.5983,-7.2642,-6.7797,-6.614,-6.586,-6.6071,-6.5277,-6.5755,0.0,-7.0553,-7.0734,-7.5225,-7.7326,-7.8666,-7.9825,-8.1998,-8.4243,-8.6163,-8.7751,-8.8734,-8.88,-8.7947,-8.6791,-8.525,-8.3776,-8.2191,-8.0544,-8.0376,-8.0292,-8.0073,-7.9397,-7.9007,-7.9004,-7.7648,-7.6999,-7.706,-7.4988,-7.3924,-7.381,-7.3821,-7.3783,-7.3684,-7.4471,-7.4428,-7.3631,-7.2907,-7.2183,-7.1494,-7.1422,-7.106,-7.0517,-7.0408,-6.9502,-6.8126,-6.8054,-6.751,-6.6605,-6.5084,-6.4468,-6.4178,0.0,0.0,0.0,0.0,0.0,0.0,0.0,0.0,0.0,0.0,0.0,-7.0052,-7.1629,0.0,0.0,0.0,0.0,0.0,-7.4817,-7.8601,-8.1039,-8.1512,-8.1198,-8.092,-8.069,-8.0559,-8.0087,-7.9202,-7.9428,-7.9911,-8.0637,-7.9642,-8.0144,-8.182,-8.1373,-8.1075,-8.101,-8.1345,-8.168,-8.2024,-8.2126,-8.2382,-8.2616,-8.2311,-8.1893,-8.1305,-7.9874,-7.8699,0.0,0.0,-7.9323,-7.9103,-8.3287,-8.1525,-7.8038,-7.8479,-7.5946,0.0,-7.2239,-7.0119,-6.8577,-7.0989,-7.0244,-6.9944,-7.3877,-7.3921,-7.4247,-7.8086,-8.0187,-8.1672,-8.2976,-8.475,-8.6561,-8.8155,-8.8442,-8.8469,-8.8259,-8.7783,-8.6266,-8.3191,-8.3415,-8.3007,-8.1038,-8.0445,-8.0209,-8.0209,-7.9532,-7.8923,-7.8483,-7.7468,-7.669,-7.6217,-7.4424,-7.3753,-7.4261,-7.2969,-7.2858,-7.3856,-7.3761,-7.3526,-7.3197,-7.2364,-7.1567,-7.0879,-7.1313,-7.1313,-7.1024,-7.0553,-6.9973,-6.9285,-6.838,-6.78,-6.7293,-6.57,-6.4794,-6.4251,0.0,0.0,0.0,0.0,0.0,0.0,0.0,0.0,0.0,0.0,0.0,0.0,0.0,0.0,0.0,0.0,0.0,0.0,0.0,-7.9415,-8.2186,-8.2837,-8.3216,-8.3231,-8.2912,-8.2745,-8.2434,-8.1913,-8.1915,-8.2526,-8.3676,-8.2853,-8.3411,-8.5064,-8.405,-8.3637,-8.3674,-8.3235,-8.316,-8.3397,-8.3789,-8.355,-8.2972,-8.2591,-8.1166,-7.9103,-7.7273,-7.6319,0.0,0.0,-7.5983,-7.6283,-8.0094,-7.8479,-7.5506,-7.6864,-7.4515,-7.1945,-7.3927,-7.2642,-7.1521,-7.4586,-7.4645,-7.4587,-7.6878,-7.7033,-7.7543,-8.0332,-8.2179,-8.37,-8.5076,-8.6634,-8.8046,-8.9205,-8.8973,-8.8492,-8.8029,-8.7422,-8.5727,-8.2021,-8.2475,-8.2475,-8.0851,-8.0581,-8.0412,-8.0209,-7.9701,-7.916,-7.8619,-7.7705,-7.6927,-7.6352,-7.4492,-7.3901,-7.48,-7.2908,-7.2761,-7.4225,-7.3867,-7.3568,-7.3342,-7.2291,-7.1422,-7.0734,-7.1277,-7.1494,-7.1458,-7.0698,-7.0263,-6.9901,-6.8561,-6.7873,-6.7547,-6.6351,-6.5265,-6.4287,0.0,0.0,0.0,0.0,0.0,0.0,0.0,0.0,0.0,0.0,0.0,0.0,0.0,0.0,0.0,0.0,0.0,0.0,0.0,-7.8323,-8.1814,-8.3329,-8.498,-8.5953,-8.6159,-8.6023,-8.5688,-8.5159,-8.5869,-8.5853,-8.514,-8.5091,-8.5117,-8.5117,-8.35,-8.4038,-8.6207,-8.4538,-8.4287,-8.5113,-8.5939,-8.4984,-8.3032,-8.3061,-7.9749,-7.5102,-7.5028,0.0,0.0,0.0,-7.0881,-7.1623,-7.2569,-7.4331,0.0,-7.4258,-7.1541,0.0,0.0,-7.1321,-7.2797,-7.4342,-7.6856,-7.9175,-7.9917,-8.0509,-8.1382,-8.3048,-8.4678,-8.6018,-8.6815,-8.8227,-8.935,-8.9386,-9.0038,-9.0109,-8.892,-8.7492,-8.5481,-8.27,-8.0547,-7.9261,-7.9194,-8.0445,-8.0953,-8.0242,-8.0175,-8.0175,-8.0141,-7.8754,-7.7942,-7.7908,-7.5033,-7.3901,-7.48,-7.4089,-7.4152,-7.5083,-7.5828,-7.5771,-7.4974,-7.3414,-7.2219,-7.1458,-7.1494,-7.1494,-7.1458,-7.0698,-6.9968,-6.9171,-6.8307,-6.751,-6.6822,-6.6786,-6.5772,-6.4287,0.0,0.0,0.0,0.0,0.0,0.0,0.0,0.0,0.0,0.0,0.0,0.0,0.0,0.0,0.0,0.0,0.0,0.0,0.0,-7.6861,-8.0115,-8.1814,-8.3418,-8.4583,-8.5244,-8.6241,-8.6473,-8.5825,-8.7011,-8.7513,-8.7398,-8.8378,-8.8783,-8.8745,-8.8174,-8.806,-8.8288,-8.7718,-8.7315,-8.7027,-8.6336,-8.4933,-8.2937,-8.0067,-7.6866,-7.336,0.0,0.0,0.0,0.0,0.0,0.0,-7.033,0.0,0.0,-6.8311,0.0,0.0,0.0,-7.4478,-7.5769,-7.9357,-8.1047,-8.197,-8.2638,-8.3228,-8.3847,-8.4355,-8.3991,-8.3736,-8.4533,-8.4243,-8.4424,-8.6018,-8.7829,-8.8802,-8.8259,-8.8954,-8.7859,-8.3193,-8.3211,-8.2171,-7.872,-7.8822,-7.9397,-8.0141,-8.0209,-8.0006,-7.9498,-7.8517,-7.7773,-7.7299,-7.5303,-7.4123,-7.3935,-7.3809,-7.3886,-7.4226,-7.5116,-7.508,-7.4283,-7.3197,-7.2255,-7.1494,-7.1494,-7.1494,-7.1422,-7.0118,-6.9787,-6.9823,-6.7945,-6.7366,-6.7547,-6.7003,-6.6134,-6.5084,0.0,0.0,0.0,0.0,0.0,0.0,0.0,0.0,0.0,0.0,0.0,0.0,0.0,0.0,0.0,0.0,0.0,0.0,0.0,0.0,-7.79,-7.9669,-8.126,-8.2512,-8.3396,-8.437,-8.4671,-8.4243,-8.5685,-8.6446,-8.6606,-8.8405,-8.9409,-8.9676,-8.937,-8.9447,-8.9676,-8.8453,-8.7498,-8.6637,-8.5371,-8.3215,-8.0378,-7.7276,-7.4014,0.0,0.0,0.0,0.0,0.0,0.0,0.0,0.0,0.0,0.0,0.0,0.0,0.0,-7.5506,-7.7378,-7.9145,-8.2751,-8.4005,-8.4485,-8.4929,-8.5263,-8.5228,-8.4319,-8.2757,-8.1598,-8.178,-8.0476,-8.0368,-8.3338,-8.5112,-8.6613,-8.8121,-8.8017,-8.6662,-8.359,-8.3124,-8.1663,-7.8314,-7.7976,-7.8382,-7.9329,-7.9667,-7.96,-7.9126,-7.8653,-7.828,-7.8077,-7.6082,-7.5005,-7.5138,-7.4464,-7.4332,-7.4679,-7.529,-7.4971,-7.3885,-7.3378,-7.2545,-7.1494,-7.1494,-7.135,-7.1024,-6.972,-6.9352,-6.9358,-6.751,-6.7112,-6.751,-6.7003,-6.6279,-6.5482,0.0,0.0,0.0,0.0,0.0,0.0,0.0,0.0,0.0,0.0,0.0,0.0,0.0,0.0,0.0,0.0,0.0,0.0,0.0,0.0,0.0,-7.7015,-7.8707,-8.0015,-8.09,-8.0844,-8.0833,-8.0833,-8.2273,-8.2949,-8.2969,-8.536,-8.6887,-8.7613,-8.681,-8.7766,-8.9829,-8.6581,-8.4709,-8.3907,-8.299,-7.9894,-7.5708,-7.474,0.0,0.0,0.0,0.0,0.0,0.0,0.0,0.0,0.0,0.0,0.0,0.0,0.0,-7.345,-7.6723,-7.9947,-8.2774,-8.4315,-8.572,-8.675,-8.675,-8.6463,-8.5554,-8.3082,-8.1083,-7.9487,-7.8555,-7.7108,-7.7362,-8.149,-8.2324,-8.4087,-8.8478,-8.5233,-8.2791,-8.3901,-8.0633,-7.828,-7.8111,-7.8145,-7.8111,-7.8044,-7.872,-7.916,-7.9228,-7.9194,-7.9498,-8.0175,-7.7401,-7.6543,-7.7972,-7.5931,-7.5347,-7.6242,-7.6275,-7.5442,-7.3921,-7.3921,-7.3016,-7.1494,-7.1494,-7.1096,-7.0372,-6.9569,-6.8742,-6.7981,-6.7148,-6.6786,-6.6786,-6.6786,-6.6315,-6.5555,0.0,0.0,0.0,0.0,0.0,0.0,0.0,0.0,0.0,0.0,0.0,0.0,0.0,0.0,0.0,0.0,0.0,0.0,0.0,0.0,0.0,0.0,0.0,0.0,0.0,0.0,0.0,0.0,0.0,-8.1082,-8.0366,-8.1611,-8.1938,-8.1556,-8.1308,-8.1576,-8.2111,-8.1232,-8.0391,-7.9474,0.0,-7.6288,-7.4312,0.0,0.0,0.0,0.0,0.0,0.0,0.0,0.0,0.0,0.0,-6.6916,-6.7944,-7.2386,-7.4845,-7.6907,-8.0759,-8.3324,-8.5123,-8.6151,-8.6667,-8.6925,-8.6925,-8.5394,-8.3541,-8.2201,-7.7658,-7.397,-7.4207,-7.3414,-7.4247,-7.8847,-8.3084,-8.6577,-8.88,-8.8901,-8.7793,-8.5062,-8.3654,-8.2069,-7.9837,-8.0141,-8.0006,-7.8923,-7.8991,-7.96,-8.0682,-8.0209,-8.0006,-8.0175,-7.8923,-7.76,-7.6326,-7.5358,-7.508,-7.5406,-7.6038,-7.5442,-7.3921,-7.3921,-7.3016,-7.1494,-7.1494,-7.1386,-7.1096,-6.9787,-6.9098,-6.8742,-6.7366,-6.6786,-6.6786,-6.6786,-6.6677,-6.6279,0.0,0.0,0.0,0.0,0.0,0.0,0.0,0.0,0.0,0.0,0.0,0.0,0.0,0.0,0.0,0.0,0.0,0.0,0.0,0.0,0.0,0.0,0.0,0.0,0.0,0.0,0.0,0.0,0.0,0.0,0.0,-7.8258,-7.8512,-7.7712,-7.8002,-7.8137,-7.8099,-7.7373,0.0,0.0,0.0,0.0,0.0,0.0,0.0,0.0,0.0,0.0,0.0,0.0,0.0,-6.7577,-7.0587,-7.1982,-7.323,-7.7011,-7.925,-8.1012,-8.3324,-8.5637,-8.7509,-8.7949,-8.7802,-8.7252,-8.6187,-8.4285,-8.1732,-7.8277,-7.3993,-7.0932,-7.1221,-7.0548,-7.1893,-7.776,-8.1309,-8.4851,-8.9132,-8.8853,-8.7709,-8.6377,-8.5095,-8.3245,-8.0462,-8.0851,-8.0953,-8.0141,-8.0073,-8.0276,-8.0784,-8.1054,-8.1325,-8.1629,-8.031,-7.8511,-7.6288,-7.5993,-7.573,-7.5617,-7.6016,-7.543,-7.3921,-7.3921,-7.3016,-7.1494,-7.1494,-7.1313,-7.0915,-6.9684,-6.8989,-6.8561,-6.7293,-6.6786,-6.675,-6.6388,-6.6062,-6.5555,0.0,0.0,0.0,0.0,0.0,0.0,0.0,0.0,0.0,0.0,-7.0975,0.0,0.0,0.0,0.0,0.0,0.0,0.0,0.0,0.0,0.0,0.0,0.0,0.0,0.0,0.0,0.0,0.0,0.0,0.0,0.0,0.0,0.0,0.0,0.0,0.0,0.0,0.0,0.0,0.0,0.0,0.0,0.0,0.0,0.0,0.0,0.0,0.0,0.0,0.0,-7.3104,-7.334,-7.5506,-7.7598,-7.9727,-8.226,-8.3985,-8.5086,-8.5233,-8.7362,-8.9564,-8.9564,-8.8793,-8.7435,-8.5123,-8.292,-7.9622,-7.342,-7.0493,-6.907,-6.9084,-6.847,-7.0372,-7.7543,-7.8955,-8.1853,-8.9481,-8.7326,-8.5636,-8.7374,-8.5455,-8.3022,-8.0547,-8.0987,-8.1393,-8.1291,-8.1393,-8.1156,-8.0513,-8.1799,-8.2813,-8.3321,-8.1291,-7.9163,-7.6996,-7.6992,-7.6685,-7.608,-7.6154,-7.5512,-7.4211,-7.403,-7.316,-7.182,-7.1603,-7.1132,-7.048,-6.9714,-6.8887,-6.809,-6.7257,-6.6895,-6.6714,-6.5881,-6.5156,-6.4432,0.0,0.0,0.0,0.0,0.0,0.0,0.0,0.0,0.0,0.0,-7.136,-7.0898,0.0,0.0,0.0,0.0,0.0,0.0,0.0,0.0,0.0,0.0,0.0,0.0,0.0,0.0,0.0,0.0,0.0,0.0,0.0,0.0,0.0,0.0,0.0,0.0,0.0,0.0,0.0,0.0,0.0,0.0,0.0,0.0,0.0,0.0,0.0,0.0,0.0,0.0,-7.633,-7.635,-8.1342,-8.2774,-8.3177,-8.6261,-8.7362,-8.7729,-8.839,-8.9454,-9.0408,-9.0408,-8.8793,-8.6775,-8.5013,-8.0755,0.0,-7.2138,-6.83,-6.6016,-6.7193,-6.7744,-7.0372,-7.7543,-8.0368,-8.3692,-8.9478,-8.855,-8.7108,-8.654,-8.4924,-8.3095,-8.1258,-8.1765,-8.1968,-8.1325,-8.1866,-8.2171,-8.2035,-8.2847,-8.3084,-8.2611,-8.1054,-7.9163,-7.6996,-7.705,-7.6494,-7.5296,-7.5976,-7.614,-7.5841,-7.4537,-7.3776,-7.3414,-7.2074,0.0,-7.1241,-7.048,-6.975,-6.8887,-6.8126,-6.7402,-6.6714,-6.5881,-6.5518,-6.5192,0.0,0.0,0.0,0.0,0.0,0.0,0.0,-7.2322,-7.2899,-7.2899,-7.2899,-7.2552,-7.1668,-7.1591,-7.1591,0.0,0.0,0.0,0.0,0.0,0.0,0.0,0.0,0.0,0.0,0.0,0.0,0.0,0.0,0.0,0.0,0.0,0.0,0.0,0.0,0.0,0.0,0.0,0.0,0.0,0.0,0.0,0.0,0.0,0.0,0.0,0.0,0.0,0.0,0.0,-7.6343,-7.8552,-8.5049,-8.7729,-8.8573,-8.9271,-9.0078,-9.0445,-8.916,-8.9968,-9.1216,-9.1216,-8.9417,-8.6775,-8.3471,0.0,0.0,-6.9659,-6.6728,-6.5396,-6.6834,-6.7971,-7.0392,-7.537,-7.8593,-8.2178,-8.7236,-8.7258,-8.6593,-8.6393,-8.4924,-8.3213,-8.1461,-8.1968,-8.2272,-8.19,-8.2577,-8.2644,-8.1866,-8.2543,-8.278,-8.2408,-8.0987,-7.917,-7.6948,-7.7426,-7.6775,-7.5015,-7.6265,-7.6224,-7.5044,-7.4718,-7.3849,-7.2653,-7.2291,-7.1893,-7.1458,-7.0698,-6.9932,-6.9134,-6.8307,-6.751,-6.6714,-6.5881,-6.5337,-6.4794,0.0,0.0,0.0,0.0,0.0,0.0,0.0,-7.3091,-7.3822,-7.4014,-7.4591,-7.4476,-7.3168,-7.2668,-7.2476,0.0,0.0,0.0,0.0,0.0,0.0,0.0,0.0,0.0,0.0,0.0,0.0,-7.0898,0.0,0.0,0.0,0.0,0.0,0.0,0.0,0.0,0.0,0.0,0.0,0.0,0.0,0.0,0.0,0.0,0.0,0.0,0.0,0.0,0.0,0.0,-7.5921,-7.959,-8.6075,-8.9821,-9.162,-9.0629,-9.1546,-9.2354,-9.0115,-9.0776,-9.206,-9.206,-9.0005,-8.6664,-8.1856,-7.7598,0.0,-6.7614,-6.5747,-6.554,-6.6947,-6.7978,-6.9721,-7.3088,-7.5768,-7.9354,-8.4859,-8.5067,-8.5102,-8.6421,-8.4737,0.0,-8.119,-8.1731,-8.2103,-8.1934,-8.2475,-8.2441,-8.1562,-8.1799,-8.2002,-8.2171,-8.075,-7.9056,-7.7182,-7.7503,-7.6851,-7.5196,-7.6351,-7.6123,-7.4682,-7.4938,-7.4102,-7.2291,-7.2581,-7.2255,-7.1458,-7.0879,-7.0154,-6.9388,-6.8561,-6.7764,-6.6931,-6.5953,-6.5192,-6.4541,0.0,0.0,0.0,0.0,0.0,0.0,0.0,-7.3553,-7.4861,-7.5668,-7.5822,-7.5822,-7.5668,-7.4284,-7.3399,0.0,0.0,0.0,0.0,0.0,0.0,0.0,0.0,0.0,0.0,0.0,0.0,-7.0898,-7.0898,0.0,0.0,0.0,0.0,0.0,0.0,-7.0369,0.0,0.0,0.0,0.0,0.0,0.0,0.0,0.0,0.0,0.0,0.0,0.0,0.0,0.0,0.0,-7.8734,-8.2716,-8.5637,-8.7839,-8.916,0.0,0.0,-9.3418,-9.3382,-9.2978,-9.2978,-9.0041,-8.5857,-8.1012,0.0,-7.2422,-6.7504,-6.5747,-6.554,-6.6947,-6.6624,-6.7615,-7.2106,-7.3052,-7.5949,-8.37,-8.2766,-8.2643,-8.6174,0.0,0.0,-8.0377,-8.0953,-8.1122,-8.0445,-8.0479,-8.1021,-8.2238,-8.1088,-8.0716,-8.1359,-7.9972,-7.8808,-7.803,-7.671,-7.6105,-7.6038,-7.558,-7.598,-7.7108,-7.5732,-7.4974,-7.4685,-7.3305,-7.2255,0.0,-7.1422,-7.0951,-7.0221,-6.9424,-6.8597,-6.7692,-6.617,-6.5555,-6.5374,0.0,0.0,0.0,0.0,0.0,0.0,-7.3591,-7.5168,-7.6399,-7.6746,-7.7207,-7.7323,-7.6823,-7.5707,-7.4784,-7.4284,0.0,0.0,0.0,0.0,0.0,0.0,0.0,0.0,0.0,0.0,-7.1168,-7.1668,-7.1168,0.0,0.0,0.0,0.0,0.0,0.0,-7.0538,-7.0381,0.0,0.0,0.0,0.0,0.0,0.0,0.0,0.0,0.0,0.0,0.0,-7.0667,-7.1962,0.0,0.0,-7.3794,-7.6435,0.0,0.0,-8.8353,-9.0555,-9.1179,-9.2207,-9.3088,-9.3088,-8.9307,-8.4535,-8.0681,0.0,-7.1321,-6.7907,-6.6559,-6.6233,-6.7195,-6.6983,-6.7214,-6.8965,0.0,0.0,-7.8195,-7.8384,-7.9436,-8.3271,-8.162,-8.0337,-8.0818,-8.1122,-8.1156,-8.0885,-8.004,-7.9803,-8.0378,-7.987,-7.9667,-7.9972,-7.8551,-7.7222,-7.6002,-7.5946,-7.5554,-7.4759,-7.5466,-7.5872,-7.6058,-7.5913,-7.5297,-7.4356,-7.3704,-7.2979,0.0,-7.1712,-7.077,-6.9678,-6.9352,-6.8416,-6.7221,-6.6569,-6.6025,-6.5555,0.0,0.0,0.0,0.0,0.0,-7.3476,-7.4553,-7.5976,-7.7092,-7.7592,-7.8361,-7.8554,-7.7746,-7.6899,-7.6015,-7.5168,-7.5091,0.0,0.0,0.0,0.0,0.0,0.0,0.0,0.0,0.0,-7.1206,-7.1822,-7.1475,-7.1475,0.0,0.0,-7.1026,-7.0708,0.0,0.0,0.0,0.0,0.0,0.0,0.0,0.0,0.0,0.0,0.0,0.0,0.0,0.0,0.0,0.0,0.0,0.0,0.0,0.0,0.0,0.0,-8.4719,-8.7912,-8.9052,-9.0849,-9.2427,-9.2648,-8.861,-8.3765,0.0,0.0,-7.1248,-6.8605,-6.7614,-6.7266,-6.746,-6.7359,-6.7154,0.0,0.0,-7.0806,-7.3957,-7.4975,-7.6485,-7.9466,-7.8692,-7.8279,-7.9226,-7.9904,-8.0412,-8.0615,-7.9464,-7.8686,-7.8483,-7.845,-7.8551,-7.8788,-7.713,-7.5811,-7.4931,-7.4912,-7.455,-7.3792,-7.5009,-7.5405,-7.5105,-7.5921,-7.5406,-7.3921,-7.3921,-7.3305,0.0,-7.1494,-7.0517,-6.9533,-6.9032,-6.8162,-6.7148,-6.6895,-6.646,-6.5917,0.0,0.0,0.0,0.0,0.0,0.0,-7.4437,-7.5438,-7.6592,-7.8246,-7.9246,-7.9438,-7.8592,-7.7746,-7.6938,-7.6053,-7.5976,0.0,0.0,0.0,0.0,0.0,0.0,0.0,0.0,0.0,-7.0898,-7.0898,-7.1783,-7.1745,-7.0937,-7.1713,-7.1602,-7.0708,0.0,0.0,0.0,0.0,0.0,0.0,0.0,0.0,0.0,0.0,0.0,0.0,0.0,0.0,0.0,0.0,0.0,0.0,0.0,0.0,0.0,0.0,-7.9653,-8.4352,-8.8353,-9.0005,-9.0812,-9.162,-8.8169,-8.3765,0.0,0.0,-7.2753,-6.9559,-6.8898,-6.8587,-6.7643,-6.7359,-6.7154,-6.7011,0.0,0.0,-7.2291,-7.3291,-7.4035,-7.4972,-7.4948,-7.4827,-7.4687,-7.669,-7.8348,-7.9092,-7.8416,-7.7671,-7.6961,-7.6927,-7.7266,-7.7976,-7.5811,-7.4965,-7.5676,-7.351,-7.2856,-7.3671,-7.3786,-7.4299,-7.5118,-7.5933,-7.5406,-7.3921,-7.3921,-7.3016,0.0,-7.0698,-7.0372,-7.0227,-6.8633,-6.8017,-6.7909,-6.7112,-6.6786,-6.6677,0.0,0.0,0.0,0.0,0.0,0.0,0.0,-7.6322,-7.7284,-7.8361,-7.8246,-7.8207,-7.8477,-7.7246,-7.6284,-7.6015,-7.6015,0.0,0.0,0.0,0.0,0.0,0.0,0.0,0.0,-7.0898,-7.1475,-7.2668,-7.236,-7.2629,-7.3476,-7.2558,-7.1909,-7.1551,-7.0884,-7.0538,0.0,0.0,0.0,0.0,0.0,0.0,0.0,0.0,0.0,0.0,0.0,0.0,0.0,0.0,0.0,0.0,0.0,0.0,0.0,0.0,0.0,0.0,-8.2333,-8.4242,-8.5637,-8.5306,-8.2406,-7.9213,-7.7635,0.0,-7.077,-6.9229,-6.8458,-6.7981,-6.767,-6.7378,-6.7182,-6.7154,-6.7179,0.0,0.0,-7.0947,-7.2329,-7.4611,-7.6134,-7.6958,-7.6942,-7.7096,-7.7536,-7.828,-7.7671,-7.713,-7.6927,-7.6386,-7.5946,-7.5676,-7.4999,-7.4255,-7.3443,-7.2732,-7.2584,-7.2912,-7.3542,-7.4261,-7.5118,-7.5933,-7.5732,-7.4685,-7.4138,-7.3016,-7.1458,-7.0698,-6.9756,-6.8706,-6.8199,-6.7655,-6.7076,-6.6279,-6.5989,-6.5844,0.0,0.0,0.0,0.0,0.0,0.0,0.0,-7.6476,-7.7092,-7.7938,-7.7861,-7.7823,-7.8015,-7.713,-7.6361,-7.6015,-7.6015,0.0,0.0,0.0,0.0,0.0,0.0,0.0,-7.0898,-7.0898,-7.1591,-7.3014,-7.2783,-7.3206,-7.4245,-7.3404,-7.2677,-7.1973,-7.1344,-7.0805,0.0,0.0,0.0,0.0,0.0,0.0,-7.0916,0.0,0.0,0.0,0.0,0.0,0.0,0.0,0.0,0.0,0.0,0.0,0.0,0.0,-7.3266,-7.668,0.0,-8.0424,-8.2076,-8.215,-7.9727,0.0,0.0,0.0,-7.0697,-6.9596,-6.8935,-6.8421,-6.7797,-6.7177,-6.6736,-6.6736,-6.6518,-6.6786,-6.809,-6.9502,-7.1198,-7.3315,-7.494,-7.598,-7.6251,-7.6386,-7.6758,-7.7536,-7.6893,-7.6318,-7.6048,-7.5574,-7.4695,-7.3409,-7.3375,-7.3071,-7.2394,-7.1853,-7.176,-7.2056,-7.2908,-7.376,-7.464,-7.5442,-7.539,-7.4612,-7.4138,-7.2834,0.0,-7.0263,-6.9176,-6.7981,-6.7692,-6.7257,-6.675,-6.6243,-6.5844,-6.5482,0.0,0.0,0.0,0.0,0.0,0.0,0.0,-7.6053,-7.6322,-7.7169,-7.79,-7.8054,-7.7361,-7.7246,-7.6861,-7.6053,0.0,0.0,0.0,0.0,0.0,0.0,0.0,0.0,-7.0898,-7.0975,-7.1398,-7.2283,-7.3168,-7.3615,-7.3692,-7.4312,-7.3699,-7.2073,-7.188,-7.1264,0.0,0.0,0.0,0.0,-7.061,-7.1068,0.0,0.0,0.0,0.0,0.0,0.0,0.0,0.0,0.0,0.0,0.0,0.0,0.0,0.0,0.0,0.0,0.0,-7.8112,-7.9617,-8.1048,-7.9213,-7.7017,0.0,0.0,0.0,-7.0403,-7.0,-6.9449,-6.8008,-6.6774,-6.597,-6.597,-6.5719,-6.5808,-6.6605,-6.8929,-7.0806,-7.1493,-7.2287,-7.2959,-7.351,-7.4796,-7.5946,-7.6758,-7.6014,-7.527,-7.4661,-7.4525,-7.351,-7.1447,-7.1345,-7.1616,-7.2225,-7.0838,-7.0534,-7.1312,-7.203,-7.2921,-7.3838,-7.4606,-7.4616,0.0,-7.3849,-7.2472,-7.0258,-6.9533,-6.8669,-6.7836,-6.7112,-6.6786,-6.6786,-6.675,-6.6207,-6.541,0.0,0.0,0.0,0.0,0.0,0.0,0.0,0.0,0.0,0.0,-7.6861,-7.6784,-7.7246,-7.6707,-7.6207,0.0,0.0,0.0,0.0,0.0,0.0,0.0,0.0,0.0,-7.0898,-7.1552,-7.2322,-7.3206,-7.4014,-7.474,-7.5334,-7.4758,-7.3913,-7.2799,-7.2068,-7.1238,0.0,0.0,0.0,0.0,-7.252,-7.2253,0.0,0.0,0.0,0.0,-7.2444,-7.3093,0.0,0.0,0.0,0.0,0.0,0.0,0.0,0.0,-7.2349,-7.2679,-7.3413,0.0,-7.4147,-7.3927,-7.4221,-7.4368,0.0,0.0,0.0,0.0,-6.9119,-6.8128,-6.776,-6.6774,-6.597,-6.597,-6.5246,-6.4939,-6.5772,-6.9469,-7.2122,-7.2219,-7.4487,-7.5561,-7.4484,-7.4661,-7.5168,-7.5912,-7.4762,-7.4187,-7.4593,-7.3544,-7.2699,-7.2157,-7.1616,-7.1109,-7.0703,-6.9823,-7.0026,-7.1312,-7.1559,-7.2441,-7.3838,-7.4074,-7.4078,-7.3885,-7.3269,-7.1639,-6.9497,-6.9279,-6.8343,-6.7076,-6.6858,-6.6786,-6.675,-6.6098,-6.5374,-6.4577,0.0,0.0,0.0,0.0,0.0,0.0,0.0,0.0,0.0,0.0,0.0,-7.6169,-7.663,-7.6284,0.0,0.0,0.0,0.0,0.0,0.0,0.0,0.0,0.0,-7.1091,-7.1475,-7.1937,-7.2822,-7.4053,-7.4471,-7.5095,-7.5879,-7.5309,-7.4309,-7.3051,-7.1691,-7.0839,-7.0457,-7.1412,-7.1259,-7.0517,-7.1909,0.0,0.0,0.0,0.0,0.0,-7.2215,-7.2673,0.0,-7.3934,-7.4079,-7.3897,0.0,0.0,0.0,0.0,-7.2496,-7.2496,-7.2496,-7.2496,-7.2422,-7.1982,-7.2239,-7.2496,-7.2055,0.0,0.0,0.0,-6.8862,-6.8017,-6.7283,-6.6225,-6.5341,-6.4949,-6.5246,-6.6279,-6.8561,-7.1316,-7.3114,-7.3062,-7.5107,-7.6165,-7.5195,-7.4796,-7.4931,-7.5642,-7.4322,-7.351,-7.3612,-7.2834,-7.209,-7.1413,-7.0669,-7.0263,-7.0195,-6.9789,-7.0042,-7.0763,-7.0824,-7.189,-7.3848,-7.385,-7.4083,-7.4431,-7.3993,-7.2255,-6.975,-6.975,-6.8561,-6.6786,-6.6786,-6.6786,-6.6714,-6.5881,-6.5084,-6.4287,0.0,0.0,0.0,0.0,0.0,0.0,0.0,0.0,0.0,0.0,0.0,0.0,0.0,0.0,0.0,0.0,0.0,0.0,0.0,0.0,0.0,0.0,-7.2014,-7.1437,-7.2168,-7.2322,-7.3168,-7.4692,-7.4888,-7.5342,-7.604,-7.5896,-7.491,-7.321,-7.1522,-7.0724,-7.061,-7.0763,-7.0648,-7.0419,-7.0533,0.0,0.0,0.0,0.0,0.0,0.0,0.0,0.0,-7.3476,-7.3286,-7.2558,-7.3507,0.0,0.0,0.0,0.0,0.0,-7.2459,-7.2422,-7.2312,-7.2312,-7.1908,-7.1403,-7.1174,0.0,0.0,0.0,-6.8788,-6.8348,-6.71,-6.5933,-6.4976,-6.4402,-6.5937,-6.838,-7.1857,-7.3426,-7.4006,-7.3553,-7.506,-7.5887,-7.5398,-7.4695,-7.4593,-7.5303,-7.3984,-7.2868,-7.2259,-7.2225,-7.1548,-7.006,-6.9654,-6.9553,-6.9823,-6.9823,-6.9977,-7.0175,-7.0345,-7.1587,-7.3902,-7.384,-7.4292,-7.5083,0.0,0.0,-7.0372,-7.0294,-6.885,-6.6786,-6.6786,-6.6786,-6.6714,-6.5881,-6.5084,-6.4251,0.0,0.0,0.0,0.0,0.0,0.0,0.0,0.0,0.0,0.0,0.0,0.0,0.0,0.0,0.0,0.0,0.0,0.0,0.0,0.0,0.0,-7.4514,-7.2899,-7.2052,-7.2206,-7.2937,-7.3716,-7.4604,-7.601,-7.6738,-7.6743,-7.671,-7.574,-7.3989,-7.3017,-7.2176,-7.1527,-7.2291,-7.1756,-7.0457,-7.1183,0.0,0.0,0.0,0.0,0.0,0.0,0.0,0.0,-7.2864,-7.3248,-7.324,-7.2958,0.0,0.0,0.0,0.0,0.0,-7.2312,-7.2018,-7.1505,-7.1505,-7.1908,-7.1945,-7.0587,0.0,0.0,0.0,0.0,0.0,0.0,-6.7588,-6.6992,-6.7567,-6.8298,-6.9249,-7.0553,-7.3714,-7.5118,-7.2964,-7.5288,-7.6226,-7.4034,-7.3172,-7.3037,-7.3781,-7.2462,-7.1616,-7.1481,-7.1481,-7.0804,-6.9316,-7.0364,-7.0094,-6.8267,-6.8233,-6.8929,-7.0212,-7.0891,-7.2116,-7.3818,-7.3857,-7.4332,-7.5011,0.0,-7.2038,-7.0335,-6.9678,-6.8343,-6.6786,-6.6786,-6.6786,-6.6714,-6.5881,-6.5084,-6.4178,0.0,0.0,0.0,0.0,0.0,0.0,0.0,0.0,0.0,0.0,0.0,0.0,0.0,0.0,0.0,0.0,0.0,0.0,0.0,0.0,-7.6361,-7.5438,-7.4668,-7.4014,-7.3553,-7.3894,-7.4926,-7.6663,-7.7336,-7.808,-7.8874,-7.7461,-7.5841,-7.4163,-7.3361,-7.2788,-7.2406,-7.2826,-7.252,-7.1794,0.0,0.0,0.0,0.0,0.0,0.0,0.0,0.0,0.0,0.0,-7.2719,-7.245,-7.2643,0.0,0.0,0.0,0.0,0.0,-7.1211,-7.0624,-7.022,-7.1073,-7.1248,-7.0881,-6.9706,-6.9119,-6.8678,0.0,0.0,0.0,0.0,-6.8685,-6.9158,-7.1053,-7.0827,-7.1024,-7.269,-7.4863,-7.5546,-7.3386,-7.5585,-7.625,-7.3775,-7.3172,-7.2969,-7.2902,-7.1548,-7.0703,-7.0703,-7.0331,-6.9789,-6.9113,-6.935,-6.8977,-6.7895,-6.8335,-6.8931,-6.9636,-7.085,-7.2265,-7.3852,-7.4365,-7.5011,-7.5696,0.0,-7.3269,-7.0951,-7.0589,-6.8995,-6.6786,-6.6786,-6.6786,-6.6714,-6.5881,-6.4541,-6.3056,0.0,0.0,0.0,0.0,0.0,0.0,0.0,0.0,0.0,0.0,0.0,0.0,0.0,0.0,0.0,0.0,0.0,0.0,0.0,-7.7669,-7.7438,-7.6361,-7.6077,-7.5562,-7.4716,-7.5003,-7.6325,-7.8634,-7.9076,-7.9831,-8.0828,-7.8441,-7.6418,-7.4736,-7.3934,-7.3386,-7.3108,-7.3108,-7.294,-7.2563,0.0,0.0,0.0,0.0,0.0,0.0,0.0,0.0,0.0,0.0,0.0,0.0,0.0,0.0,0.0,-7.1505,-7.0999,-7.0624,-7.0,-6.9082,-6.8641,-6.9889,-6.9706,-6.9339,-6.9669,-6.8825,-6.8091,-6.8458,-6.8531,-6.8715,-6.9339,-6.9856,-7.0956,-7.3293,-7.2762,-7.2834,-7.508,-7.6239,-7.6229,-7.4444,-7.5865,-7.6006,-7.3458,-7.2902,-7.2496,-7.1921,-7.0669,-6.9925,-6.9925,-6.9417,-6.8944,-6.8571,-6.8132,-6.7827,-6.7658,-6.8605,-6.9118,-6.9104,-7.1035,-7.2613,-7.3935,-7.4905,-7.5725,-7.6275,-7.6094,-7.4283,-7.1494,-7.1313,-6.9502,-6.6786,-6.6786,-6.6677,-6.6424,-6.5627,-6.4033,-6.2304,0.0,0.0,0.0,0.0,0.0,0.0,0.0,0.0,0.0,0.0,0.0,0.0,0.0,0.0,0.0,0.0,0.0,0.0,0.0,-7.6592,-7.6476,-7.7169,-7.6363,-7.5511,-7.4642,-7.6125,-7.7719,-7.933,-8.1686,-8.2434,-8.169,-7.9951,-7.8175,-7.6494,-7.5653,-7.4617,-7.3436,-7.3436,-7.2759,-7.1582,-7.1194,0.0,0.0,0.0,0.0,0.0,0.0,0.0,0.0,0.0,0.0,0.0,0.0,0.0,-7.1394,-7.1293,-7.0257,-6.9082,-6.9009,-6.7871,-6.6696,-6.6806,-6.6806,-6.7724,-7.1394,-7.0477,-6.9229,-7.0734,-7.1064,-7.1036,-7.1109,-7.1509,-7.2079,-7.2943,-7.3438,-7.4319,-7.5985,-7.7543,-7.7883,-7.6062,-7.6081,-7.5248,-7.2711,-7.1244,-7.0398,-7.0364,-6.962,-6.918,-6.918,-6.9147,-6.8436,-6.7015,-6.7557,-6.7557,-6.6914,-6.8368,-6.9122,-6.9141,-7.2192,-7.369,-7.3885,-7.5477,-7.6242,-7.6239,-7.5515,-7.3776,-7.1458,-7.0734,-6.9032,-6.6786,-6.6786,-6.6351,-6.5591,-6.4758,-6.3889,-6.2927,0.0,0.0,0.0,0.0,0.0,0.0,0.0,0.0,0.0,0.0,0.0,0.0,0.0,0.0,0.0,0.0,0.0,0.0,0.0,-7.7701,-7.7401,-7.717,-7.6785,-7.6146,-7.5239,-7.7407,-7.9824,-8.2509,-8.3945,-8.3678,-8.1767,-7.9722,-7.7624,-7.5437,-7.4836,-7.4304,-7.3829,-7.3829,-7.353,-7.2958,-7.1783,-7.1304,0.0,0.0,0.0,0.0,0.0,0.0,0.0,0.0,-7.0465,-7.045,-7.1081,-7.1283,-7.1073,-7.011,-6.9009,-6.8017,-6.754,-6.6953,-6.6843,-6.8348,-6.7247,-6.6549,-6.9559,-7.0734,-7.1321,-7.1945,-7.2459,-7.2944,-7.334,-7.3459,-7.3713,-7.4392,-7.4163,-7.3957,-7.4066,-7.5877,-7.6585,-7.4853,-7.5517,-7.5177,-7.269,-7.1532,-7.05,-6.9586,-6.8808,-6.8335,-6.8335,-6.7929,-6.7421,-6.6846,-6.7083,-6.7083,-6.6812,-6.8335,-6.9113,-6.9113,-7.2302,-7.3799,-7.3838,-7.501,-7.5549,-7.5513,-7.5226,-7.3467,-7.0775,-7.0979,-6.9394,-6.6786,-6.6786,-6.6043,-6.4889,-6.4633,-6.3392,-6.1818,0.0,0.0,0.0,0.0,0.0,0.0,0.0,0.0,0.0,0.0,0.0,0.0,0.0,0.0,0.0,0.0,0.0,0.0,-7.8477,-7.7939,-7.747,-7.7124,-7.6744,-7.6509,-7.6403,-7.8588,-8.1019,-8.3582,-8.4724,-8.3974,-8.1496,-7.9275,-7.7052,-7.4875,-7.4282,-7.3916,-7.3774,-7.3774,-7.3527,-7.3069,-7.1794,-7.1154,0.0,0.0,0.0,0.0,0.0,0.0,0.0,0.0,-6.9977,-6.9899,-7.0417,-7.0558,-7.0293,-6.8935,-6.7944,-6.7063,-6.6035,-6.5742,-6.6145,-6.7797,-6.732,-6.6953,-6.8862,-7.0367,-7.1651,-7.2679,-7.3303,-7.3751,-7.3963,-7.3788,-7.3889,-7.4602,-7.4232,-7.3885,-7.3849,-7.5478,-7.6256,-7.5083,-7.5395,-7.4811,-7.2375,-7.1197,-7.0094,-6.8808,-6.7996,-6.7658,-6.7895,-6.7218,-6.6812,-6.6812,-6.6812,-6.6812,-6.6812,-6.8335,-6.9113,-6.9113,-7.2015,-7.3522,-7.3838,-7.4973,-7.5478,-7.5442,-7.4691,-7.2834,-7.0336,-7.0138,-6.8514,-6.611,-6.611,-6.547,-6.4454,-6.4056,-6.2849,-6.1375,0.0,0.0,0.0,0.0,0.0,0.0,0.0,0.0,0.0,0.0,0.0,0.0,0.0,0.0,0.0,0.0,0.0,0.0,-7.8477,-7.6863,-7.6279,-7.7047,-7.612,-7.6365,-7.8049,-7.9644,-8.0926,-8.1843,-8.3802,-8.3468,-8.0905,-7.8705,-7.6812,-7.5235,-7.4385,-7.3725,-7.3298,-7.3298,-7.2509,-7.1276,-7.0924,-7.0301,-6.957,0.0,0.0,0.0,0.0,0.0,0.0,0.0,-6.8723,-6.8008,-6.9559,-6.9522,-6.8752,-6.7907,-6.71,-6.6145,-6.453,-6.4127,-6.4127,-6.4127,-6.6549,-6.9119,-6.9963,-6.9522,-6.9853,-7.3046,-7.3707,-7.345,-7.2679,-7.2233,-7.2243,-7.3045,-7.3602,-7.4464,-7.6022,-7.6963,-7.7447,-7.7369,-7.5967,-7.4047,-7.1622,-7.0013,-6.8774,-6.7963,-6.7218,-6.7117,-6.7861,-6.7218,-6.6812,-6.6812,-6.6812,-6.6812,-6.6812,-6.8335,-6.9113,-6.9147,-7.1422,-7.2955,-7.3838,-7.5477,-7.6275,-7.6133,-7.379,-7.1833,-7.0159,-6.7905,-6.604,-6.4601,-6.4601,-6.4601,-6.4425,-6.288,-6.2285,-6.194,0.0,0.0,0.0,0.0,0.0,0.0,0.0,0.0,0.0,0.0,0.0,0.0,0.0,0.0,0.0,0.0,0.0,0.0,-7.8477,-7.7323,-7.6476,-7.6065,-7.5719,-7.5782,-7.6279,-7.7589,-7.9827,-8.3003,-8.3025,-8.1589,-7.869,-7.6506,-7.4896,-7.3864,-7.3252,-7.2844,-7.2678,-7.2125,-7.1645,-7.1248,-7.0597,-6.9841,-6.9094,0.0,0.0,0.0,0.0,0.0,0.0,0.0,0.0,0.0,-6.8935,-6.8715,-6.7907,-6.71,-6.6696,-6.6256,-6.5228,-6.5375,-6.6182,-6.7907,-6.8605,-6.9559,-7.2055,-7.2459,0.0,-7.4221,-7.4992,-7.4955,-7.3597,-7.2599,-7.2097,-7.2316,-7.2766,-7.3233,-7.3704,-7.4971,-7.5812,-7.5754,-7.4358,-7.2879,-7.1668,-6.9536,-6.7929,-6.7184,-6.6948,-6.6914,-6.7117,-6.6914,-6.6812,-6.6812,-6.6812,-6.7049,-6.7557,-6.8605,-6.935,-6.9901,-7.1113,-7.2157,-7.2957,-7.2851,-7.2579,-7.2048,-7.0839,-6.9063,-6.6938,-6.5233,-6.4565,-6.453,-6.4004,-6.3834,-6.3617,-6.2092,-6.1185,-6.051,0.0,0.0,0.0,0.0,0.0,0.0,0.0,0.0,0.0,0.0,-8.167,-8.1593,0.0,0.0,0.0,0.0,0.0,0.0,0.0,-7.7495,-7.6547,-7.5638,-7.5553,-7.5653,-7.5959,-7.6844,-7.8279,-8.0243,-8.0208,-7.8914,-7.6468,-7.5213,-7.4238,-7.3471,-7.3807,-7.3597,-7.2973,-7.2826,-7.2173,-7.1219,-7.0403,-6.9633,-6.8825,0.0,0.0,0.0,0.0,0.0,0.0,0.0,0.0,0.0,0.0,0.0,-6.6145,-6.5668,-6.5301,-6.5081,-6.5264,-6.5888,-6.699,-6.9082,-7.0,-7.0917,-7.3193,-7.3927,-7.4331,-7.4808,-7.5285,-7.5322,-7.4368,-7.2965,-7.2097,-7.2425,-7.2621,-7.2834,-7.3124,-7.4319,-7.5192,-7.5551,-7.4114,-7.275,-7.1699,-6.9632,-6.7929,-6.688,-6.6812,-6.6812,-6.6812,-6.6812,-6.6812,-6.6812,-6.6812,-6.7015,-6.7455,-6.8571,-6.9316,-6.9755,-7.0217,-7.0856,-7.1616,-7.1537,-7.1086,-7.0308,-6.8633,-6.6563,-6.4282,-6.3084,-6.306,-6.3614,-6.254,-6.2356,-6.2429,-6.0889,-6.0049,-5.9505,0.0,0.0,0.0,0.0,0.0,0.0,0.0,0.0,0.0,0.0,-8.1769,-8.2154,0.0,0.0,0.0,0.0,0.0,0.0,0.0,-7.7471,-7.6578,-7.5621,-7.5514,-7.5827,-7.6479,-7.6822,-7.6381,-7.5126,-7.6301,-7.6,-7.4323,-7.463,-7.4441,-7.3854,-7.5249,-7.5065,-7.3707,-7.4258,-7.3156,-7.1027,-7.0293,-6.9522,-6.8641,-6.7173,0.0,0.0,0.0,0.0,0.0,0.0,0.0,0.0,-6.5301,-6.4751,-6.409,-6.409,-6.3539,-6.3319,-6.5044,-6.5962,-6.688,-6.8862,-7.1101,-7.3046,-7.3817,-7.4551,-7.4955,-7.4735,-7.4882,-7.4955,-7.4735,-7.3184,-7.2243,-7.2972,-7.2875,-7.2979,-7.3812,-7.4576,-7.5406,-7.6203,-7.4828,-7.3249,-7.1734,-7.0093,-6.8454,-6.6914,-6.6812,-6.6812,-6.6812,-6.6812,-6.6812,-6.6812,-6.6812,-6.688,-6.7015,-6.8335,-6.9079,-6.9214,-6.9147,-6.9385,-6.9922,-7.0771,-7.0695,-6.97,-6.6832,-6.435,-6.2347,-6.1535,-6.1637,-6.2144,-6.0588,-6.0486,-6.1028,-5.9539,-5.9032,-5.8896,0.0,0.0,0.0,0.0,0.0,0.0,0.0,0.0,0.0,0.0,0.0,0.0,0.0,0.0,0.0,0.0,0.0,0.0,0.0,-7.7934,-7.7134,-7.5574,-7.5518,-7.5376,-7.5131,-7.4827,-7.439,-7.3738,-7.5288,-7.4994,-7.2953,-7.3618,-7.4184,-7.4625,-7.4331,-7.4001,-7.3597,-7.1872,-7.0477,-6.9412,-6.9229,-6.8678,-6.7907,-6.7577,-6.7026,0.0,0.0,0.0,0.0,0.0,0.0,0.0,-6.5118,-6.4751,-6.409,-6.409,-6.398,-6.431,-6.6549,-6.6402,-6.6696,-7.1468,-7.4001,-7.5542,-7.635,-7.6166,-7.5322,-7.3413,-7.4515,-7.5249,-7.3377,-7.2453,-7.2061,-7.2243,-7.2512,-7.2979,-7.3812,-7.4576,-7.5406,-7.6203,-7.4868,-7.329,-7.1739,-7.0105,-6.8522,-6.6922,-6.6812,-6.6812,-6.6812,-6.6812,-6.6812,-6.6812,-6.6812,-6.7387,-6.8605,-6.8301,-6.8774,-6.9958,-6.9383,-6.858,-6.7519,-6.7719,-6.7095,-6.5757,-6.3965,-6.2848,-6.2279,-6.0926,-6.0825,-6.1366,-5.9844,-5.9708,-6.025,-5.9336,-5.9032,-5.8896,0.0,0.0,0.0,0.0,0.0,0.0,0.0,0.0,0.0,0.0,0.0,0.0,0.0,0.0,0.0,0.0,0.0,0.0,0.0,0.0,-7.6589,-7.4859,-7.4783,-7.4644,-7.4353,-7.3504,-7.3131,-7.3298,-7.3542,-7.324,-7.2532,-7.3303,-7.3927,-7.4331,-7.4698,-7.4221,-7.3083,-7.2202,-7.1138,-7.0,-6.9229,-6.8641,-6.8128,-6.699,-6.6035,-6.5301,-6.4861,0.0,0.0,0.0,0.0,0.0,0.0,0.0,-6.2989,-6.3356,-6.3209,-6.3576,-6.6833,-6.7357,-6.8201,-7.3046,-7.4625,-7.5175,-7.5983,-7.5836,-7.5065,-7.3413,-7.4074,-7.4551,-7.3303,-7.2548,-7.2144,-7.2144,-7.2236,-7.2563,-7.3366,-7.4062,-7.4826,-7.5623,-7.4651,-7.3295,-7.1739,-7.0123,-6.852,-6.6888,-6.6812,-6.6812,-6.6812,-6.6812,-6.6812,-6.6812,-6.6474,-6.6846,-6.7996,-6.7218,-6.7421,-6.8571,-6.7455,-6.631,-6.5217,-6.5595,-6.5335,-6.4567,-6.3384,-6.2516,-6.1772,-6.0588,-6.0351,-6.0588,-5.9066,-5.893,-5.9471,-5.8761,-5.8457,-5.8423,0.0,0.0,0.0,0.0,0.0,0.0,0.0,0.0,0.0,0.0,0.0,0.0,0.0,0.0,0.0,0.0,0.0,0.0,0.0,0.0,0.0,-7.4047,-7.4009,-7.3963,-7.3893,-7.2634,-7.2392,-7.3167,-7.1941,-7.1798,-7.2716,-7.3377,-7.378,-7.3964,-7.5139,-7.4515,-7.2532,-7.2753,-7.1945,-7.0367,-6.8898,-6.8274,-6.8054,-6.5925,-6.4677,-6.4053,-6.3906,0.0,0.0,0.0,0.0,0.0,0.0,0.0,-6.1924,-6.2622,-6.2218,-6.2438,-6.6256,0.0,-7.0073,-7.4111,-7.4515,0.0,-7.4918,-7.5028,-7.4661,-7.3854,-7.3707,-7.367,-7.3523,-7.2966,-7.2519,-7.2519,-7.2213,-7.2289,-7.3088,-7.3619,-7.4175,-7.4793,-7.4431,-7.3476,-7.175,-7.0213,-6.8647,-6.7139,-6.6896,-6.6812,-6.6812,-6.6812,-6.6745,-6.6609,-6.6,-6.6,-6.6609,-6.5865,-6.5865,-6.6609,-6.5121,-6.4239,-6.3873,-6.4277,-6.4339,-6.4183,-6.3601,-6.2464,-6.1028,-6.025,-5.9911,-5.9776,-5.8423,-5.8254,-5.8761,-5.8254,-5.8017,-5.7915,0.0,0.0,0.0,0.0,0.0,0.0,0.0,0.0,0.0,0.0,-7.9718,-7.9387,0.0,0.0,0.0,0.0,0.0,0.0,0.0,0.0,0.0,-7.4009,-7.4009,-7.3798,-7.339,-7.2469,-7.2209,-7.261,-7.1717,-7.2092,-7.3523,-7.3634,-7.4074,-7.4735,-7.4221,-7.345,-7.2386,-7.0367,-6.8605,-6.7063,-6.6145,-6.5778,-6.5668,-6.464,-6.42,-6.398,-6.3246,-6.2915,-6.2817,-6.2952,-6.2915,0.0,0.0,0.0,-6.2658,-6.2743,-6.2218,-6.2181,-6.4897,0.0,-7.0917,0.0,-7.5322,-7.4955,0.0,0.0,-7.4661,-7.3854,-7.3707,-7.3487,-7.2789,-7.301,-7.336,-7.336,-7.3051,-7.3088,-7.3924,-7.3946,-7.3957,-7.4066,-7.4582,-7.4066,-7.1835,-7.0763,-6.9589,-6.7965,-6.7195,-6.6812,-6.6812,-6.6812,-6.6508,-6.5865,-6.573,-6.573,-6.5831,-6.5121,-6.5121,-6.5831,-6.4343,-6.4273,-6.539,-6.4176,-6.3307,-6.2711,-6.2598,-6.1708,-6.0216,-5.9471,-5.9167,-5.9066,-5.822,-5.7949,-5.8118,-5.866,-5.8457,-5.7983,0.0,0.0,0.0,0.0,0.0,0.0,0.0,0.0,0.0,0.0,0.0,-7.8964,0.0,0.0,0.0,-7.715,0.0,0.0,0.0,0.0,0.0,-7.3156,-7.3156,-7.305,-7.2853,-7.1598,-7.1425,-7.2496,-7.1248,-7.1688,-7.3707,-7.3707,-7.3891,-7.4184,-7.3377,-7.2312,-7.1064,-6.9559,-6.8238,-6.7063,-6.5815,-6.5301,-6.5228,-6.442,-6.3796,-6.3319,-6.2952,-6.278,-6.278,-6.278,-6.278,-6.278,-6.278,0.0,0.0,0.0,-6.2548,-6.2915,-6.5852,-6.8678,-7.1431,0.0,-7.4845,-7.4992,-7.5359,-7.5175,-7.4808,-7.4441,-7.4368,-7.4147,-7.3303,-7.3392,-7.3619,-7.3619,-7.2948,-7.2552,-7.2917,-7.3103,-7.3233,-7.3233,-7.3559,-7.3188,-7.176,-7.0485,-6.9252,-6.8088,-6.7277,-6.6812,-6.6812,-6.6406,-6.6034,-6.5696,-6.4884,-6.4681,-6.5087,-6.3937,-6.3531,-6.3835,-6.3193,-6.3017,-6.3231,-6.3004,-6.2681,-6.2393,-6.2398,-6.1303,-5.9471,-5.9133,-5.8761,-5.8355,-5.8017,-5.7881,-5.7915,-5.8254,-5.8186,-5.7949,0.0,0.0,0.0,0.0,0.0,0.0,0.0,0.0,0.0,0.0,0.0,0.0,0.0,0.0,0.0,0.0,-7.5963,0.0,0.0,0.0,0.0,-7.2202,-7.2202,-7.2312,-7.2496,-7.0917,-7.077,-7.2202,-7.0587,-7.1248,-7.4001,-7.3597,-7.3817,-7.4551,-7.334,-7.2018,-7.0624,-6.9192,-6.8238,-6.7504,-6.5485,-6.4677,-6.4604,-6.4016,-6.3356,-6.278,-6.278,-6.278,-6.278,-6.278,-6.278,-6.278,-6.278,-6.2658,0.0,0.0,0.0,0.0,0.0,0.0,-7.0146,-7.2973,-7.4147,-7.4698,0.0,0.0,-7.5175,-7.4955,-7.5065,-7.5028,-7.4404,-7.4294,-7.4184,-7.3744,-7.3074,-7.2565,-7.2316,-7.2548,-7.2617,-7.2436,-7.2762,-7.264,-7.1677,-7.0487,-6.9411,-6.8405,-6.7569,-6.692,-6.6542,-6.6,-6.5527,-6.5155,-6.4072,-6.3666,-6.4038,-6.2956,-6.2313,-6.211,-6.211,-6.1738,-6.0994,-6.1568,-6.1725,-6.1551,-6.1726,-6.0642,-5.8727,-5.8727,-5.8389,-5.7881,-5.7881,-5.7881,-5.7915,-5.8084,-5.8051,-5.7915,0.0,0.0,0.0,0.0,0.0,0.0,0.0,0.0,0.0,0.0,0.0,0.0,-7.5191,-7.5779,-7.5595,-7.4007,-7.3868,-7.3149,-7.1541,-7.066,0.0,-7.1329,-7.1329,0.0,-7.2496,-7.0917,-7.0513,-7.1329,-6.9743,-7.0991,-7.4808,-7.3303,-7.4184,-7.7017,-7.4661,-7.3156,-7.2165,-6.9082,-6.7724,-6.7393,-6.4237,-6.2927,-6.2952,-6.2853,-6.2842,-6.278,-6.278,-6.278,-6.278,-6.278,-6.278,-6.278,-6.278,-6.2291,-6.1667,0.0,0.0,0.0,0.0,-6.4971,0.0,-7.2129,-7.3707,0.0,0.0,0.0,-7.5836,-7.5065,-7.5506,-7.6019,-7.5983,-7.5983,-7.5469,-7.3927,-7.4025,-7.4024,-7.3228,-7.2875,-7.2436,-7.1639,-7.2907,-7.3201,-7.1648,-7.1496,-7.0807,-6.9272,-6.837,-6.7301,-6.5839,-6.5696,-6.5053,-6.3666,-6.3565,-6.3193,-6.2516,-6.2415,-6.2042,-6.1366,-6.1366,-6.0926,-6.0148,-6.0186,-5.9851,-5.9245,-5.9902,-5.935,-5.7949,-5.7949,-5.7915,-5.7881,-5.7881,-5.7881,-5.7983,-5.8693,-5.849,-5.7983,0.0,0.0,0.0,0.0,0.0,0.0,0.0,0.0,0.0,0.0,0.0,0.0,0.0,-7.5946,-7.5432,-7.3817,-7.323,-7.2679,-7.2129,-7.1798,0.0,-7.2055,-7.2092,-7.2202,-7.2496,-7.1431,-7.1284,-7.2092,-7.0991,-7.1725,-7.4111,-7.3523,-7.3891,-7.4955,-7.4074,-7.323,-7.2275,-6.9045,-6.7687,-6.7393,-6.4127,-6.278,-6.2743,-6.2218,-6.1704,-6.1337,-6.1851,-6.2365,-6.289,-6.3466,-6.3282,-6.2915,-6.3466,-6.2328,-6.0823,-6.0823,-6.0786,0.0,0.0,0.0,0.0,-6.9009,-7.0991,-7.2459,-7.356,-7.4588,-7.5249,-7.4955,-7.5946,-7.6717,-7.6203,-7.6093,-7.5726,-7.4661,-7.3989,-7.3337,-7.2535,-7.2149,-7.182,-7.1531,-7.2001,-7.2146,-7.1567,-7.1563,-7.0948,-6.9309,-6.8937,-6.7868,-6.5846,-6.5256,-6.4546,-6.3531,-6.3057,-6.2448,-6.1704,-6.167,-6.1298,-6.052,-6.052,-6.0148,-5.9404,-5.9404,-5.8998,-5.8324,-5.8581,-5.8375,-5.7881,-5.7881,-5.7881,-5.7881,-5.7881,-5.7881,-5.7915,-5.8186,-5.8118,-5.7915,0.0,0.0,0.0,0.0,0.0,0.0,0.0,0.0,-7.6827,-7.6503,0.0,0.0,0.0,0.0,-7.4771,-7.3413,-7.2569,-7.2092,-7.2092,-7.1835,-7.1798,-7.2092,-7.2092,-7.2239,-7.2496,-7.1468,-7.1174,-7.1688,-7.0881,-7.1321,-7.2899,-7.3156,-7.3597,-7.4074,-7.3817,-7.3377,-7.2679,-6.9449,-6.8238,-6.8201,-6.4677,-6.3246,-6.3246,-6.3246,-6.2585,-6.1814,-6.3172,-6.3649,-6.3723,-6.431,-6.3759,-6.2915,-6.3466,-6.1998,-5.9942,-5.9685,-5.9979,-6.0456,-6.0713,0.0,0.0,0.0,0.0,-6.9853,-7.2018,0.0,-7.3927,-7.4735,-7.5983,-7.6827,-7.657,-7.6497,-7.6166,-7.5065,-7.4421,-7.369,-7.2535,-7.2174,-7.1884,-7.1531,-7.1748,-7.1893,-7.1893,-7.1942,-7.1335,-6.9732,-6.9345,0.0,-6.5474,-6.4884,-6.4038,-6.2821,-6.2753,-6.2313,-6.1332,-6.1806,-6.1535,-6.0486,-6.0486,-5.9979,-5.9032,-5.9032,-5.8592,-5.7881,-5.7881,-5.7881,-5.7881,-5.7881,-5.7881,-5.7881,-5.7881,-5.7881,-5.7881,-5.7881,-5.7881,-5.7881,0.0,0.0,0.0,0.0,0.0,0.0,0.0,0.0,-7.5799,-7.5028,0.0,0.0,0.0,0.0,0.0,-7.2606,-7.1798,-7.1329,-7.1329,-7.0587,-7.0513,-7.1293,0.0,0.0,-7.2496,-7.0954,-7.0146,-7.0146,-6.9339,-6.9779,-7.1293,-7.2092,-7.3303,-7.4771,-7.3927,-7.356,-7.3377,-7.0257,-6.9339,-6.9706,-6.5742,-6.4163,-6.431,-6.5852,-6.5448,-6.4347,-6.6733,-6.6623,-6.5301,-6.5338,-6.4237,-6.278,-6.267,-6.1056,-5.9074,-5.8253,-5.8033,-5.8217,0.0,0.0,0.0,0.0,0.0,0.0,-7.1174,0.0,-7.1835,-7.4258,-7.5432,-7.624,-7.709,-7.7273,-7.6796,-7.5249,-7.5495,-7.5269,-7.3441,-7.3104,-7.2626,-7.1635,-7.2183,-7.2653,-7.2653,-7.2726,-7.2097,-7.0509,-6.9693,-6.7898,-6.4803,-6.4546,-6.3531,-6.1366,-6.2685,-6.2753,-6.1264,-6.2651,-6.2651,-6.1197,-6.1197,-6.0419,-5.8964,-5.8964,-5.8524,-5.7814,-5.7848,-5.7848,-5.7848,-5.7881,-5.7881,-5.7881,-5.7881,-5.7881,-5.7881,-5.7881,-5.7881,-5.7881,0.0,0.0,0.0,0.0,0.0,-7.709,-7.6533,-7.624,-7.5799,0.0,0.0,0.0,-7.3523,-7.3046,-7.2973,-7.334,-7.2642,-7.2165,-7.2165,-7.1945,-7.1945,-7.2165,-7.2165,-7.2275,-7.2496,-7.1505,-7.0991,-7.0991,-7.077,-7.0852,-7.1293,-7.1513,-7.1872,-7.221,-7.0844,-7.055,-7.0991,-6.9522,-6.9045,-6.9045,-6.6733,-6.5485,-6.5007,-6.5485,-6.4604,-6.3319,-6.464,-6.5191,-6.5411,-6.5962,-6.4677,-6.2377,-6.0052,-5.9685,-5.9795,-5.84,-5.84,-5.8804,-5.8437,0.0,0.0,0.0,0.0,0.0,0.0,0.0,-6.7834,-7.0807,-7.2532,-7.4111,-7.6093,-7.6937,-7.7127,-7.6686,-7.6228,-7.5269,-7.3441,-7.3104,-7.2626,-7.1635,-7.1712,-7.182,-7.182,-7.2907,-7.2692,0.0,-7.0729,-6.9351,-6.5641,-6.3888,-6.2482,-6.1332,-6.1704,-6.1197,-5.9674,-6.0047,-5.9776,-5.8829,-5.8829,-5.8321,-5.7408,-5.7408,-5.7002,-5.6359,-5.6867,-5.7103,-5.7137,-5.7679,-5.7881,-5.7881,-5.7881,-5.7881,-5.7881,-5.7881,-5.7881,-5.7881,0.0,0.0,0.0,0.0,0.0,-7.7127,-7.668,-7.6313,-7.5799,0.0,0.0,0.0,-7.334,-7.3083,-7.3046,-7.3193,-7.2789,-7.2496,-7.2496,-7.2496,-7.2496,-7.2496,-7.2496,-7.2349,-7.2018,-7.1211,-7.0624,-7.0293,-7.0624,-7.0624,-7.033,-7.0991,-7.1109,-7.077,-6.9816,-6.9458,-6.9513,-6.9036,-6.9064,-6.9155,-6.6549,-6.5411,-6.5338,-6.5668,-6.4567,-6.311,-6.5705,-6.6476,-6.6366,-6.6843,-6.5375,-6.2768,-5.9538,-5.9134,-5.9722,-5.8767,-5.8584,-5.8621,-5.8143,-5.8327,-5.8988,-6.0126,0.0,0.0,-6.2952,-6.3392,-6.4383,-6.8274,-6.9816,-7.1211,-7.367,-7.4478,-7.4888,-7.5249,-7.5122,-7.4702,-7.3934,-7.3477,-7.2922,-7.22,-7.1806,-7.1992,-7.2907,-7.2943,-7.247,-7.1475,-7.0627,-6.8615,-6.504,-6.3266,-6.1907,-6.0825,-6.1434,-6.0858,-5.9032,-5.9641,-5.9438,-5.8355,-5.8355,-5.7814,-5.6799,-5.6799,-5.6393,-5.575,-5.6156,-5.6359,-5.6393,-5.6799,-5.7171,-5.7442,-5.7442,-5.7442,-5.7476,-5.778,-5.7881,-5.7881,0.0,0.0,-7.7127,-7.7053,-7.709,-7.7127,-7.7053,-7.6423,-7.5689,0.0,-7.4074,-7.3377,-7.2936,-7.3303,-7.3303,-7.2679,-7.2569,-7.2496,-7.2496,-7.2496,-7.2459,-7.2386,-7.2386,-7.1982,-7.1211,-7.0367,-6.9633,-6.8898,-6.9633,-6.9559,-6.8788,-7.033,-7.0587,-6.9706,-6.9706,-6.9219,-6.8449,-6.8348,-6.8834,-6.9385,-6.5972,-6.5018,-6.5752,-6.6423,-6.5212,-6.3745,-6.8073,-6.8688,-6.7393,-6.71,-6.5668,-6.3392,-6.0236,-5.9184,-5.9221,-5.9294,-5.8767,-5.8143,-5.8143,-5.8143,-5.8474,-5.9795,-5.8584,0.0,-6.1484,-6.1227,-6.1557,-6.6072,-6.7063,-6.7907,-7.044,-7.0991,-7.1284,-7.1982,-7.2936,-7.3795,-7.4452,-7.4019,-7.3496,-7.3047,-7.2362,-7.2699,-7.4645,-7.2907,-7.1889,-7.2508,-6.9708,-6.669,-6.3804,-6.2905,-6.1787,-6.0148,-6.1434,-6.1095,-5.8896,-6.025,-6.0182,-5.8761,-5.8693,-5.7915,-5.6562,-5.6461,-5.6089,-5.548,-5.5547,-5.5581,-5.5581,-5.5581,-5.6021,-5.6697,-5.6765,-5.6799,-5.6867,-5.7543,-5.7814,-5.7881,0.0,-7.5909,-7.613,-7.5506,-7.5909,-7.613,-7.5469,-7.5249,-7.4845,-7.4037,-7.323,-7.3413,-7.5212,-7.3817,-7.2936,-7.3413,-7.2863,-7.2496,-7.2496,-7.2496,-7.2202,-7.155,-7.1513,-7.1174,-7.033,-6.9559,-6.9082,-6.8898,-6.9082,-6.8715,-6.7944,-6.8935,-6.8605,-6.721,-6.721,-6.7073,-6.6863,-6.6133,-6.6289,-6.7048,-6.7423,-6.7743,-6.8046,-6.8044,-6.6893,-6.5505,-6.6482,-6.6281,-6.5317,-6.3441,-6.2915,-6.2622,-5.9992,-5.9184,-5.9331,-5.9979,-5.9612,-5.8964,-5.8964,-5.8964,-5.8914,-5.8547,-5.8621,0.0,-5.8914,-5.9208,-6.0089,-6.2328,-6.3319,-6.4714,-6.7834,-6.8935,-6.9412,-6.9596,-7.1358,-7.2988,-7.3646,-7.4165,-7.4117,-7.312,-7.287,-7.288,-7.3124,-7.2762,-7.201,-7.0943,-6.8568,-6.6354,-6.4484,-6.3683,-6.2323,-6.0186,-6.0385,-5.9776,-5.8118,-5.8389,-5.8118,-5.7239,-5.663,-5.5886,-5.5006,-5.4397,-5.4059,-5.3957,-5.4566,-5.4803,-5.4803,-5.4803,-5.5243,-5.5987,-5.6562,-5.6799,-5.6833,-5.6968,-5.7374,-5.7814,-7.4918,-7.5212,-7.5506,-7.5506,-7.5836,-7.6093,-7.613,-7.5763,-7.5359,-7.4955,-7.4221,-7.4001,-7.4808,-7.3817,-7.3083,-7.3083,-7.2716,-7.2496,-7.2496,-7.2129,-7.1725,-7.1293,-7.0917,-7.0513,-7.011,-6.9302,-6.8898,-6.8898,-6.8495,-6.8091,-6.7687,-6.7687,-6.7063,-6.5888,-6.5888,-6.559,-6.5091,-6.5413,-6.5953,-6.659,-6.6153,-6.6062,-6.6153,-6.6035,-6.5241,-6.4293,-6.5122,-6.5186,-6.4719,-6.3203,-6.2961,-6.2961,-6.1019,-6.0126,-5.9979,-6.075,-6.0114,-5.9187,-5.9661,-5.9748,-5.9516,-5.8781,-5.8621,0.0,0.0,-5.7409,-5.796,-5.9979,-6.0089,-6.0676,-6.3539,-6.4383,-6.4934,-6.5742,-6.7577,-6.9311,-7.0437,-7.2673,-7.4238,-7.4301,-7.325,-7.2865,-7.3812,-7.2834,-7.1476,-6.9965,-6.7995,-6.641,-6.5262,-6.4131,-6.2623,-6.0677,-6.0306,-5.937,-5.7915,-5.7881,-5.734,-5.6258,-5.5886,-5.5141,-5.4025,-5.3687,-5.3518,-5.3518,-5.389,-5.4059,-5.4059,-5.4059,-5.4262,-5.4702,-5.5412,-5.5683,-5.575,-5.6122,-5.6731,-5.7306,-7.4258,-7.4588,-7.4845,-7.5322,-7.5542,-7.5873,-7.6533,-7.6056,-7.5652,-7.5652,-7.4955,-7.4331,-7.3964,-7.3523,-7.3046,-7.2532,-7.2239,-7.2092,-7.2275,-7.1541,-7.1138,-7.1293,-7.0367,-6.9853,-6.9853,-6.9082,-6.8678,-6.8678,-6.7871,-6.7393,-6.721,-6.6549,-6.5742,-6.4824,-6.4982,-6.4705,-6.4137,-6.5104,-6.5896,-6.6365,-6.4512,-6.3875,-6.402,-6.3993,-6.3301,-6.25,-6.3646,-6.3974,-6.3819,-6.3596,-6.3539,-6.3346,-6.2313,-6.1337,-6.0714,-6.152,-6.053,-5.9396,-6.0298,-6.0604,-6.042,-5.9566,-5.899,-5.833,0.0,0.0,0.0,-5.8194,0.0,0.0,0.0,0.0,0.0,0.0,0.0,0.0,0.0,-7.0403,0.0,-7.4347,-7.2608,-7.2158,-7.4276,-7.24,-7.055,-6.9385,-6.7923,-6.6809,-6.6037,-6.4812,-6.327,-6.1255,-6.0606,-5.9519,-5.7915,-5.7881,-5.7171,-5.5681,-5.5681,-5.4938,-5.3518,-5.3518,-5.3518,-5.3518,-5.3518,-5.3518,-5.3518,-5.3518,-5.3518,-5.3585,-5.4296,-5.46,-5.4668,-5.5446,-5.619,-5.6799,-7.2459,-7.334,-7.3634,-7.301,-7.3487,-7.4001,-7.4074,-7.4037,-7.3964,-7.3964,-7.3266,-7.3303,-7.4625,-7.2863,-7.1835,-7.2459,-7.1211,-7.0697,-7.1366,-7.0697,-7.055,-7.1256,-6.9853,-6.9045,-6.9045,-6.8238,-6.7834,-6.7834,-6.7026,-6.6256,-6.5595,-6.5485,-6.4604,-6.311,-6.3768,-6.4752,-6.5806,-6.4321,-6.4139,-6.4838,-6.4472,-6.4827,-6.5557,-6.5416,-6.4017,-6.1987,-6.1577,-6.0965,-6.0565,-6.2079,-6.2542,-6.2652,-6.3189,-6.2313,-6.1281,-6.2058,-6.1146,-6.0051,-6.0916,-6.162,-6.1802,-6.027,-6.038,-6.0284,-5.8189,0.0,-5.8113,-5.6359,0.0,0.0,0.0,0.0,0.0,0.0,0.0,0.0,-6.6402,-6.7614,-6.8917,-7.0295,-6.9485,-6.9705,-7.1931,-7.0537,-6.9394,-6.9229,-6.8397,-6.7549,-6.6809,-6.6604,-6.4872,-6.1325,-6.1114,-6.0069,-5.7915,-5.7881,-5.7171,-5.5681,-5.5681,-5.4938,-5.3518,-5.3518,-5.3518,-5.3518,-5.3518,-5.3518,-5.3518,-5.3518,-5.3518,-5.3585,-5.4296,-5.46,-5.4668,-5.5446,-5.619,-5.6799,-7.1578,-7.2092,-7.2496,-7.3083,-7.3487,-7.3854,-7.4331,-7.4404,-7.4404,-7.4404,-7.3707,-7.3817,-7.5432,-7.3854,-7.301,-7.3817,-7.2863,-7.2312,-7.2679,-7.1064,-7.0881,-7.2606,-6.9816,-6.8862,-7.0257,-6.8128,-6.721,-6.7687,-6.5962,-6.4934,-6.4604,-6.409,-6.3466,-6.2817,-6.3533,-6.4161,-6.4738,-6.5249,-6.4847,-6.3819,-6.4207,-6.3546,-6.2341,-6.3699,-6.3019,-6.1208,-6.0465,-5.9947,-5.9792,-6.0638,-6.1501,-6.2182,-6.1678,-6.1375,-6.1266,-6.1594,-6.085,-6.0289,-6.2079,-6.2453,-6.2037,-6.0949,-6.061,-5.9905,-5.7521,-5.7253,-5.7217,-5.6264,0.0,0.0,0.0,0.0,0.0,0.0,-5.9979,0.0,0.0,0.0,-6.4526,0.0,0.0,0.0,-6.8717,-6.7389,-6.6786,-6.7728,-6.6641,-6.5981,-6.6145,-6.539,-6.3994,-6.1914,-6.0594,-5.9261,-5.7881,-5.7476,-5.6731,-5.5681,-5.5277,-5.4499,-5.3518,-5.3518,-5.3518,-5.3518,-5.3518,-5.3518,-5.3518,-5.3518,-5.3518,-5.3551,-5.3856,-5.3957,-5.3991,-5.4329,-5.4905,-5.5581,-7.0477,-7.0999,-7.1688,-7.2826,-7.323,-7.356,-7.4147,-7.4258,-7.4258,-7.4258,-7.3744,-7.4147,-7.6203,-7.4808,-7.4184,-7.5469,-7.4221,-7.3377,-7.3377,-7.1321,-7.1064,-7.3266,-7.0146,-6.9082,-7.0624,-6.8128,-6.688,-6.7026,-6.5044,-6.4064,-6.4002,-6.3353,-6.306,-6.3046,-6.3476,-6.3991,-6.4612,-6.5783,-6.5488,-6.4178,-6.4106,-6.2259,-5.976,-6.1281,-6.1172,-6.0086,-5.947,-5.9144,-5.9061,-5.9818,-6.0715,-6.1396,-6.0747,-6.0653,-6.0762,0.0,0.0,0.0,-6.2483,-6.2503,-6.1868,-6.202,-6.0981,-5.9488,-5.802,-5.7328,-5.6915,-5.6465,-5.6194,0.0,0.0,0.0,-5.6585,-5.7304,0.0,-5.9271,0.0,-5.9685,0.0,0.0,0.0,0.0,0.0,-6.5185,-6.5011,-6.5772,-6.4722,-6.4323,-6.4903,-6.3783,-6.2796,-6.1998,-6.0046,-5.854,-5.7611,-5.6867,-5.6122,-5.5412,-5.4871,-5.4194,-5.3518,-5.3518,-5.3518,-5.3518,-5.3518,-5.3518,-5.3518,-5.3518,-5.3518,-5.3518,-5.3518,-5.3518,-5.3551,-5.3957,-5.4431,-5.504,-6.8825,-7.0257,-7.1293,-7.1394,-7.2018,-7.2569,-7.2569,-7.2569,-7.2569,-7.2569,-7.2569,-7.3744,-7.6907,-7.5139,-7.4661,-7.7017,-7.4368,-7.2532,-7.2532,-7.0991,-7.0844,-7.2459,-7.0917,-6.9706,-6.9009,-6.8091,-6.6916,-6.5375,-6.453,-6.3976,-6.3811,-6.3774,-6.3696,-6.3564,-6.3466,-6.4693,-6.6801,-6.517,-6.5337,-6.6496,-6.4178,-6.1788,-5.9542,-5.8818,-5.8528,-5.8456,-5.8456,-5.7949,-5.7623,-5.9977,-6.0267,0.0,0.0,0.0,0.0,0.0,0.0,0.0,0.0,-6.1462,-6.139,-6.3736,-6.196,-5.9822,-6.0643,-5.9641,-5.8103,-5.6696,-5.7012,-5.7048,-5.5504,-5.5212,-5.6061,-5.8518,-5.8322,0.0,0.0,0.0,0.0,0.0,0.0,0.0,0.0,-6.4771,-6.4939,-6.3418,-6.3273,-6.3237,-6.3273,-6.2628,-6.1925,-6.1292,-5.9799,-5.829,-5.6833,-5.6122,-5.5378,-5.4634,-5.46,-5.4194,-5.3518,-5.3518,-5.3518,-5.3518,-5.3518,-5.3518,-5.3518,-5.3518,-5.3518,-5.3518,-5.3518,-5.3518,-5.3687,-5.5108,-5.5614,-5.5886,-6.8054,-6.8972,-6.9889,-7.0403,-7.0734,-7.1101,-7.1615,-7.2165,-7.3083,-7.4661,-7.4441,-7.5542,-7.936,-7.8075,-7.7268,-7.8112,-7.6644,-7.5249,-7.4184,-7.3083,-7.2973,-7.4037,-7.2569,-7.1064,-6.9706,-6.8898,-6.7173,-6.4494,-6.4237,-6.372,-6.3006,-6.3529,-6.344,-6.2834,-6.3766,-6.4657,-6.5456,-6.5794,-6.5084,-6.3382,-6.0412,-5.842,-5.7297,-5.8094,-5.8383,-5.8347,-5.7804,-5.7442,0.0,-5.813,-5.8963,-5.9506,-5.8999,-5.918,-5.9506,-5.8963,-5.8999,-5.9615,0.0,0.0,-6.1761,-6.2621,-6.1208,-5.9542,-5.9341,-5.8859,-5.817,-5.7132,-5.7642,-5.7764,-5.6164,-5.6381,-5.6937,-5.7348,0.0,0.0,0.0,0.0,0.0,0.0,0.0,0.0,0.0,0.0,0.0,-5.9253,-5.8746,-5.8891,-5.9977,-5.953,-5.9333,-5.9577,-5.7773,-5.6607,-5.6089,-5.5344,-5.4837,-5.4566,-5.4093,-5.3754,-5.3518,-5.3518,-5.3518,-5.3518,-5.3518,-5.3518,-5.3518,-5.3518,-5.3518,-5.3518,-5.3518,-5.4093,-5.4972,-5.4972,-5.4972,-5.5175,-6.7687,-6.8128,-6.8715,-6.9522,-7.0146,-7.0697,-7.1219,-7.2716,-7.4147,-7.5102,-7.5799,-7.7341,-8.0241,-7.9653,-7.925,-7.9837,-7.8589,-7.7194,-7.5873,-7.4478,-7.3927,-7.4441,-7.323,-7.1762,-7.0146,-6.9596,-6.8017,-6.5375,-6.5029,-6.4485,-6.3805,-6.43,-6.4011,-6.3175,-6.4383,-6.4646,-6.4174,-6.5757,-6.4867,-6.2186,-5.9216,-5.7224,-5.6102,-5.7152,-5.7732,-5.7913,0.0,-5.7188,-5.7188,-5.7188,-5.7876,-5.8565,-5.7514,-5.7913,-5.8637,-5.813,-5.8528,-5.9542,-6.1136,-6.1145,0.0,-6.215,-6.0593,0.0,-5.918,0.0,-5.8673,0.0,0.0,0.0,0.0,0.0,0.0,0.0,0.0,0.0,0.0,-5.462,0.0,0.0,0.0,0.0,0.0,0.0,-5.7152,-5.6029,-5.5196,-5.545,0.0,-5.6425,-5.6741,-5.8382,-5.6403,-5.531,-5.531,-5.4566,-5.4194,-5.4194,-5.3721,-5.3518,-5.3518,-5.3518,-5.3518,-5.3518,-5.3518,-5.3518,-5.3518,-5.3518,-5.3518,-5.3518,-5.3518,-5.4262,-5.5277,-5.5074,-5.531,-5.5886,-6.7577,-6.7614,-6.7871,-6.8641,-7.0073,-7.1174,-7.1219,-7.3891,-7.5432,-7.4111,-7.6644,-7.8956,-7.9874,-7.991,-8.0498,-8.2003,-8.0021,-7.8259,-7.7273,-7.5102,-7.378,-7.3634,-7.2973,-7.1835,-7.0146,-7.0146,-6.9339,-6.7687,-6.6682,-6.6144,-6.6007,-6.5876,-6.5263,-6.4323,-6.5156,-6.4613,-6.3164,-6.4758,-6.4468,-6.2802,-6.0484,-5.813,-5.6066,-5.6041,-5.6511,-5.7163,-5.7152,-5.7152,-5.7188,-5.7116,-5.7152,-5.7188,-5.7116,-5.7152,-5.7188,-5.7152,-5.7706,-5.872,-6.024,-5.9552,-5.9154,-6.2259,-6.0122,0.0,0.0,0.0,-5.9542,0.0,0.0,0.0,0.0,0.0,0.0,0.0,0.0,0.0,0.0,0.0,-5.3717,0.0,0.0,0.0,0.0,-5.8355,-5.6862,-5.3748,-5.277,-5.3023,0.0,-5.3566,-5.4268,-5.7403,-5.558,-5.4532,-5.4532,-5.3856,-5.3518,-5.3518,-5.3518,-5.3518,-5.3518,-5.3518,-5.3518,-5.3518,-5.3518,-5.3518,-5.3518,-5.3518,-5.3518,-5.3518,-5.3518,-5.3957,-5.4735,-5.548,-5.6697,-5.7949,-6.6035,-6.6402,-6.688,-6.7063,-6.7944,-6.9009,-7.022,-7.2129,-7.4368,-7.7011,-7.8075,-7.958,-8.2186,-8.1929,-8.1489,-8.1342,-8.0167,-7.8589,-7.6533,-7.5836,-7.4661,-7.2899,-7.378,-7.2973,-7.0146,-7.0697,-6.9834,-6.746,-6.6628,-6.6089,-6.5848,0.0,0.0,0.0,0.0,-6.349,-6.1498,-6.2512,-6.2005,-6.0412,-5.9216,-5.7985,-5.6812,0.0,-5.6349,-5.651,-5.635,-5.6681,-5.7007,-5.5884,-5.6247,-5.7007,-5.5848,-5.6283,-5.708,-5.6464,-5.6979,-5.7918,-5.8786,-5.8817,-5.8923,-6.0196,-5.9289,-5.8239,0.0,0.0,0.0,0.0,0.0,0.0,0.0,0.0,0.0,0.0,0.0,0.0,0.0,-5.2914,-5.2767,-5.4378,0.0,0.0,-5.6111,-5.5401,-5.382,-5.1212,-5.0271,-5.0814,-5.2987,0.0,-5.3006,-5.5022,-5.4244,-5.3788,-5.3788,-5.3585,-5.3518,-5.3518,-5.3518,-5.3518,-5.3518,-5.3518,-5.3518,-5.3518,-5.3518,-5.3518,-5.3518,-5.3518,-5.3518,-5.3518,-5.3518,-5.4296,-5.5513,-5.6258,-5.7476,-5.8727,-6.5296,-6.5537,-6.5913,-6.6296,-6.7056,-6.8403,-7.0807,-7.2532,-7.4515,-7.7157,-7.8772,-8.0057,-8.1195,-8.1819,-8.1893,-8.1085,-8.0241,-7.8883,-7.6754,-7.5983,-7.4808,-7.3083,-7.356,-7.301,-7.1174,-7.1248,-7.0539,-6.9043,-6.7423,-6.67,-6.6837,0.0,0.0,0.0,0.0,-6.2875,-6.0303,-6.0774,-6.0629,-6.0013,-5.8854,-5.7913,0.0,-5.6134,-5.5963,-5.6204,-5.5464,-5.5491,-5.5768,-5.4883,-5.5169,-5.5732,-5.4883,-5.5419,-5.6241,-5.5455,-5.6095,-5.7135,-5.7481,-5.7662,-5.781,-5.8188,-5.7864,-5.7585,-5.7935,-5.8202,-5.8383,0.0,-5.8058,-5.7587,0.0,0.0,0.0,0.0,0.0,0.0,-5.3222,-5.2601,-5.2565,-5.3478,-5.4096,0.0,-5.4182,-5.3562,-5.2154,-4.9764,-4.98,-5.0557,0.0,0.0,-5.2459,-5.3763,-5.3603,-5.301,-5.2029,-5.3653,-5.3822,-5.2503,-5.3179,-5.3518,-5.3518,-5.3518,-5.3518,-5.3518,-5.3518,-5.3518,-5.3518,-5.3518,-5.3518,-5.3551,-5.4228,-5.4972,-5.5886,-5.7273,-5.8287,-5.9066,-6.4485,-6.4503,-6.4831,-6.5907,-6.6939,-6.8879,-7.2577,-7.4221,-7.5506,-7.6754,-7.9396,-8.0681,-7.936,-8.1012,-8.1893,-8.1085,-8.0241,-7.9103,-7.7384,-7.5879,-7.4661,-7.3744,-7.3046,-7.2606,-7.2496,-7.1615,-7.1052,-7.0909,-6.8207,-6.7162,0.0,0.0,0.0,0.0,0.0,0.0,0.0,-5.9651,-6.0013,-6.052,-5.9108,-5.8094,-5.721,-5.5812,-5.5678,-5.6095,-5.4605,-5.4192,-5.4314,-5.4103,-5.4103,-5.4138,-5.3963,-5.4524,-5.5051,-5.4138,-5.5022,-5.6225,-5.621,-5.6215,-5.6225,-5.6315,-5.6268,-5.638,-5.7084,-5.7648,-5.8238,-5.9013,-5.8063,-5.7076,-5.7043,0.0,0.0,0.0,0.0,-5.3317,-5.1923,-5.2346,-5.2725,-5.2615,-5.3945,0.0,0.0,-5.2549,-5.1647,-4.9257,-5.0271,0.0,0.0,0.0,-5.185,-5.2662,-5.3033,-5.2401,-5.071,-5.3856,-5.4262,-5.1961,-5.301,-5.3518,-5.3518,-5.3518,-5.3518,-5.3518,-5.3518,-5.3518,-5.3518,-5.3518,-5.3518,-5.3653,-5.5243,-5.5817,-5.6122,-5.8457,-5.9302,-5.9404,-6.139,-6.2169,-6.348,-6.5127,-6.7117,-7.0299,-7.5659,-7.6166,-7.7157,-8.0681,-8.1636,-8.215,-8.2517,-8.2333,-8.1893,-8.1085,-8.0241,-7.9103,-7.7384,-7.6423,-7.5212,-7.3744,-7.356,-7.3193,-7.2496,-7.1064,-7.0153,-6.9858,-6.6764,-6.5168,0.0,0.0,0.0,0.0,0.0,0.0,-6.0557,-5.9905,0.0,-5.9796,-5.9506,-5.8927,-5.8042,-5.6635,-5.6177,-5.6067,-5.4137,-5.4186,-5.4981,-5.3653,-5.3653,-5.3963,-5.2706,-5.326,-5.4132,-5.2727,-5.3474,-5.4738,-5.4653,-5.4665,-5.4876,-5.5459,-5.5596,-5.5613,-5.5754,-5.5841,-5.6106,-5.6759,-5.6626,-5.6429,-5.6244,0.0,0.0,0.0,0.0,-5.3419,-5.254,-5.254,-5.2431,-5.1813,-5.3099,-5.3126,0.0,0.0,-5.248,-5.0053,-4.9546,0.0,0.0,0.0,0.0,0.0,-5.0921,0.0,0.0,0.0,-5.4532,-5.5818,-5.4262,-5.3518,-5.3518,-5.3518,-5.3518,-5.3518,-5.3518,-5.3518,-5.3518,-5.3518,-5.3518,-5.3721,-5.5784,-5.6596,-5.6968,-5.9844,-6.0892,-6.0926,-6.1312,-6.1915,-6.3346,-6.6385,-6.8516,-7.1824,-7.7714,-7.8626,-7.936,-8.1305,-8.1195,-8.1085,-8.1489,-8.1864,-8.1725,-8.0919,-8.0015,-7.8661,-7.671,-7.5733,-7.4561,-7.3039,-7.2871,-7.2629,-7.2263,-7.1092,-6.9733,-6.8262,-6.5859,-6.4148,-6.3128,0.0,0.0,0.0,0.0,-6.0774,0.0,0.0,0.0,-6.0774,-5.9941,-5.9361,-5.8838,-5.6994,-5.6311,-5.613,-5.4828,-5.4815,-5.5138,-5.3264,-5.2881,-5.3015,-5.1882,-5.2605,-5.3532,-5.1981,-5.2663,-5.3943,-5.3851,-5.3864,-5.4011,-5.4333,-5.4645,-5.4887,-5.4887,-5.5129,-5.549,-5.578,-5.5837,-5.5674,-5.516,-5.5355,0.0,0.0,-5.4916,-5.4496,-5.3334,-5.3528,-5.3347,-5.2173,-5.302,-5.2925,0.0,0.0,0.0,0.0,0.0,0.0,0.0,0.0,0.0,0.0,0.0,0.0,-5.1691,0.0,0.0,-5.3315,-5.345,-5.3518,-5.3518,-5.3518,-5.3518,-5.3518,-5.3518,-5.3518,-5.3518,-5.3518,-5.3957,-5.4803,-5.6224,-5.7273,-5.822,-6.0486,-6.1298,-6.1366,-6.2569,-6.3226,-6.4803,-6.8881,-7.1065,-7.3995,-7.9255,-8.0686,-8.1387,-8.1901,-8.1094,-8.047,-8.0438,-8.126,-8.1416,-8.0466,-7.9639,-7.8325,-7.6225,-7.5187,-7.4092,-7.2788,-7.2413,-7.217,-7.1988,-7.1039,-6.9384,-6.7019,-6.5056,-6.3194,0.0,0.0,0.0,0.0,0.0,0.0,0.0,0.0,-6.1254,-6.1869,-6.0448,-5.976,-5.9381,-5.7451,-5.6617,-5.642,-5.5837,-5.5519,-5.5119,-5.3357,-5.2631,-5.236,-5.1486,-5.2164,-5.2942,-5.142,-5.2164,-5.345,-5.3281,-5.3382,-5.3518,-5.3518,-5.3882,-5.4134,-5.3962,-5.4475,-5.4974,-5.4984,-5.5173,-5.5262,-5.4805,-5.532,0.0,0.0,0.0,0.0,0.0,-5.4436,-5.4436,0.0,0.0,0.0,-5.0995,0.0,0.0,0.0,0.0,0.0,-4.8766,0.0,0.0,0.0,0.0,-5.0947,-4.9965,0.0,-5.3653,-5.1522,-5.2875,-5.3518,-5.3518,-5.3518,-5.3518,-5.3518,-5.3518,-5.3518,-5.3518,-5.3687,-5.4431,-5.5581,-5.663,-5.7848,-5.9201,-6.0723,-6.14,-6.1603,-6.4354,-6.6449,-6.8966,-7.2597,-7.5066,-7.7485,-8.0429,-8.1432,-8.2614,-8.4774,-8.3749,-8.273,-8.2559,-8.1978,-8.1029,-7.946,-7.9245,-7.8479,-7.6834,-7.5926,-7.5087,-7.4249,-7.3483,-7.2753,-7.2024,-7.0492,-6.883,-6.7019,-6.393,-6.1524,0.0,0.0,0.0,0.0,0.0,0.0,0.0,-6.1109,-6.1254,-6.1906,-6.1064,-6.0267,-5.9506,-5.8585,-5.7763,-5.7036,-5.642,-5.5865,-5.5278,-5.4444,-5.3745,-5.2963,-5.1613,-5.1758,-5.2131,-5.0642,-5.1758,-5.3348,-5.2604,-5.2942,-5.3518,-5.3518,-5.3517,-5.3381,-5.2669,-5.3109,-5.3612,-5.3497,-5.4525,-5.5578,-5.6204,-5.5221,-5.4536,0.0,0.0,0.0,0.0,0.0,-5.4762,-5.1756,0.0,0.0,-4.9561,-5.0524,0.0,0.0,-4.9346,0.0,0.0,0.0,0.0,-4.7086,-4.7902,-4.9864,-5.3044,-5.2131,-5.3179,-5.6156,-5.4363,-5.3518,-5.3518,-5.3518,-5.3518,-5.3518,-5.3518,-5.3518,-5.3551,-5.4228,-5.4566,-5.4905,-5.6968,-5.8287,-5.9201,-6.0723,-6.1704,-6.2313,-6.8998,-7.055,-7.2689,-7.6536,-7.8012,-7.9787,-8.3328,-8.3258,-8.3234,-8.4526,-8.3249,-8.2158,-8.2089,-8.1294,-8.0497,-7.9842,-7.8795,-7.7741,-7.6749,-7.5342,-7.4288,-7.3583,-7.2689,-7.2009,-7.1713,-7.0659,-6.9031,-6.6874,-6.4118,-6.1951,0.0,0.0,0.0,0.0,0.0,-6.0375,-6.1317,-6.1435,-6.1688,-6.1869,-6.0629,-5.9905,-5.947,-5.8166,-5.7478,-5.7112,-5.6501,-5.6146,-5.5773,-5.4765,-5.3965,-5.3237,-5.2195,-5.2401,-5.2807,-5.1725,-5.2401,-5.345,-5.3112,-5.3281,-5.3518,-5.3518,-5.3145,-5.2807,-5.2976,-5.2909,-5.2874,-5.3339,-5.3871,-5.4372,-5.4647,-5.4894,-5.4818,-5.4115,0.0,0.0,0.0,0.0,0.0,-5.0631,0.0,-5.1226,0.0,-4.9043,0.0,0.0,0.0,0.0,0.0,0.0,0.0,-4.8135,0.0,-5.0811,-5.2773,-5.2164,-5.2875,-5.4803,-5.3923,-5.3957,-5.4803,-5.3923,-5.3518,-5.3518,-5.3518,-5.3754,-5.416,-5.3991,-5.4972,-5.6664,-5.7543,-5.893,-6.052,-6.1569,-6.2144,-6.2381,-7.3365,-7.4971,-7.7028,-8.0466,-8.1279,-8.2345,-8.5049,-8.4649,-8.389,-8.3504,-8.2342,-8.1544,-8.1478,-8.0866,-8.0288,-7.9816,-7.859,-7.7393,-7.6224,-7.4747,-7.3591,-7.2921,-7.1992,-7.1494,-7.1494,-7.0553,-6.8959,-6.6786,-6.4359,0.0,0.0,0.0,0.0,0.0,-6.0557,-6.0955,-6.1208,-6.1761,-6.1978,-6.1906,-6.0774,-6.0013,-5.947,-5.8347,-5.7623,-5.7112,-5.6501,-5.6201,-5.5858,-5.4795,-5.4011,-5.3382,-5.257,-5.2841,-5.3348,-5.2536,-5.2875,-5.3518,-5.3518,-5.3518,-5.3518,-5.3518,-5.3078,-5.2672,-5.2807,-5.2739,-5.2807,-5.3382,-5.3518,-5.3518,-5.3518,-5.4496,-5.4853,-5.3497,0.0,0.0,0.0,-5.3085,0.0,-4.9671,-4.9697,-4.946,-4.817,-4.7897,0.0,0.0,0.0,0.0,0.0,0.0,0.0,0.0,0.0,0.0,-5.1623,-5.186,-5.2604,-5.3822,-5.4059,-5.4702,-5.5683,-5.4397,-5.3957,-5.4126,-5.3687,-5.4059,-5.4871,-5.4363,-5.5513,-5.7611,-5.8051,-5.9336,-6.1028,-6.1806,-6.2212,-6.2381,-7.6645,-7.9682,-8.2355,-8.4245,-8.5196,-8.5453,-8.4719,-8.5097,-8.4627,-8.2251,-8.1717,-8.1478,-8.1128,-8.1092,-8.044,-7.8847,-7.8702,-7.7688,-7.5264,-7.4323,-7.3559,-7.2762,-7.1929,-7.1494,-7.1494,-6.9973,-6.8416,-6.6786,0.0,0.0,-6.0774,0.0,-6.0013,-6.081,-6.081,-6.1245,-6.1978,-6.1978,-6.1978,-6.1978,-6.1978,-6.1027,-5.9615,-5.9579,-5.8601,-5.7112,-5.6501,-5.5922,-5.5313,-5.4641,-5.4011,-5.3382,-5.257,-5.2841,-5.3348,-5.2536,-5.2875,-5.3518,-5.3518,-5.3518,-5.3518,-5.3518,-5.3484,-5.3112,-5.1589,-5.2401,-5.3484,-5.3518,-5.3518,-5.3518,-5.3518,-5.4093,-5.4296,-5.3341,0.0,0.0,0.0,-5.2727,0.0,-4.8959,-4.9864,-4.9838,-4.7442,-4.7197,0.0,0.0,0.0,0.0,0.0,0.0,0.0,-4.6786,-4.6819,0.0,-5.0101,-5.0845,-5.2367,-5.46,-5.5344,-5.5647,-5.5683,-5.4938,-5.4972,-5.558,-5.4126,-5.4329,-5.5716,-5.5647,-5.6122,-5.6968,-5.8423,-5.9471,-6.0216,-6.1028,-6.1772,-6.2381,-8.094,-8.3084,-8.4863,-8.6047,-8.6444,-8.6371,-8.5527,-8.5126,-8.4364,-8.291,-8.1709,-8.0914,-8.0642,-7.9558,-7.8586,-7.7941,-7.7362,-7.6492,-7.5192,-7.4323,-7.3559,-7.2762,-7.1929,-7.1494,-7.1494,-6.9973,-6.8953,-6.8416,0.0,0.0,0.0,-6.139,-6.1362,-6.1616,-6.1616,-6.1761,-6.1978,-6.1978,-6.1978,-6.1942,-6.1399,-6.0557,-5.9542,-5.8999,-5.7861,-5.6501,-5.5922,-5.5278,-5.461,-5.3979,-5.3685,-5.345,-5.3213,-5.3281,-5.345,-5.3179,-5.3315,-5.3518,-5.3518,-5.3518,-5.3518,-5.3518,-5.3078,-5.2706,-5.2773,-5.3145,-5.3518,-5.3518,-5.3518,-5.3518,-5.3518,-5.4093,-5.4161,-5.2799,-5.409,0.0,-5.0758,0.0,-5.1131,-4.8391,-4.8077,-4.7975,-4.7712,-4.801,0.0,0.0,0.0,0.0,0.0,0.0,0.0,0.0,-5.0033,0.0,-5.3145,-5.2909,-5.389,-5.6089,-5.5852,-5.5681,-5.5716,-5.5987,-5.5953,-5.5683,-5.4668,-5.4803,-5.5647,-5.5175,-5.5683,-5.6968,-5.8423,-5.9471,-6.025,-6.1569,-6.2178,-6.2381,-8.1584,-8.3199,-8.4636,-8.5516,-8.5623,-8.5547,-8.528,-8.4801,-8.4,-8.2732,-8.1419,-8.0293,-7.9506,-7.8171,-7.7308,-7.7173,-7.6635,-7.5696,-7.4319,-7.374,-7.3088,-7.2291,-7.1784,-7.1494,-7.1494,-6.9973,0.0,-6.8742,-6.5808,-6.3889,-6.2911,-6.2585,-6.244,-6.244,-6.215,-6.1978,-6.1978,-6.1978,-6.1978,-6.1942,-6.1435,-6.0774,-6.0013,-5.9506,-5.8259,-5.6657,-5.6024,-5.5223,-5.4296,-5.3684,-5.3518,-5.3518,-5.3518,-5.3518,-5.3518,-5.3518,-5.3518,-5.3518,-5.3518,-5.3518,-5.3518,-5.3518,-5.3112,-5.2875,-5.3382,-5.3281,-5.3145,-5.345,-5.3518,-5.3518,-5.3518,-5.4093,-5.4262,-5.3315,-5.4363,-5.416,-5.0947,0.0,-5.0304,0.0,0.0,0.0,0.0,-4.8877,-4.9145,0.0,0.0,0.0,0.0,0.0,0.0,-4.9726,-5.0845,-5.2063,-5.3315,-5.3721,-5.4735,-5.6393,-5.6494,-5.6528,-5.6528,-5.6731,-5.6697,-5.6461,-5.5446,-5.5581,-5.6461,-5.5716,-5.6292,-5.7746,-5.8964,-5.9877,-6.0689,-6.1941,-6.2381,-6.2381,-7.9294,-8.0771,-8.231,-8.3116,-8.3301,-8.352,-8.4018,-8.4156,-8.3537,-8.1759,-8.0813,-7.9688,-7.8025,-7.7014,-7.6505,-7.6432,0.0,0.0,-7.2871,-7.2726,-7.2364,-7.1531,-7.1494,-7.1494,-7.1494,-7.0046,-6.885,-6.8017,-6.5627,-6.4468,-6.4468,-6.3635,-6.3237,-6.3164,-6.244,-6.205,-6.1978,-6.1978,-6.1978,-6.1978,-6.1978,-6.1507,-6.081,-6.081,-5.942,-5.7412,-5.6729,-5.561,-5.4335,-5.3718,-5.3518,-5.3518,-5.3518,-5.3518,-5.3518,-5.3518,-5.3518,-5.3518,-5.3518,-5.3518,-5.3518,-5.3518,-5.3518,-5.3518,-5.3518,-5.2875,-5.2536,-5.3348,-5.345,-5.345,-5.3484,-5.4126,-5.4634,-5.4532,-5.46,-5.3822,-5.1488,-5.1183,-5.0168,0.0,0.0,0.0,-4.9154,-4.983,-4.9898,0.0,0.0,0.0,0.0,0.0,-4.9357,-4.9221,-4.9932,-5.0676,-5.1454,-5.3585,-5.5074,-5.5886,-5.7239,-5.7881,-5.7881,-5.7171,-5.7239,-5.7814,-5.6461,-5.663,-5.7848,-5.7205,-5.778,-5.9099,-5.9877,-6.0655,-6.14,-6.211,-6.2381,-6.2381,-7.8972,-8.0299,-8.1512,-8.1795,-8.2398,-8.2713,-8.2249,-8.2756,-8.2561,-8.0886,-7.9974,-7.9099,-7.8081,-7.6603,-7.5451,-7.4833,-7.5143,-7.4645,-7.2834,-7.2726,-7.2364,-7.1531,-7.1494,-7.1494,-7.1494,-7.0589,-6.9394,-6.8017,-6.6207,-6.5301,-6.5301,-6.4468,-6.378,-6.3164,-6.2983,-6.2585,-6.1978,-6.1978,-6.1978,-6.1978,-6.1978,-6.1507,-6.081,-6.081,-5.9494,-5.7545,-5.6791,-5.5646,-5.4431,-5.3754,-5.3518,-5.3518,-5.3518,-5.3518,-5.3518,-5.3518,-5.3518,-5.3518,-5.3518,-5.3518,-5.3518,-5.3518,-5.3518,-5.3518,-5.3518,-5.2875,-5.2536,-5.3348,-5.301,-5.2773,-5.3382,-5.4566,-5.5074,-5.3957,-5.4702,-5.4262,-5.0845,-5.0845,-5.0541,0.0,-4.9289,-5.0067,-5.0642,-5.1352,-5.1014,0.0,0.0,0.0,-4.8311,-5.142,-5.2739,-5.1555,-5.2266,-5.3044,-5.3788,-5.4905,-5.6089,-5.7374,-5.7712,-5.7881,-5.7881,-5.7712,-5.7712,-5.7881,-5.7509,-5.7577,-5.7915,-5.8321,-5.8693,-5.9133,-6.0486,-6.1129,-6.14,-6.211,-6.2381,-6.2381,-7.7639,-7.8361,-7.9183,-7.962,-8.0094,-8.0479,-8.0749,-8.0874,-8.0766,-8.0214,-7.9156,-7.8247,-7.781,-7.6257,-7.4921,-7.4123,-7.4026,-7.3486,-7.2255,-7.2146,-7.1965,-7.1531,-7.1494,-7.1494,-7.1494,-7.077,-6.9611,-6.8017,-6.7148,-6.6496,-6.6134,-6.4939,-6.4178,-6.3708,-6.2983,-6.2404,-6.1978,-6.1978,-6.1978,-6.1978,-6.1978,-6.1725,-6.1326,-6.1326,-6.0053,-5.8172,-5.7715,-5.6485,-5.504,-5.4634,-5.4296,-5.3991,-5.3991,-5.3788,-5.3518,-5.3518,-5.3518,-5.3518,-5.3518,-5.3518,-5.3518,-5.3518,-5.3518,-5.3416,-5.3044,-5.2909,-5.2875,-5.2942,-5.2909,-5.2976,-5.3416,-5.4431,-5.4938,-5.4126,-5.3822,-5.2807,-5.0439,-4.9864,-4.9289,-4.8139,-4.9526,-5.0777,-5.1151,-5.2198,-5.2198,-5.0642,-5.2029,0.0,-5.0033,-5.257,-5.3551,-5.2334,-5.3754,-5.4702,-5.5108,-5.5852,-5.6765,-5.7881,-5.7881,-5.8084,-5.8389,-5.8389,-5.8592,-5.8896,-5.8896,-5.8896,-5.893,-5.9336,-5.9742,-6.0148,-6.0994,-6.1501,-6.1839,-6.2245,-6.2381,-6.2381,-7.6109,-7.6318,-7.6736,-7.7273,-7.7502,-7.7992,-7.9195,-7.905,-7.8886,-7.9287,-7.827,-7.7434,-7.7326,-7.5877,-7.4612,-7.3957,-7.3052,-7.2219,-7.1531,-7.1494,-7.1494,-7.1494,-7.1494,-7.1494,-7.1494,-7.077,-6.972,-6.838,-6.8235,-6.7764,-6.6967,-6.5591,-6.4794,-6.4504,-6.3056,-6.2268,-6.2159,-6.205,-6.1978,-6.1978,-6.1978,-6.1978,-6.1978,-6.1978,-6.0827,-5.9135,-5.8994,-5.7686,-5.6027,-5.5891,-5.5313,-5.46,-5.46,-5.4093,-5.3518,-5.3518,-5.3518,-5.3484,-5.3348,-5.3315,-5.3315,-5.3315,-5.3315,-5.3145,-5.2469,-5.2739,-5.301,-5.2435,-5.2841,-5.3382,-5.3484,-5.4093,-5.4499,-5.4296,-5.2536,-5.0879,-4.9898,0.0,-4.797,-4.7225,-4.9763,-5.1523,-5.1523,-5.2739,-5.3213,-5.2536,-5.2469,-5.2435,-5.23,-5.3281,-5.3484,-5.2672,-5.4634,-5.5749,-5.5886,-5.6494,-5.7171,-5.7881,-5.8017,-5.8389,-5.9032,-5.9133,-5.9505,-6.0114,-6.0216,-6.0283,-6.0283,-6.0385,-6.0858,-6.1467,-6.1467,-6.1839,-6.2381,-6.2381,-6.2381,-6.2381,-7.5892,-7.6347,-7.6679,-7.6109,-7.6668,-7.7066,-7.6669,-7.7752,-7.8191,-7.7016,-7.7233,-7.7217,-7.6565,-7.5044,-7.4066,-7.3921,-7.2545,-7.1639,-7.1531,-7.1494,-7.1494,-7.1494,-7.1494,-7.1494,-7.1494,-7.077,-7.0294,-7.0009,-6.9321,-6.8597,-6.78,-6.7583,-6.6714,-6.5374,-6.4432,-6.3635,-6.2947,-6.2295,-6.1978,-6.1978,-6.1978,-6.1978,-6.1978,-6.1978,-6.1443,-6.0582,-5.9971,-5.8769,-5.7362,-5.6743,-5.5689,-5.46,-5.46,-5.4093,-5.3518,-5.3518,-5.3518,-5.3348,-5.2672,-5.2503,-5.2503,-5.2503,-5.2503,-5.2469,-5.2334,-5.1928,-5.1725,-5.2198,-5.2401,-5.2706,-5.3382,-5.4093,-5.416,-5.2875,-5.186,-5.0509,-4.8514,0.0,-4.9492,-4.8748,-5.1319,-5.3145,-5.3145,-5.3382,-5.345,-5.3315,-5.3315,-5.301,-5.2334,-5.4262,-5.504,-5.4262,-5.5209,-5.6021,-5.663,-5.6731,-5.7171,-5.7881,-5.8524,-5.8896,-5.9032,-5.9641,-5.9979,-6.0148,-6.0825,-6.1129,-6.1163,-6.1772,-6.211,-6.2212,-6.2212,-6.2279,-6.2381,-6.2381,-6.2381,-6.2381,-7.5845,-7.6352,-7.6657,-7.5845,-7.6054,-7.6428,-7.6592,-7.6578,-7.6599,-7.6861,-7.6482,-7.6262,-7.6278,-7.4863,-7.3921,-7.3921,-7.2436,-7.1494,-7.1494,-7.1494,-7.1494,-7.1494,-7.1494,-7.1494,-7.1494,-7.1168,-7.0806,-7.0372,-6.9605,-6.8778,-6.7981,-6.7112,-6.6315,-6.5555,-6.4758,-6.4178,-6.378,-6.2983,-6.2657,-6.2621,-6.2159,-6.1978,-6.1978,-6.1978,-6.1579,-6.095,-6.0623,-5.9845,-5.882,-5.7695,-5.6847,-5.6201,-5.5449,-5.4972,-5.4634,-5.4194,-5.3822,-5.3416,-5.3044,-5.2942,-5.2942,-5.2942,-5.2942,-5.2841,-5.2401,-5.2367,-5.2536,-5.2875,-5.2942,-5.3179,-5.3957,-5.4363,-5.3957,-5.2029,-5.0777,0.0,-4.8075,-4.8139,-4.8477,-4.8951,-5.1285,-5.301,-5.345,-5.3856,-5.4262,-5.4668,-5.4702,-5.4532,-5.416,-5.5513,-5.6156,-5.5784,-5.6494,-5.7036,-5.7374,-5.7374,-5.7543,-5.7915,-5.866,-5.9235,-5.9641,-6.0385,-6.096,-6.1366,-6.1738,-6.1873,-6.1907,-6.2245,-6.2381,-6.2381,-6.2381,-6.2381,-6.2381,-6.2381,-6.2651,-6.299,-7.5845,-7.6352,-7.6657,-7.5845,-7.5709,-7.5858,-7.6188,-7.5426,-7.5142,-7.614,-7.5573,-7.5335,-7.5933,-7.4763,-7.3921,-7.3921,-7.2436,-7.1494,-7.1494,-7.1494,-7.1494,-7.1494,-7.1494,-7.1494,-7.1494,-7.1494,-7.1205,-7.0661,-7.0009,-6.9249,-6.8235,-6.7003,-6.6243,-6.5844,-6.5048,-6.4685,-6.4613,-6.3816,-6.3345,-6.3128,-6.2549,-6.2159,-6.1978,-6.1978,-6.1664,-6.1228,-6.1257,-6.0807,-6.0086,-5.8913,-5.8208,-5.7635,-5.6542,-5.5958,-5.5615,-5.5006,-5.4465,-5.3991,-5.3788,-5.3754,-5.3754,-5.3754,-5.3754,-5.3585,-5.2976,-5.3179,-5.3551,-5.3721,-5.3754,-5.3991,-5.4735,-5.4702,-5.3957,-5.2063,0.0,-4.9052,-4.8511,-4.7936,-4.8037,-4.9357,-5.1488,-5.3078,-5.3687,-5.4431,-5.5108,-5.5683,-5.5681,-5.5749,-5.5953,-5.6494,-5.6867,-5.7036,-5.7577,-5.7881,-5.7881,-5.7881,-5.7881,-5.7915,-5.8829,-5.9573,-6.0148,-6.1095,-6.1873,-6.2381,-6.2381,-6.2381,-6.2381,-6.2381,-6.2381,-6.2381,-6.2381,-6.2381,-6.2415,-6.2584,-6.3024,-6.3531,-7.5845,-7.6352,-7.6657,-7.5845,-7.5709,-7.5283,-7.3942,-7.4374,-7.4326,-7.3046,-7.4142,-7.5118,-7.5191,-7.4424,-7.3921,-7.3921,-7.2436,-7.1494,-7.1494,-7.1494,-7.1494,-7.1494,-7.1494,-7.1494,-7.1494,-7.1494,-7.1458,-7.1422,-7.135,-7.0553,-6.9134,-6.8989,-6.8126,-6.6677,-6.5881,-6.5518,-6.5446,-6.4649,-6.3852,-6.3164,-6.3128,-6.2657,-6.1978,-6.1978,-6.195,-6.1923,-6.1923,-6.1487,-6.0891,-6.0826,-5.9432,-5.7771,-5.7703,-5.6748,-5.5716,-5.5614,-5.5546,-5.5412,-5.4702,-5.4499,-5.4499,-5.4499,-5.4499,-5.4499,-5.4431,-5.3957,-5.3687,-5.4363,-5.4499,-5.4735,-5.548,-5.5074,-5.4329,-5.3484,0.0,0.0,-4.9932,-4.9864,-5.0135,-5.0947,-5.3044,-5.4431,-5.4499,-5.5209,-5.5649,-5.5681,-5.5681,-5.6021,-5.6697,-5.6765,-5.7103,-5.778,-5.7848,-5.7881,-5.7881,-5.7881,-5.7881,-5.7915,-5.9336,-6.0047,-6.0148,-6.1637,-6.2347,-6.2381,-6.2381,-6.2381,-6.2381,-6.2381,-6.2381,-6.2381,-6.2381,-6.2381,-6.2482,-6.3193,-6.3463,-6.3599,-7.5845,-7.6352,-7.6487,-7.5236,-7.5033,-7.4661,-7.3646,-7.3391,-7.3328,-7.3241,-7.3391,-7.3681,-7.4226,-7.3619,-7.318,-7.3146,-7.2142,-7.1494,-7.1494,-7.1494,-7.1494,-7.1494,-7.1494,-7.1494,-7.1494,-7.1494,-7.1494,-7.1494,-7.1024,-7.0263,-6.9207,-6.8669,-6.7873,-6.6786,-6.6496,-6.6351,-6.6279,-6.5482,-6.4975,-6.4577,-6.3599,-6.3019,-6.2693,-6.2186,-6.1978,-6.1978,-6.1978,-6.184,-6.1508,-6.0626,-6.0083,-5.9566,-5.8208,-5.7774,-5.7568,-5.7179,-5.6731,-5.6427,-5.6596,-5.5987,-5.5277,-5.5277,-5.5277,-5.5277,-5.5277,-5.5074,-5.4938,-5.5243,-5.5277,-5.5378,-5.5683,-5.5108,-5.4194,-5.2976,0.0,-5.0777,-5.0777,-5.1183,-5.1758,-5.2536,-5.4194,-5.5277,-5.5277,-5.5953,-5.6562,-5.7036,-5.707,-5.7171,-5.7476,-5.7476,-5.7611,-5.7881,-5.7881,-5.7881,-5.7881,-5.7881,-5.8118,-5.8592,-5.9607,-6.0351,-6.0892,-6.1907,-6.2381,-6.2381,-6.2381,-6.2381,-6.2381,-6.2381,-6.2381,-6.2381,-6.2381,-6.2685,-6.3125,-6.3396,-6.4106,-6.4884,-7.5845,-7.6352,-7.6487,-7.5168,-7.4762,-7.4356,-7.3612,-7.2868,-7.2519,-7.2912,-7.2665,-7.2832,-7.3721,-7.3147,-7.2797,-7.3042,-7.2109,-7.1494,-7.1494,-7.1494,-7.1494,-7.1494,-7.1494,-7.1494,-7.1494,-7.1494,-7.1494,-7.1494,-7.0987,-7.0191,-6.9207,-6.8887,-6.8054,-6.6822,-6.7076,-6.704,-6.675,-6.6207,-6.57,-6.512,-6.3997,-6.3273,-6.2766,-6.2223,-6.1978,-6.1978,-6.1978,-6.1978,-6.1851,-6.0875,-6.0762,-6.07,-5.9015,-5.8529,-5.8493,-5.8029,-5.7543,-5.7273,-5.7746,-5.7171,-5.6359,-5.6122,-5.6055,-5.6055,-5.6055,-5.5886,-5.5852,-5.6292,-5.6021,-5.5817,-5.6325,-5.5615,-5.4668,-5.3856,-5.3112,-5.2605,-5.2605,-5.3044,-5.3585,-5.4126,-5.531,-5.6055,-5.6055,-5.6697,-5.734,-5.7848,-5.7881,-5.7881,-5.7881,-5.7881,-5.7881,-5.7881,-5.7881,-5.7881,-5.7881,-5.7881,-5.8254,-5.9032,-5.9742,-6.052,-6.1332,-6.2042,-6.2381,-6.2381,-6.2381,-6.2381,-6.2381,-6.2381,-6.2381,-6.2381,-6.2381,-6.2854,-6.3531,-6.3768,-6.4647,-6.573,-7.5845,-7.6352,-7.6657,-7.5845,-7.51,-7.4356,-7.3612,-7.2868,-7.2157,-7.1413,-7.2004,-7.2832,-7.3681,-7.3145,-7.3008,-7.3823,-7.2436,-7.1494,-7.1494,-7.1494,-7.1494,-7.1494,-7.1494,-7.1494,-7.1494,-7.1494,-7.1494,-7.1494,-7.1494,-7.0698,-6.9243,-7.004,-6.9104,-6.6858,-6.7655,-6.7547,-6.6786,-6.6786,-6.5881,-6.4432,-6.4396,-6.3454,-6.2014,-6.1978,-6.1978,-6.1978,-6.1978,-6.1978,-6.1978,-6.1978,-6.1579,-6.0897,-6.0219,-5.9046,-5.7918,-5.7881,-5.7881,-5.7881,-5.7881,-5.7881,-5.7712,-5.7002,-5.6799,-5.6799,-5.6799,-5.6258,-5.6156,-5.7577,-5.6731,-5.619,-5.7611,-5.6697,-5.5953,-5.6697,-5.619,-5.5681,-5.5681,-5.5681,-5.5716,-5.5681,-5.6359,-5.6799,-5.6799,-5.7476,-5.7881,-5.7881,-5.7881,-5.7881,-5.7881,-5.7881,-5.7881,-5.7881,-5.7881,-5.7881,-5.7915,-5.7915,-5.8287,-5.9032,-5.9776,-6.052,-6.1332,-6.2076,-6.2381,-6.2381,-6.2381,-6.2381,-6.2381,-6.2381,-6.2381,-6.2415,-6.2415,-6.2854,-6.3632,-6.4343,-6.5087,-6.5797,-7.6015,-7.6008,-7.5811,-7.5067,-7.4762,-7.4356,-7.3612,-7.3389,-7.302,-7.218,-7.2835,-7.3281,-7.2914,-7.2773,-7.2798,-7.3042,-7.2109,-7.1494,-7.1494,-7.1494,-7.1494,-7.1494,-7.1494,-7.1494,-7.1494,-7.1494,-7.1494,-7.1494,-7.1494,-7.0987,-7.0009,-6.9714,-6.885,-6.7619,-6.7293,-6.704,-6.6786,-6.6786,-6.6533,-6.5989,-6.483,-6.4106,-6.3563,-6.244,-6.1978,-6.1978,-6.1978,-6.1978,-6.1978,-6.1978,-6.1868,-6.1487,-6.0344,-5.9347,-5.8631,-5.8637,-5.8321,-5.8017,-5.8524,-5.7915,-5.7205,-5.7476,-5.7171,-5.6934,-5.7442,-5.7408,-5.7205,-5.7137,-5.7611,-5.7848,-5.7239,-5.6765,-5.6562,-5.6765,-5.619,-5.5681,-5.5681,-5.6156,-5.6292,-5.5784,-5.6799,-5.7374,-5.6867,-5.7476,-5.7881,-5.7881,-5.7881,-5.7881,-5.7881,-5.7881,-5.7881,-5.7881,-5.7881,-5.8152,-5.8693,-5.8693,-5.9032,-5.9776,-6.0588,-6.1332,-6.2076,-6.2279,-6.2381,-6.2381,-6.2381,-6.2381,-6.2381,-6.2381,-6.2685,-6.3193,-6.3193,-6.3937,-6.5053,-6.529,-6.5831,-6.6508,-7.6262,-7.6122,-7.5858,-7.5417,-7.5111,-7.4737,-7.4204,-7.3915,-7.3577,-7.3,-7.34,-7.3721,-7.3562,-7.3319,-7.3154,-7.3182,-7.2142,-7.1494,-7.1494,-7.1494,-7.1494,-7.1494,-7.1494,-7.1494,-7.1494,-7.1494,-7.1494,-7.1494,-7.1494,-7.1132,-7.0372,-6.9895,-6.9068,-6.7981,-6.751,-6.7112,-6.6786,-6.6786,-6.6424,-6.5772,-6.4794,-6.4033,-6.3382,-6.273,-6.2295,-6.2014,-6.2367,-6.2295,-6.1978,-6.1978,-6.1804,-6.1458,-6.0656,-5.9706,-5.8909,-5.8934,-5.8642,-5.8355,-5.8524,-5.8118,-5.7712,-5.7848,-5.7137,-5.6562,-5.7306,-5.7679,-5.7848,-5.7712,-5.8389,-5.8829,-5.822,-5.7881,-5.7679,-5.7679,-5.7306,-5.69,-5.663,-5.6934,-5.707,-5.663,-5.734,-5.7712,-5.7273,-5.7645,-5.7881,-5.7881,-5.7881,-5.7881,-5.7881,-5.8186,-5.8355,-5.8355,-5.8626,-5.8964,-5.9438,-5.9776,-6.0148,-6.0588,-6.1061,-6.167,-6.2381,-6.2381,-6.2381,-6.2381,-6.2381,-6.2381,-6.2381,-6.2381,-6.2651,-6.3091,-6.3396,-6.4241,-6.529,-6.5561,-6.617,-6.6812,-7.6541,-7.6495,-7.6449,-7.6449,-7.5902,-7.5333,-7.5148,-7.4572,-7.4091,-7.3851,-7.3915,-7.4293,-7.5009,-7.444,-7.4043,-7.4,-7.2545,-7.1567,-7.1494,-7.1494,-7.1494,-7.1494,-7.1494,-7.1494,-7.1494,-7.1494,-7.1494,-7.1494,-7.1494,-7.1168,-7.048,-7.0439,-6.9611,-6.8235,-6.8054,-6.7583,-6.6895,-6.675,-6.5844,-6.4468,-6.4359,-6.3418,-6.2186,-6.2838,-6.2693,-6.2186,-6.2875,-6.2657,-6.2087,-6.2014,-6.1644,-6.1182,-6.1123,-6.0297,-5.9252,-5.9116,-5.9142,-5.9038,-5.8324,-5.8457,-5.8693,-5.8186,-5.69,-5.5953,-5.6799,-5.7509,-5.8186,-5.8964,-5.9099,-5.9302,-5.9979,-5.9505,-5.9032,-5.9099,-5.9066,-5.8795,-5.8084,-5.7915,-5.7881,-5.7881,-5.7881,-5.7881,-5.7881,-5.7949,-5.7983,-5.7983,-5.7983,-5.7949,-5.7881,-5.8592,-5.9032,-5.9099,-5.9742,-6.0182,-6.0317,-6.096,-6.1298,-6.1298,-6.1366,-6.1738,-6.2381,-6.2381,-6.2381,-6.2381,-6.2381,-6.2381,-6.2381,-6.2381,-6.2415,-6.255,-6.326,-6.4005,-6.4783,-6.5425,-6.617,-6.6812,-7.6702,-7.6414,-7.6169,-7.6169,-7.5892,-7.5662,-7.5837,-7.5674,-7.5344,-7.4852,-7.5323,-7.5537,-7.5153,-7.4936,-7.4844,-7.483,-7.3378,-7.2183,-7.1531,-7.1494,-7.1494,-7.1494,-7.1494,-7.1494,-7.1494,-7.1494,-7.1494,-7.1494,-7.1494,-7.1422,-7.1241,-7.0661,-7.0191,-6.9792,-6.8561,-6.7909,-6.7655,-6.6388,-6.5663,-6.5229,-6.3961,-6.3237,-6.2875,-6.244,-6.2549,-6.2875,-6.244,-6.2549,-6.2838,-6.2223,-6.2321,-6.2622,-6.2093,-6.2154,-6.2213,-6.1051,-6.07,-6.0587,-5.9828,-5.8457,-5.7645,-5.9235,-5.7645,-5.6224,-5.8118,-5.866,-5.8964,-5.9708,-5.9877,-5.9911,-6.008,-5.9505,-5.9201,-5.9776,-5.9404,-5.8964,-5.8795,-5.8254,-5.7881,-5.7881,-5.7881,-5.7881,-5.7881,-5.8423,-5.8761,-5.8761,-5.8761,-5.8524,-5.7915,-5.8592,-5.9268,-5.9844,-6.0013,-6.0689,-6.1873,-6.1501,-6.1298,-6.1298,-6.1873,-6.2245,-6.2381,-6.2381,-6.2381,-6.2381,-6.2381,-6.2381,-6.2381,-6.2381,-6.2753,-6.3294,-6.3463,-6.4309,-6.5459,-6.5628,-6.617,-6.6812,-7.6793,-7.6599,-7.6414,-7.6414,-7.6322,-7.6275,-7.6309,-7.6186,-7.5846,-7.5214,-7.5807,-7.6049,-7.5334,-7.5608,-7.5617,-7.5152,-7.3631,-7.2545,-7.211,-7.1712,-7.1494,-7.1494,-7.1494,-7.1494,-7.1494,-7.1494,-7.1494,-7.1494,-7.1494,-7.1494,-7.1494,-7.0734,-7.0372,-7.033,-6.8706,-6.8017,-6.7945,-6.6677,-6.5736,-6.4939,-6.4106,-6.3309,-6.2621,-6.2585,-6.2585,-6.2621,-6.2585,-6.2585,-6.2549,-6.2123,-6.2295,-6.2638,-6.2652,-6.251,-6.2248,-6.1844,-6.1221,-6.0569,-6.0194,-5.9268,-5.866,-5.981,-5.893,-5.8118,-5.9268,-5.9539,-5.9742,-6.052,-6.096,-6.1197,-6.1197,-6.0892,-6.0622,-6.0655,-6.0351,-5.9979,-5.9573,-5.9201,-5.893,-5.893,-5.8626,-5.8287,-5.7915,-5.8254,-5.8626,-5.8998,-5.9336,-5.937,-5.8964,-6.0013,-6.0791,-6.1197,-6.1535,-6.2279,-6.3429,-6.3057,-6.2888,-6.2888,-6.2922,-6.2922,-6.2922,-6.2922,-6.2922,-6.2922,-6.255,-6.2381,-6.2381,-6.2381,-6.2618,-6.3024,-6.3362,-6.3971,-6.4681,-6.5053,-6.5628,-6.6339,-7.6748,-7.6702,-7.6702,-7.6702,-7.6736,-7.6645,-7.6541,-7.6414,-7.6132,-7.5508,-7.5987,-7.6228,-7.5729,-7.6214,-7.6148,-7.5008,-7.3704,-7.2871,-7.2726,-7.2074,-7.1712,-7.1712,-7.1712,-7.1639,-7.1494,-7.1494,-7.1494,-7.1494,-7.1494,-7.1494,-7.1494,-7.0879,-7.0589,-7.0517,-6.8923,-6.8271,-6.8343,-6.7257,-6.6025,-6.4794,-6.4649,-6.3708,-6.2476,-6.2983,-6.2875,-6.2476,-6.3019,-6.2875,-6.2376,-6.2259,-6.2331,-6.2549,-6.32,-6.2725,-6.1944,-6.2385,-6.1744,-6.0796,-6.0393,-6.0216,-6.0148,-6.0419,-6.0216,-6.0013,-6.0385,-6.0385,-6.052,-6.1332,-6.1873,-6.2245,-6.2381,-6.2279,-6.2042,-6.1569,-6.1366,-6.1061,-6.0385,-6.008,-5.9911,-5.9911,-5.937,-5.8829,-5.8321,-5.8389,-5.8727,-5.937,-5.9979,-6.0317,-6.0317,-6.1637,-6.2516,-6.2753,-6.3362,-6.4038,-6.4783,-6.4647,-6.4613,-6.458,-6.4005,-6.3632,-6.3531,-6.3531,-6.3463,-6.3294,-6.2651,-6.2381,-6.2381,-6.2381,-6.2381,-6.2448,-6.3091,-6.3396,-6.3599,-6.4343,-6.5053,-6.5764,-7.6748,-7.6461,-7.6262,-7.6495,-7.6356,-7.6262,-7.6449,-7.6485,-7.6551,-7.6725,-7.671,-7.6638,-7.6626,-7.6572,-7.5931,-7.4211,-7.3885,-7.345,-7.2762,-7.2617,-7.2545,-7.2545,-7.2545,-7.2219,-7.1531,-7.1494,-7.1494,-7.1494,-7.1494,-7.1494,-7.1494,-7.1386,-7.135,-7.1277,-6.972,-6.9394,-6.9901,-6.7728,-6.6677,-6.6424,-6.5736,-6.4903,-6.3997,-6.3418,-6.3563,-6.3997,-6.3418,-6.3563,-6.3961,-6.3273,-6.349,-6.407,-6.4178,-6.4571,-6.4759,-6.3632,-6.3622,-6.3588,-6.1647,-6.0622,-6.0419,-6.1738,-6.0622,-5.9674,-6.1637,-6.1603,-6.1366,-6.2076,-6.1806,-6.1637,-6.2279,-6.1873,-6.1637,-6.2144,-6.1704,-6.1264,-6.1163,-6.0013,-5.9167,-5.9167,-5.9066,-5.9235,-5.9742,-6.0419,-6.0892,-6.0994,-6.1095,-6.1129,-6.1129,-6.1941,-6.299,-6.4275,-6.441,-6.4816,-6.5527,-6.4918,-6.4613,-6.4613,-6.4512,-6.414,-6.3531,-6.3531,-6.3159,-6.2516,-6.2415,-6.2381,-6.2381,-6.2381,-6.2381,-6.2415,-6.2516,-6.2956,-6.3599,-6.4343,-6.5053,-6.5696,-7.6368,-7.6262,-7.6122,-7.6262,-7.6169,-7.6216,-7.6449,-7.6356,-7.6143,-7.5699,-7.6327,-7.6488,-7.5761,-7.6254,-7.6109,-7.4881,-7.4207,-7.3559,-7.2762,-7.2726,-7.2726,-7.2726,-7.2726,-7.2545,-7.2183,-7.1748,-7.1494,-7.1494,-7.1494,-7.1494,-7.1494,-7.1494,-7.1494,-7.1458,-7.0335,-6.9823,-6.9642,-6.8126,-6.7221,-6.675,-6.5917,-6.5374,-6.4975,-6.4178,-6.407,-6.4359,-6.3997,-6.3816,-6.3744,-6.3816,-6.4106,-6.4468,-6.4939,-6.5032,-6.4875,-6.4272,-6.3764,-6.3165,-6.2187,-6.1366,-6.1028,-6.211,-6.1637,-6.1163,-6.2144,-6.2144,-6.2009,-6.2313,-6.2144,-6.2009,-6.2347,-6.211,-6.2009,-6.2347,-6.1772,-6.1298,-6.1298,-6.0723,-6.0283,-6.0283,-6.0283,-6.025,-6.0114,-6.0419,-6.0825,-6.1264,-6.167,-6.1907,-6.1907,-6.299,-6.3734,-6.4005,-6.4377,-6.4952,-6.5662,-6.4952,-6.5019,-6.5831,-6.4986,-6.4444,-6.4106,-6.37,-6.3328,-6.299,-6.2584,-6.2381,-6.2381,-6.2381,-6.2381,-6.2381,-6.2381,-6.2584,-6.2956,-6.3734,-6.4208,-6.458]},{"header":{"parameterUnit":"m.s-1","parameterCategory":1,"la1":30.6,"la2":28.766,"lo1":-90.7593,"lo2":-88.6598,"dy":0.0162,"dx":0.0183,"nx":116,"ny":114,"refTime":"2023-04-02T06:00:00:Z","depth":0,"parameterNumber":3,"parameterNumberName":"V-component_of_WINDS"},"data":[0.0,0.0,0.0,0.0,0.0,0.0,0.0,0.0,0.0,0.0,0.0,0.0,0.0,0.0,0.0,0.0,0.0,0.0,0.0,0.0,0.0,0.0,0.0,0.0,0.0,0.0,0.0,0.0,0.0,0.0,0.0,0.0,0.0,0.0,0.0,0.0,0.0,0.0,0.0,0.0,0.0,0.0,0.0,0.0,0.0,0.0,0.0,0.0,0.0,0.0,0.0,0.0,0.0,0.0,0.0,0.0,0.0,0.0,0.0,0.0,0.0,0.0,0.0,0.0,0.0,0.0,0.0,0.0,0.0,0.0,0.0,0.0,0.0,0.0,0.0,0.0,0.0,0.0,0.0,0.0,0.0,0.0,0.0,0.0,0.0,0.0,0.0,0.0,0.0,0.0,0.0,0.0,0.0,0.0,0.0,0.0,0.0,0.0,0.0,0.0,0.0,0.0,0.0,0.0,0.0,0.0,0.0,0.0,0.0,0.0,0.0,0.0,0.0,0.0,0.0,0.0,0.0,0.0,0.0,0.0,0.0,0.0,0.0,0.0,0.0,0.0,0.0,0.0,0.0,0.0,0.0,0.0,0.0,0.0,0.0,0.0,0.0,0.0,0.0,0.0,0.0,0.0,0.0,0.0,0.0,0.0,0.0,0.0,0.0,0.0,0.0,0.0,0.0,0.0,0.0,0.0,0.0,0.0,0.0,0.0,0.0,0.0,0.0,0.0,0.0,0.0,0.0,0.0,0.0,0.0,0.0,0.0,0.0,0.0,0.0,0.0,0.0,0.0,0.0,0.0,0.0,0.0,0.0,0.0,0.0,0.0,0.0,0.0,0.0,0.0,0.0,0.0,0.0,0.0,0.0,0.0,0.0,0.0,0.0,0.0,0.0,0.0,0.0,0.0,0.0,0.0,0.0,0.0,0.0,0.0,0.0,0.0,0.0,0.0,0.0,0.0,0.0,0.0,0.0,0.0,0.0,0.0,0.0,0.0,0.0,0.0,0.0,0.0,0.0,0.0,0.0,0.0,0.0,0.0,0.0,0.0,0.0,0.0,0.0,0.0,0.0,0.0,0.0,0.0,0.0,0.0,0.0,0.0,0.0,0.0,0.0,0.0,0.0,0.0,0.0,0.0,0.0,0.0,0.0,0.0,0.0,0.0,0.0,0.0,0.0,0.0,0.0,0.0,0.0,0.0,0.0,0.0,0.0,0.0,0.0,0.0,0.0,0.0,0.0,0.0,0.0,0.0,0.0,0.0,0.0,0.0,0.0,0.0,0.0,0.0,0.0,0.0,0.0,0.0,0.0,0.0,0.0,0.0,0.0,0.0,0.0,0.0,0.0,0.0,0.0,0.0,0.0,0.0,0.0,0.0,0.0,0.0,0.0,0.0,0.0,0.0,0.0,0.0,0.0,0.0,0.0,0.0,0.0,0.0,0.0,0.0,0.0,0.0,0.0,0.0,0.0,0.0,0.0,0.0,0.0,0.0,0.0,0.0,0.0,0.0,0.0,0.0,0.0,0.0,0.0,0.0,0.0,0.0,0.0,0.0,0.0,0.0,0.0,0.0,0.0,0.0,0.0,0.0,0.0,0.0,0.0,0.0,0.0,0.0,0.0,0.0,0.0,0.0,0.0,0.0,0.0,0.0,0.0,0.0,0.0,0.0,0.0,0.0,0.0,0.0,0.0,0.0,0.0,0.0,0.0,0.0,0.0,0.0,0.0,0.0,0.0,0.0,0.0,0.0,0.0,0.0,0.0,0.0,0.0,0.0,0.0,0.0,0.0,0.0,0.0,0.0,0.0,0.0,0.0,0.0,0.0,0.0,0.0,0.0,0.0,0.0,0.0,0.0,0.0,0.0,0.0,0.0,0.0,0.0,0.0,0.0,0.0,0.0,0.0,0.0,0.0,0.0,0.0,0.0,0.0,0.0,0.0,0.0,0.0,0.0,0.0,0.0,0.0,0.0,0.0,0.0,0.0,0.0,0.0,0.0,0.0,0.0,0.0,0.0,0.0,0.0,0.0,0.0,0.0,0.0,0.0,0.0,0.0,0.0,0.0,0.0,0.0,0.0,0.0,0.0,0.0,0.0,0.0,0.0,0.0,0.0,0.0,0.0,0.0,0.0,0.0,0.0,0.0,0.0,0.0,0.0,0.0,0.0,0.0,0.0,0.0,0.0,0.0,0.0,0.0,0.0,0.0,0.0,0.0,0.0,0.0,0.0,0.0,0.0,0.0,0.0,0.0,0.0,0.0,0.0,0.0,0.0,0.0,0.0,0.0,0.0,0.0,0.0,0.0,0.0,0.0,0.0,0.0,0.0,0.0,0.0,0.0,0.0,0.0,0.0,0.0,0.0,0.0,0.0,0.0,0.0,0.0,0.0,0.0,0.0,0.0,0.0,0.0,0.0,0.0,0.0,0.0,0.0,0.0,0.0,0.0,0.0,0.0,0.0,0.0,0.0,0.0,0.0,0.0,0.0,0.0,0.0,0.0,0.0,0.0,0.0,0.0,0.0,0.0,0.0,0.0,0.0,0.0,0.0,0.0,0.0,0.0,0.0,0.0,0.0,0.0,0.0,0.0,0.0,0.0,0.0,0.0,0.0,0.0,0.0,0.0,0.0,0.0,0.0,0.0,0.0,0.0,0.0,0.0,0.0,0.0,0.0,0.0,0.0,0.0,0.0,0.0,0.0,0.0,0.0,0.0,0.0,0.0,0.0,0.0,0.0,0.0,0.0,0.0,0.0,0.0,0.0,0.0,0.0,0.0,0.0,0.0,0.0,0.0,0.0,0.0,0.0,0.0,0.0,0.0,0.0,0.0,0.0,0.0,0.0,0.0,0.0,0.0,0.0,0.0,0.0,0.0,0.0,0.0,0.0,0.0,0.0,0.0,0.0,0.0,0.0,0.0,0.0,0.0,0.0,0.0,0.0,0.0,0.0,0.0,0.0,0.0,0.0,0.0,0.0,0.0,0.0,0.0,0.0,0.0,0.0,0.0,0.0,0.0,0.0,0.0,0.0,0.0,0.0,0.0,0.0,0.0,0.0,0.0,0.0,0.0,0.0,0.0,0.0,0.0,0.0,0.0,0.0,0.0,0.0,0.0,0.0,0.0,0.0,0.0,0.0,0.0,0.0,0.0,0.0,0.0,0.0,0.0,0.0,0.0,0.0,0.0,0.0,0.0,0.0,0.0,0.0,0.0,0.0,0.0,0.0,0.0,0.0,0.0,0.0,0.0,0.0,0.0,0.0,0.0,0.0,0.0,0.0,0.0,0.0,0.0,0.0,0.0,0.0,0.0,0.0,0.0,0.0,0.0,0.0,0.0,0.0,0.0,0.0,0.0,0.0,0.0,0.0,0.0,0.0,0.0,0.0,0.0,0.0,0.0,0.0,0.0,0.0,0.0,0.0,0.0,0.0,0.0,0.0,0.0,0.0,0.0,0.0,0.0,0.0,0.0,0.0,0.0,0.0,0.0,0.0,0.0,0.0,0.0,0.0,0.0,0.0,0.0,0.0,0.0,0.0,0.0,0.0,0.0,0.0,0.0,0.0,0.0,0.0,0.0,0.0,0.0,0.0,0.0,0.0,0.0,0.0,0.0,0.0,0.0,0.0,0.0,0.0,0.0,0.0,0.0,0.0,0.0,0.0,0.0,0.0,0.0,0.0,0.0,0.0,0.0,0.0,0.0,0.0,0.0,0.0,0.0,0.0,0.0,0.0,0.0,0.0,0.0,0.0,0.0,0.0,0.0,0.0,0.0,0.0,0.0,0.0,0.0,0.0,0.0,0.0,0.0,0.0,0.0,0.0,0.0,0.0,0.0,0.0,0.0,0.0,0.0,0.0,0.0,0.0,0.0,0.0,0.0,0.0,0.0,0.0,0.0,0.0,0.0,0.0,0.0,0.0,0.0,0.0,0.0,0.0,0.0,0.0,0.0,0.0,0.0,0.0,0.0,0.0,0.0,0.0,0.0,0.0,0.0,0.0,0.0,0.0,0.0,0.0,0.0,0.0,0.0,0.0,0.0,0.0,0.0,0.0,0.0,0.0,0.0,0.0,0.0,0.0,0.0,0.0,0.0,0.0,0.0,0.0,0.0,0.0,0.0,0.0,0.0,0.0,0.0,0.0,0.0,0.0,0.0,0.0,0.0,0.0,0.0,0.0,0.0,0.0,0.0,0.0,0.0,0.0,0.0,0.0,0.0,0.0,0.0,0.0,0.0,0.0,0.0,0.0,0.0,0.0,0.0,0.0,0.0,0.0,0.0,0.0,0.0,0.0,0.0,0.0,0.0,0.0,0.0,0.0,0.0,0.0,0.0,0.0,0.0,0.0,0.0,0.0,0.0,0.0,0.0,0.0,0.0,0.0,0.0,0.0,0.0,0.0,0.0,0.0,0.0,0.0,0.0,0.0,0.0,0.0,0.0,0.0,0.0,0.0,0.0,0.0,0.0,0.0,0.0,0.0,0.0,0.0,0.0,0.0,0.0,0.0,0.0,0.0,0.0,0.0,0.0,0.0,0.0,0.0,0.0,0.0,0.0,0.0,0.0,0.0,0.0,0.0,0.0,0.0,0.0,0.0,0.0,0.0,0.0,0.0,0.0,0.0,0.0,0.0,0.0,0.0,0.0,0.0,0.0,0.0,0.0,0.0,0.0,0.0,0.0,0.0,0.0,0.0,0.0,0.0,0.0,0.0,0.0,0.0,0.0,0.0,0.0,0.0,0.0,0.0,0.0,0.0,0.0,0.0,0.0,0.0,0.0,0.0,0.0,0.0,0.0,0.0,0.0,0.0,0.0,0.0,0.0,0.0,0.0,0.0,0.0,0.0,0.0,0.0,0.0,0.0,0.0,0.0,0.0,0.0,0.0,0.0,0.0,0.0,0.0,0.0,0.0,0.0,0.0,0.0,0.0,0.0,0.0,0.0,0.0,0.0,0.0,0.0,0.0,0.0,0.0,0.0,0.0,0.0,0.0,0.0,0.0,0.0,0.0,0.0,0.0,0.0,0.0,0.0,0.0,0.0,0.0,0.0,0.0,0.0,0.0,0.0,0.0,0.0,0.0,0.0,0.0,0.0,0.0,0.0,0.0,0.0,0.0,0.0,0.0,0.0,0.0,0.0,0.0,0.0,0.0,0.0,0.0,0.0,0.0,0.0,0.0,0.0,0.0,0.0,0.0,0.0,0.0,0.0,0.0,0.0,0.0,0.0,0.0,0.0,0.0,0.0,0.0,0.0,0.0,0.0,0.0,0.0,0.0,0.0,0.0,0.0,0.0,0.0,0.0,0.0,0.0,0.0,0.0,0.0,0.0,0.0,0.0,0.0,0.0,0.0,0.0,0.0,0.0,0.0,0.0,0.0,0.0,0.0,0.0,0.0,0.0,0.0,0.0,0.0,0.0,0.0,0.0,0.0,0.0,0.0,0.0,0.0,0.0,0.0,0.0,0.0,0.0,0.0,0.0,0.0,0.0,0.0,0.0,0.0,0.0,0.0,0.0,0.0,0.0,0.0,0.0,0.0,0.0,0.0,0.0,0.0,0.0,0.0,0.0,0.0,0.0,0.0,0.0,0.0,0.0,0.0,0.0,0.0,0.0,0.0,0.0,0.0,0.0,0.0,0.0,0.0,0.0,0.0,0.0,0.0,0.0,0.0,0.0,0.0,0.0,0.0,0.0,0.0,0.0,0.0,0.0,0.0,0.0,0.0,0.0,0.0,0.0,0.0,0.0,0.0,0.0,0.0,0.0,0.0,0.0,0.0,0.0,0.0,0.0,0.0,0.0,0.0,0.0,0.0,0.0,0.0,0.0,0.0,0.0,0.0,0.0,0.0,0.0,0.0,0.0,0.0,0.0,0.0,0.0,0.0,0.0,0.0,0.0,0.0,0.0,0.0,0.0,0.0,0.0,0.0,0.0,0.0,0.0,0.0,0.0,0.0,0.0,0.0,0.0,0.0,0.0,0.0,0.0,0.0,0.0,0.0,0.0,0.0,0.0,0.0,0.0,0.0,0.0,0.0,0.0,0.0,0.0,0.0,0.0,0.0,0.0,0.0,0.0,0.0,0.0,0.0,0.0,0.0,0.0,0.0,0.0,0.0,0.0,0.0,0.0,0.0,2.4549,2.4024,0.0,0.0,0.0,0.0,0.0,0.0,0.0,0.0,0.0,0.0,0.0,0.0,0.0,0.0,0.0,0.0,0.0,0.0,0.0,0.0,0.0,0.0,0.0,0.0,0.0,0.0,0.0,0.0,0.0,0.0,0.0,0.0,0.0,0.0,0.0,0.0,0.0,0.0,2.6533,2.6814,2.7241,2.7094,2.5967,2.3997,0.0,0.0,0.0,0.0,0.0,0.0,0.0,0.0,0.0,0.0,0.0,0.0,0.0,0.0,0.0,0.0,0.0,0.0,0.0,0.0,0.0,0.0,0.0,0.0,0.0,0.0,0.0,0.0,0.0,0.0,0.0,0.0,0.0,0.0,0.0,0.0,0.0,0.0,0.0,0.0,0.0,0.0,0.0,0.0,0.0,0.0,0.0,0.0,0.0,0.0,0.0,0.0,0.0,0.0,0.0,0.0,0.0,0.0,0.0,0.0,0.0,0.0,0.0,0.0,0.0,0.0,0.0,0.0,0.0,0.0,2.6003,2.5723,0.0,0.0,0.0,0.0,0.0,0.0,0.0,0.0,0.0,0.0,0.0,0.0,0.0,0.0,0.0,0.0,0.0,0.0,0.0,0.0,0.0,0.0,0.0,0.0,1.3618,1.4149,1.4473,0.0,0.0,0.0,0.0,0.0,0.0,0.0,0.0,0.0,0.0,2.6466,2.6867,2.7281,2.7696,2.7749,2.6739,2.4825,2.5744,0.0,0.0,0.0,0.0,0.0,0.0,0.0,0.0,0.0,0.0,0.0,0.0,0.0,0.0,0.0,0.0,0.0,0.0,0.0,0.0,0.0,0.0,0.0,0.0,0.0,0.0,0.0,0.0,0.0,0.0,0.0,0.0,0.0,0.0,0.0,0.0,0.0,0.0,0.0,0.0,0.0,0.0,0.0,0.0,0.0,0.0,0.0,0.0,0.0,0.0,0.0,0.0,0.0,0.0,0.0,0.0,0.0,0.0,0.0,0.0,0.0,0.0,0.0,2.6475,2.6623,2.6862,2.692,2.6923,2.6867,2.6609,2.6608,2.6721,2.5693,0.0,0.0,0.0,0.0,0.0,0.0,0.0,0.0,0.0,0.0,0.0,0.0,0.0,0.0,0.0,0.0,0.0,0.0,0.0,0.0,0.0,1.3281,1.3582,1.4541,1.4631,1.5051,0.0,0.0,0.0,0.0,0.0,0.0,0.0,2.6386,2.6507,2.676,2.7575,2.7883,2.7709,2.7963,2.7812,2.7162,2.5866,2.5451,2.5607,0.0,0.0,0.0,0.0,0.0,0.0,0.0,0.0,0.0,0.0,0.0,0.0,0.0,0.0,0.0,0.0,0.0,0.0,0.0,0.0,0.0,0.0,0.0,0.0,0.0,0.0,0.0,0.0,0.0,0.0,0.0,0.0,0.0,0.0,0.0,0.0,0.0,0.0,0.0,0.0,0.0,2.567,2.6312,0.0,0.0,0.0,0.0,0.0,0.0,0.0,0.0,0.0,0.0,0.0,0.0,0.0,2.6721,2.765,2.7621,2.7944,2.8482,2.8773,2.8837,2.8574,2.8851,2.8886,2.8549,2.7929,0.0,2.6752,2.6669,0.0,0.0,0.0,0.0,0.0,0.0,0.0,0.0,0.0,0.0,0.0,0.0,0.0,0.0,0.0,0.0,0.0,0.0,0.0,0.0,0.0,1.3315,1.3784,1.4764,1.4944,1.5333,1.6265,0.0,0.0,0.0,0.0,0.0,2.6386,2.6547,2.6854,2.7321,2.7709,2.7909,2.7949,2.7909,2.7829,2.7709,2.7103,2.6874,2.6813,2.5338,0.0,0.0,0.0,0.0,0.0,0.0,0.0,0.0,0.0,0.0,0.0,0.0,0.0,0.0,0.0,0.0,0.0,0.0,0.0,0.0,0.0,0.0,0.0,0.0,0.0,0.0,0.0,0.0,0.0,0.0,0.0,0.0,0.0,0.0,0.0,0.0,0.0,0.0,0.0,2.5709,2.659,2.7155,2.6866,2.6372,0.0,0.0,0.0,0.0,0.0,0.0,0.0,0.0,0.0,2.6808,2.7144,2.7773,2.8739,2.893,2.9164,2.9442,2.9588,2.9573,2.9442,2.9398,2.9295,2.9134,2.8681,2.8249,2.7908,2.7461,2.7008,2.6645,0.0,0.0,0.0,0.0,2.4147,2.4588,0.0,0.0,0.0,0.0,0.0,0.0,0.0,0.0,0.0,0.0,0.0,0.0,1.3024,1.3383,1.3964,1.4714,1.5038,1.5523,1.6193,1.897,0.0,0.0,0.0,2.5675,2.6159,2.652,2.7001,2.7589,2.7669,2.7776,2.8006,2.7762,2.7696,2.7709,2.7936,2.7709,2.708,2.6058,2.4665,2.3084,0.0,0.0,0.0,0.0,0.0,0.0,0.0,0.0,0.0,0.0,0.0,0.0,0.0,0.0,0.0,0.0,0.0,0.0,0.0,0.0,0.0,0.0,0.0,0.0,0.0,0.0,0.0,0.0,0.0,0.0,0.0,0.0,0.0,0.0,0.0,0.0,0.0,2.6603,2.732,2.7801,2.7744,2.7276,0.0,0.0,0.0,0.0,0.0,0.0,2.6018,2.6266,2.6866,2.7934,2.8198,2.8695,2.95,2.9749,2.9866,2.9866,3.0035,2.9939,2.9851,2.969,2.9529,2.9369,2.912,2.9017,2.8959,2.8169,2.7788,2.7627,2.6647,2.593,2.5344,2.4686,2.4818,2.5227,0.0,0.0,0.0,0.0,0.0,0.0,0.0,0.0,0.0,0.0,0.0,1.3166,1.3159,1.3444,1.3796,1.4294,1.4861,1.5255,1.5345,1.7428,1.9182,2.0476,2.2179,2.3828,2.5481,2.6119,2.6694,2.7281,2.7562,2.7562,2.7321,2.7575,2.7696,2.7696,2.7709,2.7402,2.6894,2.7652,2.5421,2.1464,2.3003,0.0,0.0,0.0,0.0,0.0,0.0,0.0,0.0,0.0,0.0,0.0,0.0,0.0,0.0,0.0,0.0,0.0,0.0,0.0,0.0,0.0,0.0,0.0,0.0,0.0,0.0,0.0,0.0,0.0,0.0,0.0,0.0,0.0,0.0,0.0,0.0,0.0,0.0,2.783,2.8725,0.0,0.0,0.0,0.0,2.5974,2.5959,2.6398,2.7335,2.7393,2.7978,2.9237,2.9295,2.9471,2.9837,2.9851,2.9866,2.9866,3.0255,3.024,2.9866,3.0255,2.9968,2.9383,2.9354,2.9354,2.9325,2.8973,2.8651,2.8286,2.732,2.6735,2.6354,2.5696,2.5666,2.5959,0.0,0.0,0.0,0.0,0.0,0.0,0.0,0.0,0.0,1.2874,1.2976,1.3037,1.3037,1.3559,1.4084,1.4593,1.5074,1.591,1.7383,1.9048,2.0607,2.2001,2.354,2.4788,2.5785,2.6373,2.6867,2.7268,2.7175,2.7081,2.6974,2.6894,2.6961,2.7148,2.7335,2.7415,2.7402,2.7722,2.6835,2.5126,2.5596,2.4468,0.0,0.0,0.0,0.0,0.0,0.0,0.0,0.0,0.0,0.0,0.0,0.0,0.0,0.0,0.0,0.0,0.0,0.0,0.0,0.0,0.0,0.0,0.0,0.0,0.0,0.0,0.0,0.0,0.0,0.0,0.0,0.0,0.0,0.0,0.0,0.0,0.0,2.8812,2.9544,0.0,2.8783,2.8227,2.773,2.7291,2.7832,2.833,2.8681,2.89,2.9222,2.9676,2.9895,3.0137,3.0255,3.0378,3.0481,3.0481,3.0598,3.0481,3.0255,3.0167,2.9793,2.9369,2.9149,2.9061,2.9061,2.8944,2.8827,2.8637,2.7671,2.7232,2.7027,2.6164,2.6179,2.6617,0.0,0.0,0.0,0.0,0.0,0.0,0.0,0.0,0.0,1.284,1.2969,1.3091,1.3241,1.379,1.4318,1.458,1.5133,1.6145,1.7984,1.9644,2.119,2.2469,2.4057,2.5304,2.6092,2.6386,2.672,2.7121,2.6827,2.668,2.6667,2.648,2.66,2.6987,2.7175,2.7482,2.7843,2.7749,2.731,2.6682,2.6877,2.6043,2.4675,0.0,0.0,0.0,0.0,0.0,0.0,0.0,0.0,0.0,0.0,0.0,0.0,0.0,0.0,0.0,0.0,0.0,0.0,0.0,0.0,0.0,0.0,0.0,0.0,0.0,0.0,0.0,0.0,0.0,0.0,0.0,0.0,0.0,0.0,2.7759,2.912,2.9647,3.0671,3.1022,3.0261,2.9822,2.9442,2.9105,2.9573,2.9866,2.9866,3.0071,3.0188,3.0188,3.0393,3.051,3.051,3.0715,3.0817,3.0817,3.0817,3.0715,3.051,3.029,2.9954,2.9529,2.931,2.909,2.8886,2.8886,2.8886,2.8812,2.7964,2.7642,2.7539,2.6661,2.6617,2.6939,0.0,0.0,0.0,0.0,0.0,0.0,0.0,0.0,1.2481,1.3078,1.3166,1.3336,1.379,1.4116,1.4299,1.4292,1.4937,1.591,1.7035,1.9016,2.0725,2.186,2.3667,2.5197,2.6333,2.6106,2.6239,2.6814,2.6533,2.6386,2.6386,2.6386,2.6707,2.7268,2.7268,2.7671,2.8207,2.7829,2.6852,2.5592,2.6835,2.601,2.4231,0.0,0.0,0.0,0.0,0.0,0.0,0.0,0.0,0.0,0.0,0.0,0.0,0.0,0.0,0.0,0.0,0.0,0.0,0.0,0.0,0.0,0.0,0.0,0.0,0.0,0.0,0.0,0.0,0.0,0.0,0.0,0.0,0.0,2.7481,2.8915,3.0056,3.0475,3.212,3.291,3.1944,3.1856,3.171,3.1373,3.1051,3.0861,3.093,3.0846,3.0832,3.0998,3.0832,3.0817,3.09,3.0817,3.0817,3.0817,3.0817,3.0803,3.0788,3.0788,3.0437,2.9837,2.9837,2.9471,2.8886,2.8886,2.8886,2.8827,2.8198,2.7874,2.7801,2.7232,2.6983,2.6939,0.0,0.0,0.0,0.0,0.0,0.0,0.0,1.1965,1.2054,1.2759,1.2949,1.3227,1.3783,1.4116,1.4258,1.4143,1.4858,1.6285,1.8799,1.9587,2.1091,2.3422,0.0,2.5424,2.5745,2.6092,2.6346,2.6507,2.6426,2.6386,2.6386,2.6386,2.6707,2.7268,2.7268,2.7671,2.8221,2.814,2.7804,2.7422,2.7556,2.6904,2.5844,0.0,0.0,0.0,0.0,0.0,0.0,0.0,0.0,0.0,0.0,0.0,0.0,0.0,0.0,0.0,0.0,0.0,0.0,0.0,0.0,0.0,0.0,0.0,0.0,0.0,0.0,0.0,0.0,0.0,0.0,0.0,2.7583,2.8666,2.852,3.01,3.1563,3.2354,3.3334,3.3758,3.3246,3.2983,3.2617,3.2061,3.1929,3.2368,3.3451,3.2044,3.2312,3.4916,3.2251,3.1399,3.2705,3.1399,3.0817,3.0817,3.0583,3.0349,3.0115,2.9881,2.9544,2.9164,2.9164,2.9061,2.8886,2.8886,2.8886,2.8827,2.8198,2.7874,2.7801,2.7232,2.6983,2.691,0.0,0.0,0.0,0.0,0.0,0.0,0.0,1.1769,1.1932,1.28,1.2942,1.3234,1.3953,1.419,1.4238,1.4089,1.4736,1.6041,1.8341,2.0005,0.0,0.0,0.0,2.5625,2.5879,2.6213,2.6386,2.6386,2.6507,2.6507,2.6386,2.6507,2.6747,2.7081,2.7215,2.7522,2.7963,2.8181,2.8301,2.8323,2.815,2.7615,2.6934,2.6854,2.64,2.5772,2.5531,2.5665,2.5956,2.5358,0.0,0.0,0.0,0.0,0.0,0.0,0.0,0.0,0.0,0.0,0.0,0.0,0.0,0.0,0.0,0.0,0.0,0.0,0.0,0.0,0.0,0.0,0.0,0.0,2.8812,3.0159,3.0642,3.1812,3.2866,3.3568,3.411,3.4607,3.5303,3.5076,3.4919,3.5247,3.5162,3.4949,3.4716,3.3491,3.3391,3.4561,3.2395,3.1598,3.2293,3.1316,3.0685,3.0422,3.0378,3.0173,2.9866,2.9807,2.9529,2.909,2.909,2.9017,2.8886,2.8886,2.8812,0.0,0.0,0.0,0.0,0.0,2.691,2.672,0.0,0.0,0.0,0.0,0.0,0.0,0.0,1.1701,1.1986,1.3017,1.3037,1.3302,1.4204,1.4299,1.4231,1.4061,1.455,1.5376,1.6753,0.0,0.0,2.5148,2.5548,2.5919,2.648,2.6493,2.6466,2.644,2.6694,2.6694,2.644,2.6667,2.6827,2.6934,2.7201,2.7482,2.7762,2.8154,2.835,2.8604,2.8604,2.8283,2.7749,2.7255,2.7054,2.6961,2.644,2.6253,2.6239,2.6172,0.0,0.0,0.0,0.0,0.0,0.0,0.0,0.0,0.0,0.0,0.0,0.0,0.0,0.0,0.0,0.0,0.0,0.0,0.0,0.0,0.0,0.0,0.0,0.0,3.0115,3.1739,3.3246,3.3955,3.4418,3.4518,3.4892,3.5786,3.7759,3.7654,3.8039,3.9365,3.9164,3.8045,3.5816,3.5462,0.0,0.0,0.0,3.2124,3.1775,3.1331,3.0854,3.0292,3.0351,3.0225,2.9866,3.0167,2.9866,2.9325,2.9325,2.9164,2.8886,2.8856,2.8637,2.83,2.7932,2.7801,2.7698,2.7159,2.6749,2.6457,0.0,0.0,0.0,0.0,0.0,0.0,0.0,1.164,1.1952,1.2881,1.3056,1.3302,1.4204,1.4299,1.419,1.3912,1.4231,1.511,0.0,0.0,2.2979,2.379,2.5582,2.6734,2.7081,2.7094,2.6974,2.6734,2.6787,2.6787,2.6734,2.656,2.6854,2.7535,2.7589,2.7776,2.8154,2.839,2.8551,2.8604,2.8604,2.8537,2.8444,2.8564,2.847,2.8243,2.8136,2.8096,2.8016,2.7522,2.7175,2.6881,2.664,0.0,0.0,0.0,0.0,0.0,0.0,0.0,0.0,0.0,0.0,0.0,0.0,0.0,0.0,0.0,0.0,0.0,0.0,0.0,0.0,3.0086,3.2163,3.3861,3.4695,3.6689,3.7805,3.7038,3.7007,3.7775,3.9755,3.9869,3.9864,3.983,3.9559,3.9583,4.0265,3.8355,3.8411,4.0849,3.7466,3.6266,3.7594,3.4458,3.2874,3.2733,3.089,0.0,2.9851,2.9383,2.9105,2.8988,2.8988,2.8944,2.8871,2.8622,2.8183,2.7656,2.7598,2.7408,2.713,2.6749,2.6559,2.6413,0.0,0.0,0.0,0.0,0.0,0.0,0.0,0.0,1.1891,1.2637,1.2732,1.3044,1.3871,1.3831,1.3675,1.3519,1.3783,0.0,0.0,1.9183,2.1416,2.3501,2.4901,2.6199,2.7268,2.7268,2.7188,2.7041,2.7188,2.7255,2.7255,2.7108,2.7362,2.7923,2.7923,2.8003,2.8248,2.847,2.8684,2.8818,2.8818,2.9005,2.9245,2.9098,2.8951,2.8818,2.8818,2.8818,2.8804,2.8644,2.8404,2.8177,2.8323,2.7655,2.668,0.0,0.0,0.0,0.0,0.0,0.0,0.0,0.0,0.0,0.0,0.0,0.0,0.0,0.0,2.65,2.7305,0.0,2.9968,3.1754,3.4142,3.6036,3.6878,3.8956,3.985,3.8018,3.8754,4.0048,4.1779,4.1941,4.2228,4.2821,4.2417,4.2014,4.161,4.0246,3.9754,4.0592,3.8333,3.6936,3.6658,3.4311,3.2595,3.1365,3.0245,2.9529,2.9369,2.9032,2.8886,2.8886,2.8725,2.8754,2.8871,2.8564,2.8154,2.77,2.7539,2.7276,2.6954,2.6617,2.6398,2.6193,0.0,0.0,0.0,0.0,0.0,0.0,0.0,0.0,0.0,1.2386,1.2481,1.2766,1.3464,1.3349,1.318,0.0,0.0,0.0,0.0,1.7434,1.9471,2.2805,2.3568,2.4936,2.6931,2.7013,2.7152,2.7442,2.7736,2.7843,2.7789,2.7722,2.7856,2.8221,2.8221,2.8261,2.8341,2.8564,2.8858,2.9125,2.9125,2.9446,2.986,2.9392,2.9205,2.9205,2.9205,2.9098,2.9018,2.9432,2.9325,2.9165,2.986,2.9352,2.831,2.7428,2.7001,0.0,0.0,0.0,0.0,0.0,0.0,0.0,0.0,2.6179,2.6047,2.7203,2.7539,2.8037,2.9398,3.0437,3.1651,3.3334,3.5502,3.752,3.8703,4.0707,4.1323,3.9649,4.0763,4.2258,4.38,4.3941,4.4448,4.5734,4.5391,4.4299,4.2449,4.1899,4.0928,3.9469,3.8856,3.7612,3.5692,3.4246,3.2553,3.0669,2.9907,2.9398,2.9076,2.9017,2.8944,2.8871,2.8637,2.8637,2.8783,2.8534,2.8212,2.7832,2.7569,2.7276,2.6939,2.6559,2.6237,2.5959,0.0,0.0,0.0,0.0,0.0,0.0,0.0,0.0,0.0,1.225,1.2427,1.2684,1.3173,0.0,0.0,0.0,0.0,0.0,1.3938,1.6116,1.8112,1.9625,2.116,2.3245,2.5823,2.5909,2.6654,2.8127,2.835,2.8364,2.8167,2.7816,2.7856,2.8221,2.8221,2.8297,2.8577,2.8871,2.9165,2.9432,2.9432,2.9633,2.9913,2.9847,2.982,2.982,2.982,2.9312,2.8778,2.9593,2.9499,2.9232,3.0341,3.0247,2.9553,2.8671,2.7655,2.644,2.4676,2.4318,2.4624,2.528,2.5385,2.5984,0.0,2.8505,2.8578,3.0393,3.1242,3.1783,3.2251,3.3129,3.4036,3.4812,3.5677,3.6982,3.9304,4.1361,4.3036,4.426,4.396,4.4278,4.5802,4.5939,4.6007,4.623,4.584,4.55,4.5269,4.4492,4.3897,4.371,4.2534,4.1718,4.1441,3.7614,3.549,3.5244,3.1899,3.0071,2.9749,2.9456,2.9164,2.8886,2.8856,2.871,2.8491,2.8447,2.8081,2.7525,2.7495,2.7276,2.691,2.6296,2.6047,2.593,0.0,0.0,0.0,0.0,0.0,0.0,0.0,0.0,0.0,0.0,0.0,1.2352,1.263,0.0,0.0,0.0,0.0,0.0,1.3445,1.5101,1.6856,1.8538,1.9869,2.1588,2.371,2.415,2.5155,2.6982,2.5808,2.5965,2.7373,2.5781,2.5365,2.5896,2.5754,2.566,2.5737,2.5843,2.595,2.6157,2.7479,2.8065,2.8346,2.9451,2.9806,2.9593,2.9072,2.8644,0.0,0.0,2.8871,2.8791,3.0314,2.9673,2.8404,2.8564,2.7642,0.0,2.6293,2.5608,2.5385,2.7073,2.7052,2.7287,2.9661,2.9866,2.9998,3.1549,3.2398,3.2997,3.3524,3.4241,3.4973,3.5617,3.6973,3.8697,4.1156,4.3409,4.5267,4.6114,4.6595,4.6843,4.6669,4.6445,4.6308,4.6308,4.5918,4.5566,4.5312,4.4726,4.4277,4.4004,4.2969,4.194,4.0952,3.8493,3.6226,3.4146,3.2456,3.0926,2.9573,2.9237,2.8915,2.8637,2.8812,2.8812,2.8695,2.8505,2.8271,2.7993,2.7627,2.7393,2.7188,2.6544,2.6179,2.5959,0.0,0.0,0.0,0.0,0.0,0.0,0.0,0.0,0.0,0.0,0.0,0.0,0.0,0.0,0.0,0.0,0.0,0.0,0.0,1.4361,1.5696,1.7419,1.8258,1.9598,2.1539,2.2171,2.3443,2.5337,2.3973,2.425,2.5982,2.4247,2.3721,2.4191,2.3903,2.3785,2.3796,2.3769,2.3748,2.3914,2.5617,2.6644,2.716,2.8539,2.8942,2.8791,2.8221,2.7872,0.0,0.0,2.7655,2.7859,2.9152,2.8564,2.7482,2.7976,2.7121,2.6186,2.6907,2.644,2.6208,2.8165,2.856,2.8818,3.0574,3.1026,3.1329,3.2456,3.3202,3.3817,3.4373,3.5002,3.5573,3.6041,3.7424,3.9515,4.246,4.4304,4.5702,4.6997,4.7617,4.7617,4.668,4.6523,4.6426,4.6308,4.6016,4.5703,4.5391,4.4863,4.4414,4.4082,4.3008,4.1599,3.9877,3.8359,3.5981,3.3047,3.231,3.1228,2.9632,2.9208,2.8856,2.8578,2.8798,2.8886,2.8871,2.8564,2.8388,2.8242,2.77,2.7422,2.7291,2.6808,2.6369,2.5974,0.0,0.0,0.0,0.0,0.0,0.0,0.0,0.0,0.0,0.0,0.0,0.0,0.0,0.0,0.0,0.0,0.0,0.0,0.0,1.381,1.4702,1.5538,1.5846,1.7195,1.9595,2.0355,2.1563,2.3417,2.4218,2.4415,2.4212,2.4098,2.4005,2.4005,2.355,2.38,2.4313,2.4042,2.4069,2.4305,2.4541,2.5577,2.6979,2.6888,2.7071,2.7335,2.7308,0.0,0.0,0.0,2.5798,2.6157,2.6413,2.7054,0.0,2.7028,2.6039,0.0,0.0,2.5959,2.6586,2.7703,2.9118,3.0492,3.1279,3.212,3.288,3.3554,3.4212,3.4753,3.5075,3.5646,3.61,3.6114,3.6378,3.8249,4.277,4.2673,4.3555,4.7147,4.6504,4.5762,4.5723,4.6445,4.6738,4.6328,4.6289,4.6289,4.6269,4.5469,4.5,4.498,4.332,4.1599,3.9877,3.7344,3.517,3.3331,3.17,3.071,3.0387,2.9661,2.9178,2.8871,2.8886,2.8886,2.8871,2.8564,2.818,2.7859,2.7598,2.7276,2.6998,2.6983,2.6574,2.5974,0.0,0.0,0.0,0.0,0.0,0.0,0.0,0.0,0.0,0.0,0.0,0.0,0.0,0.0,0.0,0.0,0.0,0.0,0.0,1.3553,1.4217,1.4702,1.5272,1.6059,1.6956,1.7742,1.9269,2.1498,2.0589,2.101,2.2603,2.1422,2.0906,2.0897,2.0762,2.0735,2.0789,2.0655,2.0661,2.0693,2.2027,2.2758,2.3098,2.4957,2.5347,2.4992,0.0,0.0,0.0,0.0,0.0,0.0,2.5598,0.0,0.0,2.4863,0.0,0.0,0.0,2.7108,2.7671,2.9572,3.0403,3.1056,3.1825,3.268,3.3345,3.3548,3.3615,3.3832,3.4154,3.4036,3.411,3.4753,3.5485,3.7124,4.0222,4.2429,4.4045,4.5053,4.6959,4.7441,4.5449,4.5508,4.584,4.6269,4.6308,4.6191,4.5898,4.5332,4.4902,4.4629,4.3476,4.2472,4.1618,3.9245,3.714,3.5106,3.1981,3.0334,3.0012,2.9573,2.9193,2.8886,2.8886,2.8886,2.8856,2.833,2.8107,2.8122,2.7452,2.7217,2.7291,2.7071,2.672,2.6296,0.0,0.0,0.0,0.0,0.0,0.0,0.0,0.0,0.0,0.0,0.0,0.0,0.0,0.0,0.0,0.0,0.0,0.0,0.0,0.0,1.3736,1.4048,1.4694,1.5014,1.5174,1.5923,1.7034,1.8676,1.792,1.8473,2.0094,1.9397,1.9004,1.9061,1.8996,1.9013,1.9061,1.8801,1.8598,1.8514,1.971,2.017,2.0413,2.2159,2.2982,0.0,0.0,0.0,0.0,0.0,0.0,0.0,0.0,0.0,0.0,0.0,0.0,0.0,2.7482,2.8163,2.8904,3.0529,3.1304,3.1693,3.2177,3.2836,3.3358,3.3214,3.2808,3.2657,3.2938,3.2515,3.2471,3.3671,3.4388,3.5876,3.9004,4.1394,4.3208,4.3979,4.6314,4.7148,4.5215,4.5019,4.5254,4.5801,4.5996,4.5957,4.5683,4.541,4.5195,4.5078,4.3926,4.2977,4.2187,3.9593,3.6858,3.4132,3.1669,3.029,2.9851,2.9647,2.931,2.8886,2.8886,2.8827,2.8695,2.8169,2.7932,2.8022,2.7276,2.7115,2.7276,2.7071,2.6778,2.6457,0.0,0.0,0.0,0.0,0.0,0.0,0.0,0.0,0.0,0.0,0.0,0.0,0.0,0.0,0.0,0.0,0.0,0.0,0.0,0.0,0.0,1.358,1.3878,1.4109,1.4265,1.4801,1.5073,1.5073,1.6272,1.6876,1.6974,1.7949,1.8468,1.8623,1.8452,1.8655,1.9094,1.8403,1.8005,1.7835,1.764,1.8078,1.8964,1.8808,0.0,0.0,0.0,0.0,0.0,0.0,0.0,0.0,0.0,0.0,0.0,0.0,0.0,2.6734,2.802,2.9098,3.0127,3.0688,3.1624,3.2327,3.2327,3.2758,3.2948,3.2518,3.1837,3.1411,3.1639,3.1154,3.1256,3.2821,3.3261,3.483,3.9162,3.9971,4.1165,4.4142,4.4926,4.5195,4.5098,4.5117,4.5098,4.5058,4.5449,4.5703,4.5742,4.5723,4.5898,4.6289,4.4687,4.3196,4.1896,3.8376,3.4736,3.09,3.0817,3.0481,2.9866,2.9866,2.95,2.8886,2.8886,2.8725,2.8432,2.802,2.7773,2.7466,2.713,2.6983,2.6983,2.6983,2.6793,2.6486,0.0,0.0,0.0,0.0,0.0,0.0,0.0,0.0,0.0,0.0,0.0,0.0,0.0,0.0,0.0,0.0,0.0,0.0,0.0,0.0,0.0,0.0,0.0,0.0,0.0,0.0,0.0,0.0,0.0,1.5853,1.6442,1.6789,1.7136,1.7242,1.7283,1.7339,1.7453,1.7266,1.7088,1.6893,0.0,1.6477,1.673,0.0,0.0,0.0,0.0,0.0,0.0,0.0,0.0,0.0,0.0,2.4356,2.473,2.6346,2.7241,2.8087,2.9494,3.0327,3.0982,3.1356,3.1651,3.1853,3.1853,3.1715,3.1651,3.1657,3.0297,2.9324,2.9888,2.9661,2.9998,3.1856,3.3568,3.5862,3.9304,4.181,4.3652,4.4872,4.6729,4.7383,4.6094,4.6269,4.6191,4.5566,4.5605,4.5957,4.6582,4.6308,4.6191,4.6289,4.5566,4.4577,4.3183,3.8812,3.531,3.269,3.1399,3.0481,2.9866,2.9866,2.95,2.8886,2.8886,2.8842,2.8725,2.8107,2.783,2.7773,2.7217,2.6983,2.6983,2.6983,2.6939,2.6778,0.0,0.0,0.0,0.0,0.0,0.0,0.0,0.0,0.0,0.0,0.0,0.0,0.0,0.0,0.0,0.0,0.0,0.0,0.0,0.0,0.0,0.0,0.0,0.0,0.0,0.0,0.0,0.0,0.0,0.0,0.0,1.5833,1.6152,1.6164,1.6491,1.6609,1.66,1.6446,0.0,0.0,0.0,0.0,0.0,0.0,0.0,0.0,0.0,0.0,0.0,0.0,0.0,2.4596,2.5692,2.6199,2.6653,2.803,2.8845,2.9486,3.0327,3.1169,3.1851,3.2011,3.1957,3.1757,3.137,3.0886,3.0355,2.9559,2.8403,2.7762,2.8414,2.8414,2.9047,3.1417,3.2851,3.4822,3.7949,4.0142,4.1953,4.3774,4.5723,4.6739,4.6338,4.668,4.6738,4.6269,4.623,4.6348,4.6641,4.6797,4.6953,4.7129,4.6367,4.4873,4.2614,3.9876,3.6936,3.3667,3.2757,3.1437,2.9866,2.9866,2.95,2.8886,2.8886,2.8812,2.8651,2.8154,2.7786,2.77,2.7188,2.6983,2.6969,2.6822,2.6691,2.6486,0.0,0.0,0.0,0.0,0.0,0.0,0.0,0.0,0.0,0.0,1.2515,0.0,0.0,0.0,0.0,0.0,0.0,0.0,0.0,0.0,0.0,0.0,0.0,0.0,0.0,0.0,0.0,0.0,0.0,0.0,0.0,0.0,0.0,0.0,0.0,0.0,0.0,0.0,0.0,0.0,0.0,0.0,0.0,0.0,0.0,0.0,0.0,0.0,0.0,0.0,2.6427,2.6694,2.7482,2.8243,2.9018,2.994,3.0568,3.0969,3.1022,3.1797,3.2599,3.2599,3.2318,3.1824,3.0982,3.0181,2.9078,2.7268,2.6619,2.6514,2.7126,2.7403,2.8432,3.1329,3.19,3.3175,3.6608,3.7405,3.8914,4.2379,4.3777,4.496,4.627,4.6758,4.6992,4.6933,4.6992,4.6855,4.6484,4.7226,4.7812,4.8105,4.6933,4.4674,4.1155,4.083,3.8443,3.3972,3.3806,3.2345,2.9983,2.991,2.9559,2.9017,2.893,2.8739,2.8476,2.8078,2.7832,2.751,2.7174,2.7027,2.6954,2.6617,2.6325,2.6032,0.0,0.0,0.0,0.0,0.0,0.0,0.0,0.0,0.0,0.0,1.2583,1.2501,0.0,0.0,0.0,0.0,0.0,0.0,0.0,0.0,0.0,0.0,0.0,0.0,0.0,0.0,0.0,0.0,0.0,0.0,0.0,0.0,0.0,0.0,0.0,0.0,0.0,0.0,0.0,0.0,0.0,0.0,0.0,0.0,0.0,0.0,0.0,0.0,0.0,0.0,2.6562,2.7789,2.9606,3.0127,3.0274,3.1396,3.1797,3.1931,3.2171,3.2559,3.2906,3.2906,3.2318,3.1583,3.0942,2.9392,0.0,2.6792,2.5791,2.5424,2.6383,2.7113,2.8432,3.1329,3.2471,3.4559,3.9022,3.9194,4.0388,4.4571,4.4799,4.5234,4.6678,4.7207,4.7324,4.6953,4.7266,4.7441,4.7363,4.7832,4.7969,4.7695,4.6797,4.4674,4.1155,3.9365,3.6793,3.3524,3.2054,3.115,3.0642,3.0115,2.9807,2.9661,2.912,0.0,2.8783,2.8476,2.8093,2.7832,2.7525,2.7232,2.6954,2.6617,2.6471,2.6339,0.0,0.0,0.0,0.0,0.0,0.0,0.0,1.2752,1.2854,1.2854,1.2854,1.2793,1.2637,1.2623,1.2623,0.0,0.0,0.0,0.0,0.0,0.0,0.0,0.0,0.0,0.0,0.0,0.0,0.0,0.0,0.0,0.0,0.0,0.0,0.0,0.0,0.0,0.0,0.0,0.0,0.0,0.0,0.0,0.0,0.0,0.0,0.0,0.0,0.0,0.0,0.0,2.6287,2.8591,3.0955,3.1931,3.2238,3.2492,3.2786,3.2919,3.2452,3.2746,3.32,3.32,3.2545,3.1583,3.0381,0.0,0.0,2.5612,2.4866,2.4858,2.5906,2.686,2.8173,3.0451,3.1754,3.362,3.6917,3.8054,3.992,4.3309,4.4209,4.5181,4.6795,4.7324,4.75,4.7285,4.7676,4.7715,4.7266,4.7656,4.7793,4.7578,4.6758,4.5135,4.2873,4.0844,3.8174,3.508,3.3458,3.1866,3.032,3.0188,2.9837,2.9354,2.9208,2.9047,2.8871,2.8564,2.8165,2.7844,2.7598,2.7276,2.6954,2.6617,2.6398,2.6179,0.0,0.0,0.0,0.0,0.0,0.0,0.0,1.2888,1.3017,1.3051,1.3152,1.3132,1.2901,1.2813,1.2779,0.0,0.0,0.0,0.0,0.0,0.0,0.0,0.0,0.0,0.0,0.0,0.0,1.2501,0.0,0.0,0.0,0.0,0.0,0.0,0.0,0.0,0.0,0.0,0.0,0.0,0.0,0.0,0.0,0.0,0.0,0.0,0.0,0.0,0.0,0.0,2.5587,2.8478,3.1222,3.2692,3.3347,3.2986,3.332,3.3614,3.2799,3.304,3.3507,3.3507,3.2759,3.1543,2.9793,2.8243,0.0,2.4609,2.4255,2.4586,2.5615,2.6521,2.764,2.9529,3.0612,3.2061,3.4285,3.6328,3.8671,4.1568,4.3292,0.0,4.6639,4.7187,4.7402,4.7305,4.7617,4.7598,4.709,4.7226,4.7344,4.7441,4.6621,4.5413,4.389,4.219,3.9581,3.6068,3.4795,3.2804,3.0173,3.0372,2.9939,2.9208,2.9325,2.9193,2.8871,2.8637,2.8344,2.7947,2.77,2.7378,2.7042,2.6647,2.6339,2.6076,0.0,0.0,0.0,0.0,0.0,0.0,0.0,1.2969,1.32,1.3342,1.337,1.337,1.3342,1.3098,1.2942,0.0,0.0,0.0,0.0,0.0,0.0,0.0,0.0,0.0,0.0,0.0,0.0,1.2501,1.2501,0.0,0.0,0.0,0.0,0.0,0.0,1.4637,0.0,0.0,0.0,0.0,0.0,0.0,0.0,0.0,0.0,0.0,0.0,0.0,0.0,0.0,0.0,2.6535,2.9596,3.1169,3.1971,3.2452,0.0,0.0,3.4002,3.3988,3.3841,3.3841,3.2772,3.1249,2.9486,0.0,2.636,2.4569,2.4255,2.4586,2.5615,2.5909,2.6805,2.9041,2.9515,3.0685,3.3817,3.5452,3.7662,4.145,0.0,0.0,4.6172,4.6738,4.6836,4.6445,4.6465,4.6777,4.748,4.6816,4.6601,4.6973,4.6172,4.4587,4.2037,4.111,3.8464,3.4352,3.3749,3.2643,3.1154,3.0598,3.0387,3.0269,2.9617,2.9193,0.0,2.8856,2.8666,2.8282,2.7961,2.7715,2.7349,2.6735,2.6486,2.6413,0.0,0.0,0.0,0.0,0.0,0.0,1.2976,1.3254,1.3471,1.3532,1.3614,1.3634,1.3546,1.3349,1.3186,1.3098,0.0,0.0,0.0,0.0,0.0,0.0,0.0,0.0,0.0,0.0,1.2549,1.2637,1.2549,0.0,0.0,0.0,0.0,0.0,0.0,1.4592,1.496,0.0,0.0,0.0,0.0,0.0,0.0,0.0,0.0,0.0,0.0,0.0,1.7865,1.8946,0.0,0.0,2.505,2.6973,0.0,0.0,3.2158,3.2959,3.3187,3.3561,3.3881,3.3881,3.2505,3.0768,2.9366,0.0,2.5959,2.4716,2.4308,2.4517,2.529,2.5629,2.6223,2.7427,0.0,0.0,3.1593,3.3677,3.641,4.0277,4.1924,4.3846,4.6425,4.6836,4.6855,4.6699,4.6211,4.6074,4.6406,4.6113,4.5996,4.6172,4.5351,4.4136,4.2563,4.1128,3.8601,3.5258,3.4193,3.2695,3.0729,3.0671,3.0422,3.0042,2.9778,2.9486,0.0,2.8973,2.8593,2.8063,2.7932,2.7642,2.7159,2.6896,2.6676,2.6486,0.0,0.0,0.0,0.0,0.0,1.2956,1.3146,1.3397,1.3593,1.3682,1.3817,1.3851,1.3709,1.3559,1.3403,1.3254,1.3241,0.0,0.0,0.0,0.0,0.0,0.0,0.0,0.0,0.0,1.2556,1.2664,1.2603,1.2603,0.0,0.0,1.3324,1.3744,0.0,0.0,0.0,0.0,0.0,0.0,0.0,0.0,0.0,0.0,0.0,0.0,0.0,0.0,0.0,0.0,0.0,0.0,0.0,0.0,0.0,0.0,3.0835,3.1998,3.2522,3.3066,3.3641,3.3721,3.2251,3.0488,0.0,0.0,2.5932,2.497,2.4609,2.4649,2.5139,2.552,2.5946,0.0,0.0,2.8608,2.9881,3.2309,3.5159,3.8544,4.0529,4.2724,4.5511,4.6133,4.6426,4.6543,4.5879,4.543,4.5312,4.5293,4.5351,4.5488,4.4531,4.3769,4.3262,4.1631,3.9431,3.6892,3.5277,3.3375,3.1302,3.0963,3.0466,2.9866,2.9866,2.9617,0.0,2.8886,2.8491,2.8005,2.7891,2.7539,2.713,2.7027,2.6852,2.6632,0.0,0.0,0.0,0.0,0.0,0.0,1.3125,1.3302,1.3505,1.3797,1.3973,1.4007,1.3858,1.3709,1.3566,1.341,1.3397,0.0,0.0,0.0,0.0,0.0,0.0,0.0,0.0,0.0,1.2501,1.2501,1.2657,1.2651,1.2508,1.3049,1.3432,1.3744,0.0,0.0,0.0,0.0,0.0,0.0,0.0,0.0,0.0,0.0,0.0,0.0,0.0,0.0,0.0,0.0,0.0,0.0,0.0,0.0,0.0,0.0,2.8991,3.0702,3.2158,3.2759,3.3053,3.3347,3.2091,3.0488,0.0,0.0,2.648,2.5317,2.5077,2.5133,2.5207,2.552,2.5946,2.6312,0.0,0.0,2.9208,3.1678,3.4131,3.6263,3.8498,4.0733,4.2903,4.4277,4.5234,4.5664,4.5273,4.4844,4.4433,4.4414,4.4609,4.5019,4.3769,4.3281,4.3691,4.2441,4.0906,3.9171,3.699,3.5042,3.3347,3.155,3.0466,2.9866,2.9866,2.95,0.0,2.8564,2.8432,2.8373,2.773,2.7481,2.7437,2.7115,2.6983,2.6939,0.0,0.0,0.0,0.0,0.0,0.0,0.0,1.3458,1.3627,1.3817,1.3797,1.379,1.3838,1.362,1.3451,1.3403,1.3403,0.0,0.0,0.0,0.0,0.0,0.0,0.0,0.0,1.2501,1.2603,1.2813,1.2759,1.2807,1.2956,1.3202,1.349,1.3908,1.4261,1.4592,0.0,0.0,0.0,0.0,0.0,0.0,0.0,0.0,0.0,0.0,0.0,0.0,0.0,0.0,0.0,0.0,0.0,0.0,0.0,0.0,0.0,0.0,2.9967,3.0662,3.1169,3.1049,2.9993,2.8831,2.8257,0.0,2.5758,2.5197,2.4917,2.4743,2.4797,2.5359,2.5873,2.5946,2.6632,0.0,0.0,2.9297,3.1637,3.629,4.0695,4.3652,4.4311,4.4512,4.4766,4.5195,4.4844,4.4531,4.4414,4.4101,4.3848,4.3691,4.3301,4.2871,4.2402,4.1992,4.0753,3.8768,3.6867,3.5123,3.3347,3.155,3.0598,3.0269,2.9954,2.95,2.8871,2.8564,2.8183,2.7759,2.7554,2.7335,2.71,2.6778,2.6661,2.6603,0.0,0.0,0.0,0.0,0.0,0.0,0.0,1.3485,1.3593,1.3743,1.3729,1.3722,1.3756,1.36,1.3464,1.3403,1.3403,0.0,0.0,0.0,0.0,0.0,0.0,0.0,1.2501,1.2501,1.2623,1.2874,1.2834,1.2908,1.3091,1.3356,1.3634,1.399,1.4353,1.4647,0.0,0.0,0.0,0.0,0.0,0.0,1.5074,0.0,0.0,0.0,0.0,0.0,0.0,0.0,0.0,0.0,0.0,0.0,0.0,0.0,2.6667,2.7909,0.0,2.9272,2.9873,2.99,2.9018,0.0,0.0,0.0,2.5732,2.5331,2.509,2.4903,2.4676,2.5116,2.5618,2.5618,2.6286,2.6983,2.751,2.8081,3.0313,3.556,4.0689,4.3867,4.4023,4.4101,4.4316,4.4766,4.4394,4.4062,4.3906,4.3633,4.3125,4.2383,4.2363,4.2187,4.1797,4.1484,4.0703,3.9531,3.7852,3.6075,3.4311,3.2608,3.1227,3.024,2.9954,2.9427,0.0,2.8388,2.7949,2.7466,2.7349,2.7174,2.6969,2.6764,2.6603,2.6457,0.0,0.0,0.0,0.0,0.0,0.0,0.0,1.341,1.3458,1.3607,1.3736,1.3763,1.3641,1.362,1.3553,1.341,0.0,0.0,0.0,0.0,0.0,0.0,0.0,0.0,1.2501,1.2515,1.2589,1.2745,1.2901,1.3063,1.3077,1.3605,1.3909,1.4091,1.4461,1.4742,0.0,0.0,0.0,0.0,1.5009,1.5106,0.0,0.0,0.0,0.0,0.0,0.0,0.0,0.0,0.0,0.0,0.0,0.0,0.0,0.0,0.0,0.0,0.0,2.843,2.8978,2.9499,2.8831,2.8127,0.0,0.0,0.0,2.5625,2.5478,2.5277,2.4669,2.4966,2.5324,2.5324,2.597,2.6588,2.691,2.7937,3.0238,3.4484,3.8943,4.1911,4.2441,4.3183,4.3848,4.4316,4.3887,4.3457,4.3105,4.3027,4.2441,4.125,4.1191,4.1348,4.1699,4.0898,4.0723,4.1172,3.9415,3.7657,3.5914,3.4197,3.2057,0.0,2.9837,2.9281,2.8297,2.8005,2.7744,2.7408,2.7115,2.6983,2.6983,2.6969,2.6749,2.6427,0.0,0.0,0.0,0.0,0.0,0.0,0.0,0.0,0.0,0.0,1.3553,1.3539,1.362,1.3526,1.3437,0.0,0.0,0.0,0.0,0.0,0.0,0.0,0.0,0.0,1.2501,1.2617,1.2752,1.2908,1.3051,1.3431,1.3877,1.4193,1.4451,1.4646,1.4908,1.5061,0.0,0.0,0.0,0.0,1.5415,1.5358,0.0,0.0,0.0,0.0,1.5398,1.5536,0.0,0.0,0.0,0.0,0.0,0.0,0.0,0.0,2.6333,2.6453,2.672,0.0,2.6987,2.6907,2.7014,2.7068,0.0,0.0,0.0,0.0,2.5157,2.4796,2.4663,2.4966,2.5324,2.5324,2.5783,2.6237,2.6574,2.9488,3.2583,3.5224,3.8879,4.1669,4.2787,4.3105,4.3398,4.3828,4.3164,4.2832,4.3066,4.2461,4.1973,4.166,4.1348,4.1055,4.082,4.0312,4.043,4.1172,3.9056,3.7309,3.5914,3.3953,3.1922,2.9851,2.9603,2.8944,2.799,2.7903,2.7613,2.71,2.7013,2.6983,2.6969,2.6705,2.6413,2.6091,0.0,0.0,0.0,0.0,0.0,0.0,0.0,0.0,0.0,0.0,0.0,1.3431,1.3512,1.3451,0.0,0.0,0.0,0.0,0.0,0.0,0.0,0.0,0.0,1.2535,1.2603,1.2684,1.284,1.3057,1.3383,1.3664,1.4149,1.4639,1.4865,1.4779,1.4993,1.5057,1.4976,1.5179,1.5147,1.5069,1.5285,0.0,0.0,0.0,0.0,0.0,1.535,1.5447,0.0,1.5715,1.6338,1.7485,0.0,0.0,0.0,0.0,2.6386,2.6386,2.6386,2.6386,2.636,2.6199,2.6293,2.6386,2.6226,0.0,0.0,0.0,2.5064,2.4756,2.4489,2.4761,2.5,2.4932,2.5783,2.6778,2.77,3.0732,3.3609,3.5635,3.8787,4.1462,4.3195,4.3183,4.3262,4.3672,4.291,4.2441,4.25,4.2051,4.1621,4.123,4.0801,4.0566,4.0527,4.0293,3.9931,3.9528,3.9258,3.7523,3.4534,3.4437,3.279,3.0167,2.9895,2.9193,2.8093,2.8093,2.77,2.6983,2.6983,2.6983,2.6954,2.6617,2.6296,2.5974,0.0,0.0,0.0,0.0,0.0,0.0,0.0,0.0,0.0,0.0,0.0,0.0,0.0,0.0,0.0,0.0,0.0,0.0,0.0,0.0,0.0,0.0,1.2698,1.2596,1.2725,1.2752,1.2901,1.3254,1.3711,1.4049,1.4351,1.5097,1.5241,1.4978,1.5039,1.5033,1.5009,1.5041,1.5017,1.4968,1.4992,0.0,0.0,0.0,0.0,0.0,0.0,0.0,0.0,1.5618,1.6835,1.8512,2.0558,0.0,0.0,0.0,0.0,0.0,2.6373,2.636,2.6319,2.6319,2.6172,2.6077,2.5905,0.0,0.0,0.0,2.5037,2.4877,2.4422,2.4651,2.4861,2.4722,2.6056,2.7627,2.9032,3.1262,3.3629,3.5874,3.8451,4.0989,4.3312,4.3125,4.3066,4.3476,4.2715,4.207,4.1719,4.1699,4.1308,4.0449,4.0215,4.0156,4.0312,4.0312,3.9491,3.8003,3.9395,3.7764,3.3387,3.4825,3.3661,3.0431,0.0,0.0,2.8432,2.8311,2.7817,2.6983,2.6983,2.6983,2.6954,2.6617,2.6296,2.5959,0.0,0.0,0.0,0.0,0.0,0.0,0.0,0.0,0.0,0.0,0.0,0.0,0.0,0.0,0.0,0.0,0.0,0.0,0.0,0.0,0.0,1.3139,1.2854,1.2705,1.2732,1.2861,1.3164,1.3743,1.4088,1.4656,1.5439,1.5607,1.5668,1.5643,1.552,1.5342,1.5204,1.5366,1.5252,1.4976,1.513,0.0,0.0,0.0,0.0,0.0,0.0,0.0,0.0,1.5488,1.6827,1.8686,2.049,0.0,0.0,0.0,0.0,0.0,2.6319,2.6213,2.6026,2.6026,2.6172,2.6186,2.5692,0.0,0.0,0.0,0.0,0.0,0.0,2.5354,2.5716,2.5852,2.6989,2.7978,2.8505,3.0064,3.2273,3.539,3.7128,3.9259,4.2314,4.2246,4.2168,4.2598,4.1836,4.1348,4.1269,4.1269,4.0879,4.0019,4.0625,4.0469,3.9414,3.9394,3.9596,4.0028,3.8892,3.7342,3.5507,3.4049,3.232,3.0401,0.0,2.9105,2.8417,2.8063,2.7613,2.6983,2.6983,2.6983,2.6954,2.6617,2.6296,2.593,0.0,0.0,0.0,0.0,0.0,0.0,0.0,0.0,0.0,0.0,0.0,0.0,0.0,0.0,0.0,0.0,0.0,0.0,0.0,0.0,1.3464,1.3302,1.3166,1.3051,1.2969,1.3279,1.3718,1.4209,1.4857,1.5531,1.6137,1.6024,1.5948,1.5764,1.5593,1.5472,1.539,1.548,1.5415,1.526,0.0,0.0,0.0,0.0,0.0,0.0,0.0,0.0,0.0,0.0,1.7374,1.9837,2.0744,0.0,0.0,0.0,0.0,0.0,2.5919,2.5705,2.5558,2.5956,2.5932,2.5798,2.5371,2.5157,2.4997,0.0,0.0,0.0,0.0,2.5766,2.6721,2.7989,2.8347,2.8695,2.9369,3.0246,3.2067,3.5595,3.6967,3.8956,4.2059,4.2246,4.2129,4.209,4.1308,4.082,4.082,4.0605,4.0293,3.9902,4.0039,3.9824,3.9199,3.9453,3.9198,3.85,3.8069,3.6623,3.434,3.3499,3.2227,3.0583,0.0,2.9603,2.8666,2.852,2.7876,2.6983,2.6983,2.6983,2.6954,2.6617,2.6076,2.5476,0.0,0.0,0.0,0.0,0.0,0.0,0.0,0.0,0.0,0.0,0.0,0.0,0.0,0.0,0.0,0.0,0.0,0.0,0.0,1.3695,1.3654,1.3464,1.35,1.3494,1.3343,1.3732,1.4318,1.4929,1.5729,1.6332,1.672,1.6494,1.6243,1.5886,1.5715,1.585,1.6208,1.6208,1.6421,1.6669,0.0,0.0,0.0,0.0,0.0,0.0,0.0,0.0,0.0,0.0,0.0,0.0,0.0,0.0,0.0,2.6026,2.5929,2.5705,2.5478,2.5144,2.4983,2.5438,2.5371,2.5237,2.5358,2.505,2.4783,2.4917,2.4943,2.501,2.5237,2.6205,2.7593,2.9334,2.9398,2.9427,3.0334,3.0803,3.2357,3.6008,3.7105,3.8832,4.1984,4.209,4.1855,4.1523,4.0801,4.0371,4.0371,4.0078,3.9805,3.959,3.9336,3.916,3.9062,3.9609,3.9105,3.752,3.7472,3.6105,3.3597,3.3057,3.2046,3.0817,3.0744,3.0012,2.8886,2.8812,2.8081,2.6983,2.6983,2.6939,2.6837,2.6515,2.5871,2.5251,0.0,0.0,0.0,0.0,0.0,0.0,0.0,0.0,0.0,0.0,0.0,0.0,0.0,0.0,0.0,0.0,0.0,0.0,0.0,1.3505,1.3485,1.3607,1.3895,1.3995,1.375,1.4109,1.4931,1.605,1.6619,1.7053,1.7364,1.6903,1.6617,1.6259,1.6081,1.6798,1.8225,1.8225,1.8986,2.0188,1.8329,0.0,0.0,0.0,0.0,0.0,0.0,0.0,0.0,0.0,0.0,0.0,0.0,0.0,2.5985,2.6037,2.5571,2.5144,2.5117,2.4703,2.4275,2.4315,2.4315,2.4649,2.5985,2.5651,2.5197,2.5745,2.5865,2.5943,2.597,2.6914,2.7939,2.8733,2.9392,3.0027,3.07,3.1329,3.3059,3.679,3.7107,3.8341,4.1558,4.1133,4.0644,4.0625,4.0195,3.9941,3.9941,3.9922,3.9512,3.8691,3.9004,3.9004,3.8633,3.9473,3.9807,3.9618,3.7281,3.604,3.5638,3.2428,3.09,3.0803,3.051,2.9807,2.8871,2.8578,2.7891,2.6983,2.6983,2.6808,2.65,2.6164,2.5813,2.5584,0.0,0.0,0.0,0.0,0.0,0.0,0.0,0.0,0.0,0.0,0.0,0.0,0.0,0.0,0.0,0.0,0.0,0.0,0.0,1.3963,1.4084,1.4042,1.4405,1.4629,1.4795,1.5309,1.5969,1.688,1.7461,1.7596,1.738,1.8131,1.8189,1.7763,1.8745,1.9563,2.0128,2.0128,2.0478,2.092,1.9907,1.944,0.0,0.0,0.0,0.0,0.0,0.0,0.0,0.0,2.0956,2.2975,2.3181,2.4545,2.5956,2.5518,2.5117,2.4756,2.4583,2.4369,2.4329,2.4877,2.4476,2.4222,2.5317,2.5745,2.5959,2.6186,2.6373,2.664,2.7147,2.7831,2.848,2.921,2.9682,2.9881,2.9925,3.0656,3.2016,3.4409,3.6121,3.7789,3.9673,4.0471,4.0703,4.0176,3.9726,3.9453,3.9453,3.9219,3.8926,3.8594,3.873,3.873,3.8574,3.9453,3.9902,3.9902,3.7238,3.5994,3.5914,3.3495,3.2458,3.2443,3.232,3.1564,3.0408,2.9219,2.8037,2.6983,2.6983,2.7356,2.7879,2.7685,2.7893,2.8254,0.0,0.0,0.0,0.0,0.0,0.0,0.0,0.0,0.0,0.0,0.0,0.0,0.0,0.0,0.0,0.0,0.0,0.0,1.3838,1.4181,1.4358,1.4294,1.4831,1.5219,1.5544,1.6168,1.676,1.729,1.8492,1.8809,1.8254,1.9674,2.0017,1.9538,2.0688,2.1545,2.2028,2.2028,2.2304,2.2601,2.1693,2.1246,0.0,0.0,0.0,0.0,0.0,0.0,0.0,0.0,2.2148,2.3642,2.3818,2.4726,2.5585,2.509,2.473,2.4409,2.4035,2.3928,2.4075,2.4676,2.4502,2.4369,2.5064,2.5611,2.6079,2.6453,2.668,2.6934,2.7378,2.7956,2.8456,2.9105,2.9616,2.9851,2.9837,3.0495,3.1586,3.3331,3.5558,3.7299,3.828,3.9872,4.0469,3.9726,3.9258,3.9062,3.9199,3.8809,3.8574,3.8574,3.8574,3.8574,3.8574,3.9453,3.9902,3.9902,3.7789,3.6557,3.5914,3.3576,3.2623,3.2608,3.2865,3.2428,3.1315,3.0406,2.9436,2.8403,2.8403,2.8893,2.9628,2.9277,2.9558,3.0101,0.0,0.0,0.0,0.0,0.0,0.0,0.0,0.0,0.0,0.0,0.0,0.0,0.0,0.0,0.0,0.0,0.0,0.0,1.3838,1.3986,1.4137,1.428,1.4969,1.5537,1.5879,1.6657,1.7201,1.7396,1.9733,2.0618,2.0078,2.155,2.1935,2.1484,2.133,2.2189,2.3816,2.3816,2.4702,2.5854,2.3903,2.2927,2.2521,0.0,0.0,0.0,0.0,0.0,0.0,0.0,2.358,2.4669,2.5317,2.5304,2.5024,2.4716,2.4422,2.4075,2.3487,2.334,2.334,2.334,2.4222,2.5157,2.5464,2.5304,2.5424,2.6587,2.6827,2.6734,2.6453,2.7097,2.7731,2.8039,2.9085,3.0086,3.0715,3.1095,3.208,3.4245,3.5626,3.6818,3.7782,3.9109,3.9707,3.9238,3.8809,3.875,3.918,3.8809,3.8574,3.8574,3.8574,3.8574,3.8574,3.9453,3.9902,3.9922,3.8981,3.7675,3.5914,3.2428,3.0817,3.0856,3.1703,3.1794,3.1328,3.2117,3.2121,3.1508,3.1508,3.1508,3.1422,3.0669,3.0463,3.0545,0.0,0.0,0.0,0.0,0.0,0.0,0.0,0.0,0.0,0.0,0.0,0.0,0.0,0.0,0.0,0.0,0.0,0.0,1.4279,1.4506,1.4779,1.5044,1.5577,1.5849,1.5953,1.7646,1.8889,1.9545,2.0124,2.0721,2.1453,2.2844,2.3435,2.3201,2.4332,2.5171,2.5647,2.5452,2.5635,2.5932,2.5086,2.4646,2.4298,0.0,0.0,0.0,0.0,0.0,0.0,0.0,0.0,0.0,2.509,2.501,2.4716,2.4422,2.4275,2.4115,2.3741,2.3794,2.4088,2.4716,2.497,2.5317,2.6226,2.6373,0.0,2.7014,2.7295,2.7281,2.6787,2.7234,2.7675,2.7759,2.8755,2.9588,2.9778,3.029,3.0919,3.1572,3.4083,3.5742,3.5635,3.7952,3.9219,3.8789,3.8652,3.8633,3.875,3.8633,3.8574,3.8574,3.8574,3.8711,3.9004,3.9609,4.0039,4.0256,3.8812,3.7263,3.5583,3.4359,3.3556,3.3215,3.3221,3.3498,3.374,3.2081,3.1403,3.1474,3.1217,3.1913,3.3029,3.2151,3.2533,3.3369,0.0,0.0,0.0,0.0,0.0,0.0,0.0,0.0,0.0,0.0,1.4401,1.4387,0.0,0.0,0.0,0.0,0.0,0.0,0.0,1.5063,1.5226,1.5389,1.5801,1.6081,1.6146,1.8094,1.979,2.0939,2.1679,2.2256,2.2833,2.462,2.52,2.5029,2.6318,2.6787,2.656,2.6507,2.6358,2.601,2.5625,2.5344,2.505,0.0,0.0,0.0,0.0,0.0,0.0,0.0,0.0,0.0,0.0,0.0,2.4075,2.3901,2.3768,2.3688,2.3754,2.3981,2.4382,2.5144,2.5478,2.5812,2.664,2.6907,2.7054,2.7228,2.7402,2.7415,2.7068,2.7371,2.7675,2.7801,2.8698,2.9427,2.9544,3.0027,3.0475,3.0525,3.3581,3.5384,3.4776,3.7611,3.9219,3.8613,3.8574,3.8574,3.8574,3.8574,3.8574,3.8574,3.8574,3.8691,3.8945,3.959,4.0019,4.0273,3.9223,3.7477,3.5123,3.4121,3.3431,3.3066,3.3753,3.4558,3.5266,3.3454,3.2914,3.3203,3.2643,3.3243,3.4338,3.3491,3.3715,3.4355,0.0,0.0,0.0,0.0,0.0,0.0,0.0,0.0,0.0,0.0,1.451,1.4578,0.0,0.0,0.0,0.0,0.0,0.0,0.0,1.5586,1.5667,1.5471,1.5793,1.6204,1.6518,1.8355,2.011,2.172,2.3783,2.4602,2.4328,2.6336,2.7094,2.6881,2.7388,2.7321,2.6827,2.7028,2.6627,2.5852,2.5585,2.5304,2.4983,2.4449,0.0,0.0,0.0,0.0,0.0,0.0,0.0,0.0,2.3768,2.3567,2.3327,2.3327,2.3126,2.3046,2.3674,2.4008,2.4342,2.5064,2.5879,2.6587,2.6867,2.7134,2.7281,2.7201,2.7255,2.7281,2.7201,2.7453,2.7731,2.8011,2.8798,2.9486,2.9822,3.0225,3.0466,3.0788,3.3708,3.5429,3.4793,3.7662,3.9323,3.8633,3.8574,3.8574,3.8574,3.8574,3.8574,3.8574,3.8574,3.8613,3.8691,3.9453,3.9883,3.9961,3.9922,3.8066,3.4672,3.272,3.166,3.1397,3.3777,3.5304,3.5996,3.5527,3.5586,3.5879,3.498,3.4922,3.5234,3.4375,3.4082,3.4004,0.0,0.0,0.0,0.0,0.0,0.0,0.0,0.0,0.0,0.0,0.0,0.0,0.0,0.0,0.0,0.0,0.0,0.0,0.0,1.5856,1.5869,1.5891,1.5966,1.6624,1.8037,1.9875,2.1595,2.3338,2.4009,2.4911,2.5923,2.6613,2.7001,2.7161,2.7054,2.6934,2.6787,2.6159,2.5651,2.5264,2.5197,2.4997,2.4716,2.4596,2.4396,0.0,0.0,0.0,0.0,0.0,0.0,0.0,2.3701,2.3567,2.3327,2.3327,2.3287,2.3407,2.4222,2.4168,2.4275,2.6012,2.6934,2.7495,2.7789,2.7722,2.7415,2.672,2.7121,2.7388,2.6707,2.7179,2.7661,2.7731,2.8655,2.9486,2.9822,3.0225,3.0466,3.0788,3.236,3.3787,3.4603,3.63,3.769,3.854,3.8574,3.8574,3.8574,3.8574,3.8574,3.8574,3.8574,3.8906,3.9609,3.9434,3.9707,4.0391,4.0059,3.8309,3.5429,3.3487,3.2182,3.1629,3.4459,3.583,3.5957,3.5176,3.5117,3.543,3.4551,3.4473,3.4785,3.4258,3.4082,3.4004,0.0,0.0,0.0,0.0,0.0,0.0,0.0,0.0,0.0,0.0,0.0,0.0,0.0,0.0,0.0,0.0,0.0,0.0,0.0,0.0,1.8653,1.8491,1.8472,1.887,1.9836,2.1424,2.2795,2.3816,2.4696,2.5577,2.64,2.668,2.6907,2.7054,2.7188,2.7014,2.66,2.6279,2.5892,2.5478,2.5197,2.4983,2.4796,2.4382,2.4035,2.3768,2.3607,0.0,0.0,0.0,0.0,0.0,0.0,0.0,2.2926,2.306,2.3006,2.314,2.4243,2.4516,2.4823,2.6587,2.7161,2.7362,2.7655,2.7602,2.7321,2.672,2.6961,2.7134,2.668,2.7035,2.7333,2.7333,2.8182,2.895,2.9363,2.9829,3.0232,3.0554,3.1976,3.3306,3.4603,3.5922,3.7203,3.8521,3.8574,3.8574,3.8574,3.8574,3.8574,3.8574,3.8379,3.8594,3.9258,3.8809,3.8926,3.959,3.8945,3.7326,3.4768,3.3965,3.2842,3.1666,3.4954,3.6094,3.5664,3.498,3.4844,3.498,3.4101,3.4023,3.4336,3.3926,3.375,3.373,0.0,0.0,0.0,0.0,0.0,0.0,0.0,0.0,0.0,0.0,0.0,0.0,0.0,0.0,0.0,0.0,0.0,0.0,0.0,0.0,0.0,2.1233,2.1222,2.1383,2.1625,2.2814,2.3696,2.4215,2.5387,2.6132,2.6466,2.6707,2.6854,2.6921,2.7348,2.7121,2.64,2.648,2.6186,2.5611,2.5077,2.485,2.477,2.3995,2.3541,2.3313,2.326,0.0,0.0,0.0,0.0,0.0,0.0,0.0,2.2539,2.2792,2.2645,2.2726,2.4115,0.0,2.5504,2.6974,2.7121,0.0,2.7268,2.7308,2.7175,2.6881,2.6827,2.6814,2.676,2.6919,2.7114,2.7114,2.781,2.8475,2.879,2.9464,2.9968,3.0313,3.1594,3.2906,3.4127,3.5487,3.6886,3.8082,3.8428,3.8574,3.8574,3.8574,3.8535,3.8457,3.8105,3.8105,3.8457,3.8027,3.8027,3.8457,3.7598,3.6068,3.4051,3.4537,3.3671,3.1913,3.4802,3.5792,3.5234,3.4785,3.459,3.4512,3.373,3.3633,3.3926,3.3633,3.3496,3.3437,0.0,0.0,0.0,0.0,0.0,0.0,0.0,0.0,0.0,0.0,2.0153,2.1272,0.0,0.0,0.0,0.0,0.0,0.0,0.0,0.0,0.0,2.1222,2.1222,2.1947,2.3404,2.3459,2.4248,2.607,2.6014,2.6239,2.676,2.68,2.6961,2.7201,2.7014,2.6734,2.6346,2.5611,2.497,2.4409,2.4075,2.3941,2.3901,2.3527,2.3367,2.3287,2.302,2.2899,2.2941,2.2913,2.2899,0.0,0.0,0.0,2.2806,2.2914,2.2645,2.2632,2.3621,0.0,2.5812,0.0,2.7415,2.7281,0.0,0.0,2.7175,2.6881,2.6827,2.6747,2.6493,2.7025,2.7428,2.7428,2.8133,2.879,2.912,2.9595,2.9881,2.9925,3.0418,3.1154,3.2077,3.3657,3.5076,3.6423,3.7824,3.8574,3.8574,3.8574,3.8398,3.8027,3.7949,3.7949,3.8008,3.7598,3.7598,3.8008,3.7148,3.6087,3.486,3.594,3.5092,3.2907,3.3371,3.4029,3.4766,3.4336,3.416,3.4101,3.3613,3.3457,3.3555,3.3867,3.375,3.3476,0.0,0.0,0.0,0.0,0.0,0.0,0.0,0.0,0.0,0.0,0.0,2.2363,0.0,0.0,0.0,2.2031,0.0,0.0,0.0,0.0,0.0,2.4123,2.4123,2.4442,2.5263,2.4828,2.5205,2.6386,2.5932,2.6092,2.6827,2.6827,2.6894,2.7001,2.6707,2.6319,2.5865,2.5317,2.4836,2.4409,2.3955,2.3768,2.3741,2.3447,2.322,2.3046,2.2913,2.2928,2.2928,2.2928,2.2928,2.2928,2.2928,0.0,0.0,0.0,2.2766,2.2899,2.3968,2.4997,2.5999,0.0,2.7241,2.7295,2.7428,2.7362,2.7228,2.7094,2.7068,2.6987,2.668,2.6894,2.7068,2.7068,2.7637,2.8123,2.8264,2.9073,2.9588,2.9588,2.972,3.0316,3.1669,3.3055,3.4528,3.6108,3.7677,3.8574,3.8574,3.834,3.8125,3.793,3.7461,3.7344,3.7578,3.6914,3.668,3.6855,3.6484,3.5926,3.523,3.4834,3.4122,3.3175,3.4233,3.4595,3.4336,3.4141,3.3926,3.3691,3.3496,3.3418,3.3437,3.3633,3.3594,3.3457,0.0,0.0,0.0,0.0,0.0,0.0,0.0,0.0,0.0,0.0,0.0,0.0,0.0,0.0,0.0,0.0,2.459,0.0,0.0,0.0,0.0,2.6279,2.6279,2.6319,2.6386,2.5812,2.5758,2.6279,2.5692,2.5932,2.6934,2.6787,2.6867,2.7134,2.6694,2.6213,2.5705,2.5184,2.4836,2.4569,2.3834,2.3541,2.3514,2.33,2.306,2.2928,2.2928,2.2928,2.2928,2.2928,2.2928,2.2928,2.2928,2.2806,0.0,0.0,0.0,0.0,0.0,0.0,2.5531,2.656,2.6987,2.7188,0.0,0.0,2.7362,2.7281,2.7321,2.7308,2.7081,2.7041,2.7001,2.6841,2.7412,2.7764,2.7759,2.8669,2.9339,2.9266,2.9398,2.9903,3.098,3.2402,3.3854,3.542,3.707,3.8151,3.8418,3.8105,3.7832,3.7617,3.6992,3.6758,3.6973,3.6348,3.5976,3.5859,3.5859,3.5644,3.5215,3.404,3.3427,3.342,3.448,3.4572,3.3906,3.3906,3.3711,3.3418,3.3418,3.3418,3.3437,3.3535,3.3516,3.3437,0.0,0.0,0.0,0.0,0.0,0.0,0.0,0.0,0.0,0.0,0.0,0.0,2.7089,2.7301,2.7235,2.6571,2.6612,2.6534,2.6039,2.5718,0.0,2.605,2.605,0.0,2.6386,2.5812,2.5665,2.605,2.5384,2.5838,2.7228,2.668,2.7001,2.8127,2.7175,2.6627,2.6266,2.5144,2.4649,2.4529,2.338,2.2981,2.2913,2.2954,2.2873,2.2928,2.2928,2.2928,2.2928,2.2928,2.2928,2.2928,2.2928,2.2672,2.2445,0.0,0.0,0.0,0.0,2.3647,0.0,2.6253,2.6827,0.0,0.0,0.0,2.7602,2.7321,2.7482,2.7669,2.7655,2.7655,2.7468,2.6907,2.7769,2.8323,2.8109,2.8798,2.9266,2.8944,2.9456,2.9668,2.913,3.0809,3.2455,3.3693,3.5402,3.6827,3.7916,3.793,3.7559,3.6758,3.6699,3.6484,3.6094,3.6035,3.582,3.543,3.543,3.5176,3.4726,3.4661,3.4381,3.3947,3.2609,3.2561,3.3457,3.3457,3.3437,3.3418,3.3418,3.3418,3.3476,3.3887,3.3769,3.3476,0.0,0.0,0.0,0.0,0.0,0.0,0.0,0.0,0.0,0.0,0.0,0.0,0.0,2.7642,2.7455,2.6867,2.6653,2.6453,2.6253,2.6132,0.0,2.6226,2.6239,2.6279,2.6386,2.5999,2.5945,2.6239,2.5838,2.6106,2.6974,2.676,2.6894,2.7281,2.6961,2.6653,2.6306,2.513,2.4636,2.4529,2.334,2.2928,2.2914,2.2645,2.2458,2.2325,2.2512,2.2699,2.2968,2.31,2.3033,2.2899,2.31,2.2686,2.2138,2.2138,2.2124,0.0,0.0,0.0,0.0,2.5117,2.5838,2.6373,2.6774,2.7148,2.7388,2.7281,2.7642,2.7923,2.7736,2.7696,2.7562,2.7175,2.7755,2.8151,2.7843,2.8511,2.9017,2.89,2.909,2.9149,2.8915,3.0653,3.2333,3.3617,3.541,3.6849,3.7825,3.7676,3.7266,3.668,3.6406,3.6055,3.5625,3.5605,3.5391,3.4941,3.4941,3.4726,3.4297,3.4297,3.4062,3.3589,3.3059,3.3027,3.3418,3.3418,3.3418,3.3418,3.3418,3.3418,3.3437,3.3594,3.3555,3.3437,0.0,0.0,0.0,0.0,0.0,0.0,0.0,0.0,2.7963,2.7939,0.0,0.0,0.0,0.0,2.7215,2.672,2.6413,2.6239,2.6239,2.6146,2.6132,2.6239,2.6239,2.6293,2.6386,2.6012,2.5905,2.6092,2.5798,2.5959,2.6533,2.6627,2.6787,2.6961,2.6867,2.6707,2.6453,2.5277,2.4836,2.4823,2.3541,2.302,2.302,2.302,2.2779,2.2498,2.2993,2.3166,2.3193,2.3407,2.3207,2.2899,2.31,2.2565,2.1817,2.1724,2.183,2.2004,2.2098,0.0,0.0,0.0,0.0,2.5424,2.6213,0.0,2.6907,2.7201,2.7655,2.7963,2.7869,2.7843,2.7722,2.7321,2.7825,2.8103,2.7843,2.8339,2.8861,2.89,2.8988,2.9047,2.9047,3.026,3.176,3.3729,3.4953,0.0,3.7611,3.7461,3.6973,3.6269,3.623,3.5976,3.541,3.5684,3.5527,3.4922,3.4922,3.4629,3.4082,3.4082,3.3828,3.3418,3.3418,3.3418,3.3418,3.3418,3.3418,3.3418,3.3418,3.3418,3.3418,3.3418,3.3418,3.3418,0.0,0.0,0.0,0.0,0.0,0.0,0.0,0.0,2.7589,2.7308,0.0,0.0,0.0,0.0,0.0,2.6426,2.6132,2.605,2.605,2.5692,2.5665,2.6037,0.0,0.0,2.6386,2.5825,2.5531,2.5531,2.5237,2.5398,2.6037,2.6239,2.668,2.7215,2.6907,2.6774,2.6707,2.5571,2.5237,2.5371,2.3928,2.3354,2.3407,2.3968,2.3821,2.342,2.4289,2.4249,2.3768,2.3781,2.338,2.2928,2.2887,2.2298,2.1574,2.1203,2.1122,2.1189,0.0,0.0,0.0,0.0,0.0,0.0,2.5905,0.0,2.6146,2.7028,2.7455,2.7749,2.8154,2.8221,2.8047,2.7388,2.7852,2.8235,2.8099,2.8429,2.8791,2.8851,2.9164,2.9354,2.9354,2.9383,3.0696,3.3915,3.3898,3.4783,3.7132,3.7266,3.668,3.543,3.6191,3.623,3.5371,3.6172,3.6172,3.5332,3.5332,3.4883,3.4043,3.4043,3.3789,3.3379,3.3398,3.3398,3.3398,3.3418,3.3418,3.3418,3.3418,3.3418,3.3418,3.3418,3.3418,3.3418,0.0,0.0,0.0,0.0,0.0,2.8154,2.7856,2.7749,2.7589,0.0,0.0,0.0,2.676,2.6587,2.656,2.6694,2.644,2.6266,2.6266,2.6186,2.6186,2.6266,2.6266,2.6306,2.6386,2.6026,2.5838,2.5838,2.5758,2.5876,2.6037,2.6117,2.6159,2.6372,2.5785,2.5678,2.5838,2.5304,2.513,2.513,2.4289,2.3834,2.3661,2.3834,2.3514,2.3046,2.3527,2.3728,2.3808,2.4008,2.3541,2.278,2.1857,2.1724,2.1764,2.1256,2.1256,2.1403,2.1269,0.0,0.0,0.0,0.0,0.0,0.0,0.0,2.469,2.5772,2.64,2.6974,2.7696,2.8003,2.8167,2.8006,2.8122,2.8235,2.8099,2.8429,2.8791,2.8851,2.8973,2.9017,2.9017,2.9456,3.0389,0.0,3.3547,3.4766,3.5547,3.6054,3.6074,3.541,3.5625,3.5332,3.4453,3.4668,3.4512,3.3965,3.3965,3.3672,3.3144,3.3144,3.291,3.2539,3.2832,3.2969,3.2988,3.3301,3.3418,3.3418,3.3418,3.3418,3.3418,3.3418,3.3418,3.3418,0.0,0.0,0.0,0.0,0.0,2.8167,2.7909,2.7776,2.7589,0.0,0.0,0.0,2.6694,2.66,2.6587,2.664,2.6493,2.6386,2.6386,2.6386,2.6386,2.6386,2.6386,2.6333,2.6213,2.5919,2.5705,2.5585,2.5705,2.5705,2.5598,2.5838,2.597,2.5758,2.5411,2.5367,2.5558,2.5383,2.5308,2.517,2.4222,2.3808,2.3781,2.3901,2.35,2.3048,2.3915,2.4195,2.4155,2.4329,2.3794,2.2846,2.167,2.1523,2.1737,2.139,2.1323,2.1336,2.1162,2.1229,2.147,2.1884,0.0,0.0,2.2913,2.3073,2.3434,2.485,2.5411,2.5919,2.6814,2.7108,2.735,2.7388,2.7621,2.7744,2.8011,2.8113,2.8358,2.8805,2.8739,2.8904,2.9456,2.9471,3.0111,3.1636,3.3122,3.4491,3.559,3.5885,3.5742,3.5117,3.5469,3.5137,3.4082,3.4434,3.4316,3.3691,3.3691,3.3379,3.2793,3.2793,3.2559,3.2187,3.2422,3.2539,3.2559,3.2793,3.3008,3.3164,3.3164,3.3164,3.3184,3.3359,3.3418,3.3418,0.0,0.0,2.8167,2.814,2.8154,2.8167,2.814,2.7816,2.7549,0.0,2.6961,2.6707,2.6547,2.668,2.668,2.6453,2.6413,2.6386,2.6386,2.6386,2.6373,2.6346,2.6346,2.6199,2.5919,2.5611,2.5344,2.5077,2.5344,2.5317,2.5037,2.5598,2.5692,2.5371,2.5371,2.5451,2.5507,2.5554,2.5479,2.534,2.4093,2.3745,2.4013,2.434,2.3897,2.3359,2.4945,2.5085,2.4529,2.4422,2.3901,2.3073,2.1924,2.1614,2.1628,2.1655,2.139,2.1162,2.1162,2.1162,2.1283,2.1764,2.1323,0.0,2.2378,2.2285,2.2405,2.4048,2.4409,2.4716,2.5638,2.5838,2.5945,2.6199,2.6547,2.7042,2.7744,2.7675,2.7845,2.8682,2.8504,2.882,3.0159,2.9456,2.9777,3.1715,3.2413,3.3797,3.6282,3.6044,3.5403,3.4726,3.5469,3.5273,3.4004,3.4785,3.4746,3.3926,3.3887,3.3437,3.2656,3.2598,3.2383,3.2031,3.207,3.209,3.209,3.209,3.2344,3.2734,3.2773,3.2793,3.2832,3.3223,3.3379,3.3418,0.0,2.7629,2.7709,2.7482,2.7629,2.7709,2.7468,2.7388,2.7241,2.6947,2.6653,2.672,2.7375,2.6867,2.6547,2.672,2.652,2.6386,2.6386,2.6386,2.6279,2.613,2.6117,2.5905,2.5598,2.5317,2.5144,2.5077,2.5144,2.501,2.473,2.509,2.497,2.4462,2.4462,2.4495,2.4501,2.4562,2.4702,2.4902,2.546,2.5497,2.5357,2.5695,2.5427,2.4899,2.5188,2.4946,2.4178,2.3169,2.2899,2.2792,2.1909,2.1614,2.1668,2.183,2.1697,2.1534,2.1534,2.1534,2.1443,2.1309,2.1336,0.0,2.1443,2.155,2.1871,2.2686,2.3046,2.3554,2.469,2.509,2.5264,2.5331,2.5972,2.6746,2.7444,2.7729,2.808,2.8711,2.8704,2.8892,2.9544,2.9398,2.9277,2.9204,2.9903,3.1649,3.4648,3.4487,3.4369,3.4661,3.4863,3.4512,3.3555,3.3711,3.3555,3.3047,3.2695,3.2266,3.1758,3.1406,3.1211,3.1152,3.1504,3.1641,3.1641,3.1641,3.1894,3.2324,3.2656,3.2793,3.2812,3.2891,3.3125,3.3379,2.7268,2.7375,2.7482,2.7482,2.7602,2.7696,2.7709,2.7575,2.7428,2.7281,2.7014,2.6934,2.7228,2.6867,2.66,2.66,2.6466,2.6386,2.6386,2.6253,2.6106,2.6037,2.5812,2.5665,2.5518,2.5224,2.5077,2.5077,2.493,2.4783,2.4636,2.4636,2.4409,2.3981,2.3981,2.4116,2.4337,2.4701,2.5152,2.5562,2.5394,2.5194,2.5063,2.5266,2.5044,2.468,2.4917,2.486,2.4439,2.3474,2.3228,2.3228,2.2284,2.1884,2.183,2.2111,2.2028,2.1835,2.1789,2.1894,2.1957,2.1467,2.1336,0.0,0.0,2.0895,2.1096,2.183,2.1871,2.2084,2.3126,2.3434,2.3634,2.3928,2.4596,2.5313,2.5986,2.681,2.7757,2.8801,2.8485,2.8611,2.9822,2.9427,2.9242,2.9519,2.9653,3.0703,3.3073,3.3563,3.3737,3.3634,3.4293,3.4277,3.3437,3.3418,3.3105,3.248,3.2266,3.1836,3.1191,3.0996,3.0898,3.0898,3.1113,3.1211,3.1211,3.1211,3.1328,3.1582,3.1992,3.2148,3.2187,3.2402,3.2754,3.3086,2.7028,2.7148,2.7241,2.7415,2.7495,2.7615,2.7856,2.7682,2.7535,2.7535,2.7281,2.7054,2.6921,2.676,2.6587,2.64,2.6293,2.6239,2.6306,2.6039,2.5892,2.6037,2.5611,2.5424,2.5424,2.5144,2.4997,2.4997,2.4703,2.4529,2.4462,2.4222,2.3928,2.3594,2.3732,2.4031,2.454,2.5073,2.5625,2.6142,2.5087,2.4679,2.4735,2.4805,2.4537,2.4226,2.4511,2.4638,2.4498,2.4095,2.3914,2.3763,2.3066,2.2552,2.2323,2.262,2.2481,2.2281,2.232,2.2508,2.2665,2.2049,2.169,2.1447,0.0,0.0,0.0,2.1253,0.0,0.0,0.0,0.0,0.0,0.0,0.0,0.0,0.0,2.5625,0.0,2.8353,2.7871,2.8061,2.9821,2.9251,2.9133,3.008,2.9622,2.992,3.1498,3.2491,3.2849,3.2484,3.3681,3.4018,3.3437,3.3418,3.3008,3.2229,3.2229,3.1719,3.0898,3.0898,3.0898,3.0898,3.0898,3.0898,3.0898,3.0898,3.0898,3.0937,3.1348,3.1523,3.1562,3.2012,3.2441,3.2793,2.6373,2.6694,2.68,2.6573,2.6747,2.6934,2.6961,2.6947,2.6921,2.6921,2.6667,2.668,2.7161,2.652,2.6146,2.6373,2.5919,2.5732,2.6063,2.5732,2.5678,2.6023,2.5424,2.513,2.513,2.4836,2.469,2.469,2.4396,2.4115,2.3875,2.3834,2.3514,2.3048,2.3525,2.4129,2.4768,2.4932,2.5184,2.554,2.5722,2.5781,2.5741,2.6098,2.5702,2.4887,2.4334,2.3861,2.3705,2.3908,2.4008,2.405,2.4177,2.3842,2.337,2.3744,2.3395,2.2976,2.3231,2.3577,2.3646,2.306,2.3102,2.2915,2.1828,0.0,2.1583,2.0583,0.0,0.0,0.0,0.0,0.0,0.0,0.0,0.0,2.4168,2.4609,2.5254,2.637,2.6412,2.6932,2.8425,2.8231,2.8037,2.8234,2.7895,2.8412,2.992,3.009,3.0855,3.2436,3.2666,3.2955,3.3437,3.3418,3.3008,3.2229,3.2229,3.1719,3.0898,3.0898,3.0898,3.0898,3.0898,3.0898,3.0898,3.0898,3.0898,3.0937,3.1348,3.1523,3.1562,3.2012,3.2441,3.2793,2.6052,2.6239,2.6386,2.66,2.6747,2.6881,2.7054,2.7081,2.7081,2.7081,2.6827,2.6867,2.7455,2.6881,2.6573,2.6867,2.652,2.6319,2.6453,2.5865,2.5798,2.6426,2.5411,2.5064,2.5571,2.4796,2.4462,2.4636,2.4008,2.3634,2.3514,2.3327,2.31,2.2941,2.3596,2.4148,2.4608,2.5456,2.5626,2.5461,2.586,2.5513,2.495,2.5655,2.5461,2.473,2.4276,2.3992,2.3855,2.3733,2.3994,2.4181,2.3753,2.356,2.3518,2.3644,2.3511,2.3445,2.3908,2.413,2.4125,2.3472,2.3266,2.2921,2.1937,2.1763,2.1749,2.1176,0.0,0.0,0.0,0.0,0.0,0.0,2.183,0.0,0.0,0.0,2.3725,0.0,0.0,0.0,2.7415,2.7056,2.6983,2.7364,2.6925,2.6993,2.7822,2.9456,3.0609,3.1123,3.2644,3.3443,3.3418,3.3184,3.2754,3.2229,3.1914,3.1465,3.0898,3.0898,3.0898,3.0898,3.0898,3.0898,3.0898,3.0898,3.0898,3.0918,3.1094,3.1152,3.1172,3.1367,3.1699,3.209,2.5651,2.5929,2.6092,2.6507,2.6653,2.6774,2.6987,2.7028,2.7028,2.7028,2.6841,2.6987,2.7736,2.7228,2.7001,2.7468,2.7014,2.6707,2.6707,2.5959,2.5865,2.6667,2.5531,2.5144,2.5705,2.4796,2.4342,2.4396,2.3674,2.3397,2.3453,2.3294,2.3186,2.3337,2.397,2.4484,2.5045,2.5913,2.6127,2.593,2.59,2.5154,2.4145,2.4759,2.4715,2.4276,2.4027,2.3896,2.3787,2.3789,2.407,2.4262,2.3776,2.3587,2.3629,0.0,0.0,0.0,2.4377,2.4542,2.4448,2.4274,2.3714,2.3134,2.249,2.2222,2.199,2.1746,2.136,0.0,0.0,0.0,2.0875,2.107,0.0,2.1719,0.0,2.1724,0.0,0.0,0.0,0.0,0.0,2.6254,2.6266,2.6574,2.6149,2.5988,2.6222,2.8649,3.0036,3.0071,3.2179,3.3289,3.3262,3.2832,3.2402,3.1992,3.168,3.1289,3.0898,3.0898,3.0898,3.0898,3.0898,3.0898,3.0898,3.0898,3.0898,3.0898,3.0898,3.0898,3.0918,3.1152,3.1426,3.1777,2.505,2.5571,2.6037,2.5985,2.6213,2.6413,2.6413,2.6413,2.6413,2.6413,2.6413,2.6841,2.8087,2.7348,2.7175,2.8127,2.7068,2.64,2.64,2.5838,2.5785,2.6373,2.5812,2.5371,2.5117,2.4783,2.4356,2.3794,2.3487,2.3523,2.3858,2.3844,2.4053,2.44,2.476,2.5483,2.6314,2.6082,2.6398,2.6866,2.593,2.4964,2.4057,2.3764,2.3647,2.3618,2.3618,2.3413,2.3281,2.4232,2.4349,0.0,0.0,0.0,0.0,0.0,0.0,0.0,0.0,2.4832,2.4803,2.567,2.4955,2.4094,2.4041,2.3493,2.2814,2.1906,2.1956,2.197,2.1306,2.1194,2.138,2.1952,2.1806,0.0,0.0,0.0,0.0,0.0,0.0,0.0,0.0,2.5923,2.6237,2.5622,2.5564,2.5549,2.5564,2.6907,2.8302,2.9646,3.0716,3.1813,3.2812,3.2402,3.1973,3.1543,3.1523,3.1289,3.0898,3.0898,3.0898,3.0898,3.0898,3.0898,3.0898,3.0898,3.0898,3.0898,3.0898,3.0898,3.0996,3.1816,3.219,3.2266,2.477,2.5104,2.5438,2.5625,2.5745,2.5879,2.6066,2.6266,2.66,2.7175,2.7094,2.7495,2.8885,2.8417,2.8123,2.843,2.7896,2.7388,2.7001,2.66,2.656,2.6947,2.6413,2.5865,2.5371,2.5077,2.4449,2.3474,2.338,2.3429,2.3557,2.3831,2.3956,2.412,2.4958,2.5469,2.5784,2.6415,2.6296,2.5608,2.4408,2.3603,2.3149,2.3471,2.3588,2.3574,2.3354,2.3208,0.0,2.3486,2.3823,2.4042,2.3837,2.391,2.4042,2.3823,2.3837,2.4086,0.0,0.0,2.5031,2.5301,2.473,2.4057,2.3825,2.3557,2.3281,2.2721,2.2706,2.2609,2.1982,2.1855,2.1714,2.1513,0.0,0.0,0.0,0.0,0.0,0.0,0.0,0.0,0.0,0.0,0.0,2.394,2.3735,2.3793,2.4232,2.6582,2.8221,2.8977,3.088,3.2027,3.2383,3.1953,3.166,3.1504,3.123,3.1035,3.0898,3.0898,3.0898,3.0898,3.0898,3.0898,3.0898,3.0898,3.0898,3.0898,3.0898,3.123,3.1738,3.1738,3.1738,3.1855,2.4636,2.4796,2.501,2.5304,2.5531,2.5732,2.601,2.6466,2.6987,2.7335,2.7589,2.815,2.9205,2.8991,2.8845,2.9058,2.8604,2.8096,2.7615,2.7108,2.6907,2.7094,2.6653,2.6119,2.5531,2.5331,2.4756,2.3794,2.3829,2.395,2.4094,2.4441,2.4652,2.4647,2.5524,2.5709,2.5522,2.6401,2.6208,2.5125,2.3925,2.312,2.2667,2.3091,2.3325,2.3398,0.0,2.3106,2.3106,2.3106,2.3384,2.3662,2.3237,2.3398,2.3691,2.3486,2.3647,2.4057,2.4701,2.4782,0.0,2.511,2.4481,0.0,2.391,0.0,2.3706,0.0,0.0,0.0,0.0,0.0,0.0,0.0,0.0,0.0,0.0,1.988,0.0,0.0,0.0,0.0,0.0,0.0,2.3091,2.2637,2.2301,2.2403,0.0,2.5863,2.7751,2.8396,3.0704,3.1934,3.1934,3.1504,3.1289,3.1289,3.1016,3.0898,3.0898,3.0898,3.0898,3.0898,3.0898,3.0898,3.0898,3.0898,3.0898,3.0898,3.0898,3.1328,3.1914,3.1797,3.1934,3.2266,2.4596,2.4609,2.4703,2.4983,2.5504,2.5905,2.601,2.6894,2.7455,2.6974,2.7896,2.8738,2.9072,2.9085,2.9299,2.9847,2.9125,2.8484,2.8221,2.7335,2.6854,2.68,2.656,2.6146,2.5531,2.5531,2.5237,2.4636,2.4766,2.4977,2.5338,2.5783,2.5955,2.5988,2.6325,2.6105,2.552,2.6164,2.6047,2.5374,2.4437,2.3486,2.2652,2.2713,2.2904,2.3168,2.3091,2.3091,2.3106,2.3076,2.3091,2.3106,2.3076,2.3091,2.3106,2.3091,2.3388,2.3799,2.4415,2.4136,2.3975,2.5154,2.4291,0.0,0.0,0.0,2.4057,0.0,0.0,0.0,0.0,0.0,0.0,0.0,0.0,0.0,0.0,0.0,1.9618,0.0,0.0,0.0,0.0,2.3134,2.2974,2.1715,2.132,2.1423,0.0,2.4694,2.6762,2.7997,3.0256,3.1484,3.1484,3.1094,3.0898,3.0898,3.0898,3.0898,3.0898,3.0898,3.0898,3.0898,3.0898,3.0898,3.0898,3.0898,3.0898,3.0898,3.0898,3.1152,3.1601,3.2031,3.2734,3.3457,2.4035,2.4168,2.4342,2.4409,2.473,2.5117,2.5558,2.6253,2.7068,2.803,2.8417,2.8965,2.9913,2.982,2.9659,2.9606,2.9179,2.8604,2.7856,2.7602,2.7175,2.6533,2.6854,2.656,2.5531,2.5732,2.559,2.5139,2.4911,2.5122,2.5855,0.0,0.0,0.0,0.0,2.5652,2.4847,2.5257,2.5052,2.4408,2.3925,2.3427,2.3098,0.0,2.4501,2.4425,2.3197,2.2901,2.3032,2.2579,2.2725,2.3032,2.2564,2.274,2.3062,2.2813,2.382,2.4809,2.405,2.4589,2.5239,2.4627,2.3954,2.353,0.0,0.0,0.0,0.0,0.0,0.0,0.0,0.0,0.0,0.0,0.0,0.0,0.0,1.9652,1.9598,2.0196,0.0,0.0,2.1469,2.1893,2.1745,2.0691,2.0311,2.053,2.1408,0.0,2.614,2.691,2.9605,3.1055,3.1055,3.0937,3.0898,3.0898,3.0898,3.0898,3.0898,3.0898,3.0898,3.0898,3.0898,3.0898,3.0898,3.0898,3.0898,3.0898,3.0898,3.1348,3.2051,3.248,3.3184,3.3906,2.4008,2.4259,2.448,2.4458,2.4655,2.5066,2.5772,2.64,2.7121,2.8083,2.8671,2.9138,2.9553,2.978,2.9806,2.9513,2.9205,2.8711,2.7936,2.7655,2.7228,2.66,2.6774,2.6573,2.5905,2.5932,2.5936,2.5814,2.546,2.5604,2.6328,0.0,0.0,0.0,0.0,2.5403,2.4364,2.4554,2.4496,2.4247,2.3779,2.3398,0.0,2.4408,2.499,2.5024,2.4477,2.4416,2.4466,2.4149,2.4275,2.445,2.4149,2.4385,2.4747,2.4401,2.5269,2.6189,2.5517,2.5975,2.6498,2.5755,2.4935,2.4295,2.4369,2.4034,2.3588,0.0,2.3457,2.3267,0.0,0.0,0.0,0.0,0.0,0.0,2.0164,1.9929,1.9915,2.0261,2.0833,0.0,2.0934,2.1234,2.1072,2.0106,2.012,2.0748,0.0,0.0,2.6013,2.7246,2.9636,3.0605,3.0039,3.0976,3.1074,3.0312,3.0703,3.0898,3.0898,3.0898,3.0898,3.0898,3.0898,3.0898,3.0898,3.0898,3.0898,3.0918,3.1309,3.1738,3.2266,3.3066,3.3652,3.4101,2.4834,2.5003,2.513,2.5052,2.5194,2.5582,2.6506,2.7014,2.7482,2.7936,2.8898,2.9366,2.8885,2.9486,2.9806,2.9513,2.9205,2.8791,2.8261,2.7712,2.7175,2.6841,2.6587,2.6426,2.6386,2.6066,2.6125,2.6512,2.5927,2.6034,0.0,0.0,0.0,0.0,0.0,0.0,0.0,2.4101,2.4247,2.4452,2.3881,2.3471,2.326,2.4268,2.4862,2.5269,2.6338,2.6651,2.6491,2.6388,2.6388,2.6405,2.6319,2.6593,2.685,2.6405,2.691,2.7651,2.7415,2.7494,2.7651,2.7467,2.6388,2.5397,2.564,2.4842,2.4048,2.4218,2.3754,2.3278,2.3047,0.0,0.0,0.0,0.0,2.1002,2.0061,2.0159,2.0371,2.0329,2.1114,0.0,0.0,2.1031,2.0867,1.9901,2.0311,0.0,0.0,0.0,2.5922,2.7927,2.9776,3.0254,2.9277,3.1094,3.1328,3.0,3.0605,3.0898,3.0898,3.0898,3.0898,3.0898,3.0898,3.0898,3.0898,3.0898,3.0898,3.0976,3.1894,3.2307,3.2402,3.375,3.4238,3.4297,2.7493,2.679,2.6294,2.6396,2.5932,2.6022,2.7631,2.7722,2.8083,2.9366,2.9713,2.99,3.0034,2.9967,2.9806,2.9513,2.9205,2.8791,2.8261,2.7816,2.7375,2.6841,2.6774,2.664,2.6386,2.5865,2.5968,2.6641,2.5545,2.5342,0.0,0.0,0.0,0.0,0.0,0.0,2.4466,2.4203,0.0,2.4159,2.4042,2.3808,2.3598,2.4626,2.5085,2.533,2.7287,2.7535,2.6816,2.6241,2.6241,2.6319,2.5778,2.5977,2.6329,2.5645,2.6953,2.8343,2.6952,2.7628,2.8415,2.7349,2.6891,2.6675,2.6743,2.656,2.6088,2.5122,2.4842,2.4317,2.2939,0.0,0.0,0.0,0.0,2.138,2.063,2.063,2.0587,2.0344,2.0916,2.1061,0.0,0.0,2.1203,2.0223,2.0018,0.0,0.0,0.0,0.0,0.0,2.859,0.0,0.0,0.0,3.1484,3.2226,3.1328,3.0898,3.0898,3.0898,3.0898,3.0898,3.0898,3.0898,3.0898,3.0898,3.0898,3.1016,3.2207,3.2676,3.2891,3.4551,3.5156,3.5176,2.9244,2.8135,2.7216,2.7753,2.7076,2.6854,2.8382,2.8617,2.8885,2.9593,2.9553,2.9513,2.9659,2.9998,3.015,2.9853,2.9817,2.9312,2.8395,2.8221,2.7785,2.6946,2.7064,2.7155,2.7018,2.658,2.642,2.6546,2.5611,2.5268,2.5505,0.0,0.0,0.0,0.0,2.4554,0.0,0.0,0.0,2.4554,2.4218,2.3984,2.3922,2.4782,2.5071,2.5285,2.7038,2.733,2.7116,2.7875,2.8265,2.8263,2.7731,2.8118,2.8538,2.7711,2.8668,2.9747,2.8935,2.9322,2.9785,2.9194,2.8522,2.7966,2.7966,2.7486,2.684,2.6233,2.6111,2.5813,2.4775,2.4141,0.0,0.0,2.2677,2.1949,2.1278,2.1423,2.1351,2.0815,2.122,2.1249,0.0,0.0,0.0,0.0,0.0,0.0,0.0,0.0,0.0,0.0,0.0,0.0,2.9844,0.0,0.0,3.0781,3.0859,3.0898,3.0898,3.0898,3.0898,3.0898,3.0898,3.0898,3.0898,3.0898,3.1152,3.1641,3.2461,3.3066,3.3613,3.4922,3.5391,3.543,3.0771,2.9399,2.8177,2.8973,2.8172,2.785,2.8944,2.9467,2.9824,3.0012,2.9716,2.9488,2.9576,3.0281,3.0643,3.0285,3.0372,2.987,2.8689,2.8673,2.8256,2.7396,2.7616,2.7703,2.7633,2.7269,2.6895,2.6399,2.5626,2.5132,0.0,0.0,0.0,0.0,0.0,0.0,0.0,0.0,2.4826,2.5075,2.4423,2.4145,2.4142,2.4609,2.4765,2.4826,2.6111,2.6779,2.7331,2.9273,2.9853,2.9775,2.9651,3.0117,3.0566,2.9687,3.0117,3.0859,3.0762,3.082,3.0898,3.0898,3.0098,2.9316,2.9223,2.8509,2.7709,2.7339,2.7134,2.6953,2.673,2.6017,0.0,0.0,0.0,0.0,0.0,2.1993,2.1993,0.0,0.0,0.0,2.0603,0.0,0.0,0.0,0.0,0.0,2.3785,0.0,0.0,0.0,0.0,2.9414,2.8848,0.0,3.0976,2.9746,3.0527,3.0898,3.0898,3.0898,3.0898,3.0898,3.0898,3.0898,3.0898,3.0996,3.1426,3.209,3.2695,3.3398,3.418,3.5059,3.5449,3.5566,3.279,3.0897,2.9274,2.97,2.9097,2.8778,2.9373,3.0042,3.0786,3.159,3.1208,3.1034,3.1485,3.1366,3.1003,3.0403,3.0419,3.0125,2.9398,2.9145,2.8823,2.8501,2.8207,2.7927,2.7647,2.706,2.6594,2.6399,2.5183,2.4468,0.0,0.0,0.0,0.0,0.0,0.0,0.0,2.4767,2.4826,2.509,2.4671,2.4349,2.4042,2.3819,2.3558,2.3479,2.4826,2.605,2.7185,2.8569,2.8803,2.8607,2.935,2.9883,3.0098,2.9238,2.9883,3.0801,3.0371,3.0566,3.0898,3.0898,3.082,3.0587,3.0179,3.0354,3.0101,2.852,2.7558,2.7107,2.7337,2.6858,2.5939,0.0,0.0,0.0,0.0,0.0,2.2125,2.0911,0.0,0.0,2.0087,2.0413,0.0,0.0,2.101,0.0,0.0,0.0,0.0,2.7117,2.7656,2.8789,3.0625,3.0098,3.0703,3.2422,3.1387,3.0898,3.0898,3.0898,3.0898,3.0898,3.0898,3.0898,3.0918,3.1309,3.1504,3.1699,3.2891,3.3652,3.418,3.5059,3.5625,3.5976,3.3003,3.1411,3.0295,3.1214,3.0142,2.9534,3.0432,3.0509,3.0913,3.1918,3.154,3.1332,3.1511,3.1511,3.1405,3.1149,3.1038,3.0623,2.9942,2.9678,2.9263,2.8707,2.8633,2.8547,2.8339,2.7923,2.7366,2.6765,2.5662,2.4873,0.0,0.0,0.0,0.0,0.0,2.4393,2.4774,2.4899,2.5002,2.5075,2.4496,2.4203,2.4027,2.3501,2.3223,2.3293,2.4641,2.5439,2.6156,2.8206,2.93,2.9891,2.9907,3.0254,3.0488,2.9863,3.0254,3.0859,3.0664,3.0762,3.0898,3.0898,3.0684,3.0488,3.0586,3.0547,3.0373,2.9948,2.9554,2.9368,2.9517,2.8805,2.7931,2.6981,0.0,0.0,0.0,0.0,0.0,2.2941,0.0,2.3143,0.0,2.1515,0.0,0.0,0.0,0.0,0.0,0.0,0.0,2.7721,0.0,2.9336,3.0469,3.0117,3.0527,3.1641,3.1133,3.1152,3.1641,3.1133,3.0898,3.0898,3.0898,3.1035,3.1269,3.1172,3.1738,3.2715,3.3223,3.4023,3.4941,3.5547,3.5879,3.6016,3.3435,3.1823,3.0829,3.1697,3.0895,3.0276,3.0955,3.0914,3.1053,3.1637,3.1505,3.1404,3.1685,3.1854,3.1829,3.1642,3.1553,3.1073,3.0314,3.001,2.9639,2.9,2.8904,2.8886,2.8886,2.8505,2.7861,2.6983,2.6003,0.0,0.0,0.0,0.0,0.0,2.4466,2.4627,2.473,2.5031,2.5119,2.509,2.4554,2.4247,2.4027,2.3574,2.3281,2.3293,2.4641,2.5317,2.5973,2.8146,2.9785,3.082,3.0351,3.0508,3.0801,3.0332,3.0527,3.0898,3.0898,3.0898,3.0898,3.0898,3.0644,3.041,3.0488,3.0449,3.0488,3.082,3.0898,3.0898,3.0898,3.0441,2.9628,2.852,0.0,0.0,0.0,2.5891,0.0,2.4159,2.4105,2.4056,2.3494,2.2526,0.0,0.0,0.0,0.0,0.0,0.0,0.0,0.0,0.0,0.0,2.9805,2.9941,3.0371,3.1074,3.1211,3.1582,3.2148,3.1406,3.1152,3.125,3.0996,3.1211,3.168,3.1387,3.2051,3.3262,3.3516,3.4258,3.5234,3.5684,3.5918,3.6016,3.4526,3.2396,3.0587,3.0767,3.1009,3.1102,3.0835,3.1394,3.1536,3.0753,3.1062,3.1685,3.2675,3.2763,3.25,3.1856,3.1798,3.1388,3.0504,3.0123,2.972,2.9398,2.9061,2.8886,2.8886,2.8271,2.7642,2.6983,0.0,0.0,2.4554,0.0,2.4247,2.4569,2.4569,2.4744,2.5119,2.5119,2.5119,2.5119,2.5119,2.4657,2.4086,2.4071,2.3676,2.3293,2.4641,2.5928,2.7203,2.8444,2.9785,3.082,3.0351,3.0508,3.0801,3.0332,3.0527,3.0898,3.0898,3.0898,3.0898,3.0898,3.0879,3.0664,2.9785,3.0254,3.0879,3.0898,3.0898,3.0898,3.0898,3.123,3.0797,2.8811,0.0,0.0,0.0,2.5645,0.0,2.3747,2.4119,2.4173,2.3203,2.3083,0.0,0.0,0.0,0.0,0.0,0.0,0.0,2.7012,2.7031,0.0,2.8926,2.9355,3.0234,3.1523,3.1953,3.2209,3.2148,3.1719,3.1738,3.217,3.125,3.1367,3.2168,3.2209,3.2402,3.2891,3.373,3.4336,3.4766,3.5234,3.5664,3.6016,3.4357,3.3568,3.2895,3.1638,3.1463,3.1436,3.1129,3.1088,3.1123,3.0999,3.0753,3.0757,3.1461,3.1339,3.1353,3.149,3.1256,3.0905,3.0475,3.0123,2.972,2.9398,2.9061,2.8886,2.8886,2.8271,2.7771,2.7642,0.0,0.0,0.0,2.4803,2.487,2.4973,2.4973,2.5031,2.5119,2.5119,2.5119,2.5105,2.4885,2.4466,2.4057,2.3837,2.4041,2.4641,2.5928,2.7185,2.8504,2.9844,3.0528,3.0859,3.0723,3.0762,3.0859,3.0703,3.0781,3.0898,3.0898,3.0898,3.0898,3.0898,3.0644,3.043,3.0469,3.0684,3.0898,3.0898,3.0898,3.0898,3.0898,3.123,3.1112,2.9872,3.0525,0.0,2.7919,0.0,2.8051,2.6548,2.6308,2.6252,2.6243,2.5527,0.0,0.0,0.0,0.0,0.0,0.0,0.0,0.0,2.8887,0.0,3.0684,3.0547,3.1113,3.2383,3.2246,3.2229,3.2168,3.2324,3.2305,3.2148,3.1562,3.1641,3.2209,3.1855,3.2148,3.2891,3.373,3.4336,3.4785,3.5547,3.5898,3.6016,3.6111,3.553,3.4626,3.272,3.244,3.2198,3.1461,3.118,3.1093,3.1138,3.0746,3.0521,3.0719,3.0596,3.055,3.0887,3.0865,3.0583,3.0027,2.9793,2.9529,2.9208,2.9003,2.8886,2.8886,2.8271,0.0,2.7773,2.6588,2.5813,2.5418,2.5286,2.5227,2.5227,2.511,2.5119,2.5119,2.5119,2.5119,2.5105,2.4899,2.4554,2.4247,2.4042,2.4505,2.5448,2.6722,2.791,2.9098,3.045,3.0898,3.0898,3.0898,3.0898,3.0898,3.0898,3.0898,3.0898,3.0898,3.0898,3.0898,3.0898,3.0664,3.0527,3.082,3.0762,3.0684,3.0859,3.0898,3.0898,3.0898,3.123,3.1328,3.0781,3.1387,3.1269,2.9414,0.0,2.9043,0.0,0.0,0.0,0.0,2.7443,2.6962,0.0,0.0,0.0,0.0,0.0,0.0,2.8637,2.9355,3.0059,3.0781,3.1016,3.1601,3.2559,3.2617,3.2637,3.2637,3.2754,3.2734,3.2598,3.2012,3.209,3.2598,3.2168,3.25,3.334,3.4043,3.457,3.5039,3.5762,3.6016,3.6016,3.9426,3.7986,3.611,3.4215,3.3762,3.3216,3.1936,3.1569,3.1441,3.1282,3.1021,3.0789,3.0539,3.0336,3.0136,3.0107,0.0,0.0,2.9442,2.9383,2.9237,2.89,2.8886,2.8886,2.8886,2.83,2.7817,2.7481,2.6515,2.6047,2.6047,2.571,2.5549,2.552,2.5227,2.5149,2.5119,2.5119,2.5119,2.5119,2.5119,2.4929,2.4569,2.4569,2.5069,2.5862,2.7058,2.8182,2.9272,3.047,3.0898,3.0898,3.0898,3.0898,3.0898,3.0898,3.0898,3.0898,3.0898,3.0898,3.0898,3.0898,3.0898,3.0898,3.0898,3.0527,3.0332,3.0801,3.0859,3.0859,3.0879,3.125,3.1543,3.1484,3.1523,3.1074,2.9726,2.9551,2.8965,0.0,0.0,0.0,2.8379,2.8769,2.8809,0.0,0.0,0.0,0.0,0.0,2.8496,2.8418,2.8828,2.9258,2.9707,3.0937,3.1797,3.2266,3.3047,3.3418,3.3418,3.3008,3.3047,3.3379,3.2598,3.2695,3.3398,3.3027,3.3359,3.4121,3.457,3.5019,3.5449,3.5859,3.6016,3.6016,4.0238,4.0036,3.9427,3.7168,3.5614,3.4472,3.3858,3.2598,3.1589,3.1049,3.0699,3.0363,3.007,2.9886,2.9721,2.9478,3.0074,3.0159,2.9427,2.9383,2.9237,2.89,2.8886,2.8886,2.8886,2.852,2.8037,2.7481,2.6749,2.6383,2.6383,2.6047,2.5769,2.552,2.5447,2.5286,2.5119,2.5119,2.5119,2.5119,2.5119,2.4929,2.4569,2.4569,2.5791,2.7525,2.7469,2.8967,3.0874,3.0879,3.0898,3.0898,3.0898,3.0898,3.0898,3.0898,3.0898,3.0898,3.0898,3.0898,3.0898,3.0898,3.0898,3.0898,3.0898,3.0527,3.0332,3.0801,3.0605,3.0469,3.082,3.1504,3.1797,3.1152,3.1582,3.1328,2.9355,2.9355,2.918,0.0,2.8457,2.8906,2.9238,2.9648,2.9453,0.0,0.0,0.0,2.7963,2.9687,3.0449,2.9766,3.0176,3.0625,3.1055,3.1699,3.2383,3.3125,3.332,3.3418,3.3418,3.332,3.332,3.3418,3.3203,3.3242,3.3437,3.3672,3.3887,3.4141,3.4922,3.5293,3.5449,3.5859,3.6016,3.6016,4.1608,4.1666,4.111,3.8941,3.7775,3.657,3.4901,3.3706,3.2632,3.1698,3.1081,3.0724,3.0552,3.0231,2.9891,2.9572,2.9815,2.969,2.9193,2.9149,2.9076,2.89,2.8886,2.8886,2.8886,2.8593,2.8125,2.7481,2.713,2.6866,2.672,2.6237,2.593,2.574,2.5447,2.5213,2.5119,2.5119,2.5119,2.5119,2.5119,2.5017,2.4855,2.4855,2.6268,2.8294,2.8072,2.9639,3.1777,3.1543,3.1348,3.1172,3.1172,3.1055,3.0898,3.0898,3.0898,3.0898,3.0898,3.0898,3.0898,3.0898,3.0898,3.084,3.0625,3.0547,3.0527,3.0566,3.0547,3.0586,3.084,3.1426,3.1719,3.125,3.1074,3.0488,2.9121,2.8789,2.8457,2.7793,2.8594,2.9316,2.9607,3.0137,3.0137,2.9238,3.0039,0.0,2.8887,3.0351,3.0918,3.0215,3.1035,3.1582,3.1816,3.2246,3.2773,3.3418,3.3418,3.3535,3.3711,3.3711,3.3828,3.4004,3.4004,3.4004,3.4023,3.4258,3.4492,3.4726,3.5215,3.5508,3.5703,3.5937,3.6016,3.6016,4.317,4.2959,4.2208,4.0548,4.0023,3.8885,3.6091,3.4886,3.3994,3.2741,3.1822,3.1285,3.1242,3.0656,3.024,2.9881,2.9515,2.9178,2.89,2.8886,2.8886,2.8886,2.8886,2.8886,2.8886,2.8593,2.8169,2.7627,2.7569,2.7378,2.7056,2.65,2.6179,2.6061,2.5476,2.5237,2.5193,2.5149,2.5119,2.5119,2.5119,2.5119,2.5119,2.5119,2.6448,2.8364,2.8297,2.987,3.1941,3.1864,3.1694,3.1523,3.1523,3.123,3.0898,3.0898,3.0898,3.0879,3.0801,3.0781,3.0781,3.0781,3.0781,3.0684,3.0293,3.0449,3.0605,3.0273,3.0508,3.082,3.0879,3.123,3.1465,3.1348,3.0332,2.9375,2.8809,0.0,2.7695,2.7266,2.873,2.9822,2.9822,3.0449,3.0723,3.0332,3.0293,3.0273,3.0195,3.0762,3.0879,3.041,3.1543,3.2268,3.2266,3.2617,3.3008,3.3418,3.3496,3.3711,3.4082,3.4141,3.4355,3.4707,3.4766,3.4805,3.4805,3.4863,3.5137,3.5488,3.5488,3.5703,3.6016,3.6016,3.6016,3.6016,4.3706,4.3857,4.3826,4.317,4.1844,4.0439,3.9593,3.6878,3.4609,3.3788,3.2288,3.1198,3.0934,3.032,2.9925,2.9866,2.931,2.8944,2.89,2.8886,2.8886,2.8886,2.8886,2.8886,2.8886,2.8593,2.8311,2.8286,2.8008,2.7715,2.7393,2.7305,2.6954,2.6413,2.6032,2.571,2.5432,2.5169,2.5119,2.5119,2.5119,2.5119,2.5119,2.5119,2.6002,2.729,2.6936,2.8584,3.0902,3.0569,3.0869,3.1523,3.1523,3.123,3.0898,3.0898,3.0898,3.0801,3.041,3.0312,3.0312,3.0312,3.0312,3.0293,3.0215,2.998,2.9863,3.0137,3.0254,3.043,3.082,3.123,3.1269,3.0527,2.9941,2.9235,2.808,0.0,2.8574,2.8144,2.9629,3.0684,3.0684,3.082,3.0859,3.0781,3.0781,3.0605,3.0215,3.1328,3.1777,3.1328,3.1875,3.2344,3.2695,3.2754,3.3008,3.3418,3.3789,3.4004,3.4082,3.4434,3.4629,3.4726,3.5117,3.5293,3.5312,3.5664,3.5859,3.5918,3.5918,3.5957,3.6016,3.6016,3.6016,3.6016,4.3789,4.4082,4.4258,4.3789,4.3029,4.2038,4.0832,3.8913,3.6844,3.4522,3.3156,3.1979,3.0915,3.0246,2.9866,2.9866,2.9266,2.8886,2.8886,2.8886,2.8886,2.8886,2.8886,2.8886,2.8886,2.8754,2.8608,2.8432,2.8034,2.7788,2.7466,2.7115,2.6793,2.6486,2.6164,2.593,2.5769,2.5447,2.5315,2.5301,2.5193,2.5119,2.5119,2.5119,2.5981,2.7137,2.6912,2.8145,2.997,3.0275,3.0705,3.1153,3.1692,3.1738,3.1543,3.1289,3.1074,3.084,3.0625,3.0566,3.0566,3.0566,3.0566,3.0508,3.0254,3.0234,3.0332,3.0527,3.0566,3.0703,3.1152,3.1387,3.1152,3.0039,2.9316,0.0,2.7826,2.7793,2.7988,2.8262,2.9609,3.0605,3.0859,3.1094,3.1328,3.1562,3.1582,3.1484,3.1269,3.2051,3.2422,3.2207,3.2617,3.293,3.3125,3.3125,3.3223,3.3437,3.3867,3.4199,3.4434,3.4863,3.5195,3.543,3.5644,3.5723,3.5742,3.5937,3.6016,3.6016,3.6016,3.6016,3.6016,3.6016,3.6172,3.6367,4.3789,4.4082,4.4258,4.3789,4.3711,4.3137,4.1582,4.0528,3.8804,3.5809,3.4242,3.2854,3.155,3.0491,2.9866,2.9866,2.9266,2.8886,2.8886,2.8886,2.8886,2.8886,2.8886,2.8886,2.8886,2.8886,2.8769,2.8549,2.8286,2.7978,2.7569,2.7071,2.6764,2.6603,2.6281,2.6135,2.6105,2.5783,2.5593,2.5505,2.5271,2.5193,2.5119,2.5119,2.5779,2.6702,2.6635,2.7551,2.8821,2.9614,3.0221,3.0806,3.1584,3.1983,3.2109,3.1758,3.1445,3.1172,3.1055,3.1035,3.1035,3.1035,3.1035,3.0937,3.0586,3.0703,3.0918,3.1016,3.1035,3.1172,3.1601,3.1582,3.1152,3.0059,0.0,2.832,2.8008,2.7676,2.7734,2.8496,2.9726,3.0644,3.0996,3.1426,3.1816,3.2148,3.2229,3.2268,3.2305,3.2617,3.2832,3.293,3.3242,3.3418,3.3418,3.3418,3.3418,3.3437,3.3965,3.4394,3.4726,3.5273,3.5723,3.6016,3.6016,3.6016,3.6016,3.6016,3.6016,3.6016,3.6016,3.6016,3.6035,3.6133,3.6387,3.668,4.3789,4.4082,4.4258,4.3789,4.3711,4.3355,4.2475,4.0909,3.952,3.8431,3.5463,3.3347,3.3183,3.1209,2.9866,2.9866,2.9266,2.8886,2.8886,2.8886,2.8886,2.8886,2.8886,2.8886,2.8886,2.8886,2.8871,2.8856,2.8827,2.8505,2.7844,2.7786,2.7525,2.6939,2.6617,2.6471,2.6442,2.612,2.5798,2.552,2.5505,2.5315,2.5119,2.5119,2.5187,2.5255,2.5255,2.61,2.727,2.732,2.8827,3.0717,3.0762,3.1456,3.2168,3.219,3.215,3.1992,3.1582,3.1465,3.1465,3.1465,3.1465,3.1465,3.1426,3.1152,3.0996,3.1387,3.1465,3.1601,3.2031,3.1797,3.1367,3.0879,0.0,0.0,2.8828,2.8789,2.8945,2.9414,3.0625,3.1426,3.1465,3.1875,3.2129,3.2229,3.2229,3.2344,3.2734,3.2773,3.2969,3.3359,3.3398,3.3418,3.3418,3.3418,3.3418,3.3437,3.4258,3.4668,3.4726,3.5586,3.5996,3.6016,3.6016,3.6016,3.6016,3.6016,3.6016,3.6016,3.6016,3.6016,3.6074,3.6484,3.6641,3.6719,4.3789,4.4082,4.416,4.3437,4.332,4.3105,4.2519,4.1628,4.0542,3.9148,3.7597,3.6236,3.5106,3.2873,3.1441,3.152,2.9882,2.8886,2.8886,2.8886,2.8886,2.8886,2.8886,2.8886,2.8886,2.8886,2.8886,2.8886,2.8695,2.8388,2.7874,2.7744,2.7422,2.6983,2.6866,2.6808,2.6778,2.6457,2.6252,2.6091,2.5696,2.5461,2.533,2.5125,2.5119,2.5119,2.5119,2.5457,2.595,2.6518,2.754,2.8731,3.0221,3.1125,3.1829,3.268,3.2754,3.2578,3.2676,3.2324,3.1914,3.1914,3.1914,3.1914,3.1914,3.1797,3.1719,3.1894,3.1914,3.1973,3.2148,3.1816,3.1289,3.0586,0.0,2.9316,2.9316,2.9551,2.9883,3.0332,3.1289,3.1914,3.1914,3.2305,3.2656,3.293,3.2949,3.3008,3.3184,3.3184,3.3262,3.3418,3.3418,3.3418,3.3418,3.3418,3.3555,3.3828,3.4414,3.4844,3.5156,3.5742,3.6016,3.6016,3.6016,3.6016,3.6016,3.6016,3.6016,3.6016,3.6016,3.6191,3.6445,3.6601,3.7012,3.7461,4.3789,4.4082,4.416,4.3398,4.3164,4.293,4.25,4.207,4.1343,4.0001,3.9147,3.7914,3.6155,3.3818,3.2221,3.176,2.9961,2.8886,2.8886,2.8886,2.8886,2.8886,2.8886,2.8886,2.8886,2.8886,2.8886,2.8886,2.8681,2.8359,2.7874,2.7832,2.7495,2.6998,2.71,2.7086,2.6969,2.6749,2.6544,2.631,2.5857,2.5564,2.5359,2.514,2.5119,2.5119,2.5119,2.5119,2.5225,2.584,2.6499,2.7503,2.9585,3.1039,3.2174,3.3082,3.3223,3.3066,3.334,3.3008,3.2539,3.2402,3.2363,3.2363,3.2363,3.2266,3.2246,3.25,3.2344,3.2307,3.2519,3.2109,3.1562,3.1094,3.0664,3.0448,3.0448,3.0625,3.0937,3.125,3.1934,3.2363,3.2363,3.2734,3.3105,3.3398,3.3418,3.3418,3.3418,3.3418,3.3418,3.3418,3.3418,3.3418,3.3418,3.3418,3.3633,3.4082,3.4492,3.4941,3.541,3.582,3.6016,3.6016,3.6016,3.6016,3.6016,3.6016,3.6016,3.6016,3.6016,3.6289,3.668,3.6816,3.7324,3.7949,4.3789,4.4082,4.4258,4.3789,4.3359,4.293,4.25,4.207,4.166,4.123,3.9707,3.7914,3.6236,3.3914,3.1839,3.0108,2.9266,2.8886,2.8886,2.8886,2.8886,2.8886,2.8886,2.8886,2.8886,2.8886,2.8886,2.8886,2.8886,2.8564,2.7888,2.8209,2.792,2.7013,2.7335,2.7291,2.6983,2.6983,2.6617,2.6032,2.6018,2.5637,2.5134,2.5119,2.5119,2.5119,2.5119,2.5119,2.5119,2.5119,2.5981,2.7352,2.8723,3.1148,3.3355,3.3418,3.3418,3.3418,3.3418,3.3418,3.332,3.291,3.2793,3.2793,3.2793,3.248,3.2422,3.3242,3.2754,3.2441,3.3262,3.2734,3.2305,3.2734,3.2441,3.2229,3.2229,3.2229,3.2168,3.2229,3.2539,3.2793,3.2793,3.3184,3.3418,3.3418,3.3418,3.3418,3.3418,3.3418,3.3418,3.3418,3.3418,3.3418,3.3437,3.3437,3.3652,3.4082,3.4512,3.4941,3.541,3.584,3.6016,3.6016,3.6016,3.6016,3.6016,3.6016,3.6016,3.6035,3.6035,3.6289,3.6738,3.7148,3.7578,3.7988,4.3336,4.3662,4.3769,4.334,4.3164,4.293,4.25,4.0995,4.0372,4.1464,3.8829,3.7037,3.7755,3.4614,3.2316,3.176,2.9961,2.8886,2.8886,2.8886,2.8886,2.8886,2.8886,2.8886,2.8886,2.8886,2.8886,2.8886,2.8886,2.8681,2.8286,2.8078,2.7817,2.732,2.7188,2.7086,2.6983,2.6983,2.6881,2.6661,2.6193,2.59,2.5681,2.5227,2.5119,2.5119,2.5119,2.5119,2.5119,2.5119,2.539,2.61,2.846,3.0484,3.2166,3.3514,3.3672,3.3496,3.3789,3.3437,3.3027,3.3184,3.3008,3.2871,3.3164,3.3144,3.3027,3.2988,3.3262,3.3398,3.3047,3.2773,3.2656,3.2773,3.2441,3.2229,3.2229,3.2422,3.25,3.2207,3.2793,3.3125,3.2832,3.3184,3.3418,3.3418,3.3418,3.3418,3.3418,3.3418,3.3418,3.3418,3.3418,3.3574,3.3887,3.3887,3.4082,3.4512,3.498,3.541,3.584,3.5957,3.6016,3.6016,3.6016,3.6016,3.6016,3.6016,3.6191,3.6484,3.6484,3.6914,3.7559,3.7695,3.8008,3.8398,4.2818,4.3068,4.3137,4.2886,4.2712,4.25,4.2411,4.0446,3.9431,4.0569,3.8006,3.6155,3.6477,3.4189,3.2379,3.1536,2.9882,2.8886,2.8886,2.8886,2.8886,2.8886,2.8886,2.8886,2.8886,2.8886,2.8886,2.8886,2.8886,2.8739,2.8432,2.8151,2.7905,2.7466,2.7276,2.7115,2.6983,2.6983,2.6837,2.6574,2.6179,2.5871,2.5608,2.5344,2.5169,2.5134,2.5198,2.5169,2.5119,2.5119,2.5442,2.6167,2.7883,2.9687,3.1488,3.2668,3.3347,3.3691,3.3789,3.3555,3.332,3.3398,3.2988,3.2656,3.3086,3.3301,3.3398,3.332,3.3711,3.3965,3.3613,3.3418,3.3301,3.3301,3.3086,3.2851,3.2695,3.2871,3.2949,3.2695,3.3105,3.332,3.3066,3.3281,3.3418,3.3418,3.3418,3.3418,3.3418,3.3594,3.3691,3.3691,3.3848,3.4043,3.4316,3.4512,3.4726,3.498,3.5254,3.5605,3.6016,3.6016,3.6016,3.6016,3.6016,3.6016,3.6016,3.6016,3.6172,3.6426,3.6601,3.709,3.7695,3.7851,3.8203,3.8574,4.2318,4.2402,4.2485,4.2485,4.2182,4.208,4.2409,4.0384,3.8878,3.9164,3.7256,3.5237,3.3592,3.2949,3.1907,3.0086,2.931,2.8915,2.8886,2.8886,2.8886,2.8886,2.8886,2.8886,2.8886,2.8886,2.8886,2.8886,2.8886,2.8754,2.8476,2.837,2.8125,2.7569,2.7495,2.7305,2.7027,2.6969,2.6603,2.6047,2.6003,2.5622,2.5125,2.5388,2.533,2.5125,2.5403,2.5315,2.5163,2.5134,2.5928,2.7,2.7134,2.8922,3.1091,3.135,3.2615,3.3914,3.3589,3.375,3.3887,3.3594,3.2851,3.2305,3.2793,3.3203,3.3594,3.4043,3.4121,3.4238,3.4629,3.4355,3.4082,3.4121,3.4101,3.3945,3.3535,3.3437,3.3418,3.3418,3.3418,3.3418,3.3418,3.3457,3.3476,3.3476,3.3476,3.3457,3.3418,3.3828,3.4082,3.4121,3.4492,3.4746,3.4824,3.5195,3.5391,3.5391,3.543,3.5644,3.6016,3.6016,3.6016,3.6016,3.6016,3.6016,3.6016,3.6016,3.6035,3.6113,3.6523,3.6953,3.7402,3.7773,3.8203,3.8574,4.1863,4.2466,4.2985,4.2985,4.3156,4.3244,4.3016,4.1301,3.9851,3.9277,3.6433,3.4226,3.346,3.1905,3.081,3.0328,2.9647,2.9164,2.89,2.8886,2.8886,2.8886,2.8886,2.8886,2.8886,2.8886,2.8886,2.8886,2.8886,2.8856,2.8783,2.8549,2.8359,2.8198,2.77,2.7437,2.7335,2.6822,2.653,2.6354,2.5842,2.5549,2.5403,2.5227,2.5271,2.5403,2.5227,2.5271,2.5388,2.514,2.5417,2.6019,2.716,2.808,2.9259,3.1527,3.253,3.3067,3.4108,3.375,3.3281,3.4199,3.3281,3.2461,3.3555,3.3867,3.4043,3.4473,3.457,3.459,3.4687,3.4355,3.418,3.4512,3.4297,3.4043,3.3945,3.3633,3.3418,3.3418,3.3418,3.3418,3.3418,3.373,3.3926,3.3926,3.3926,3.3789,3.3437,3.3828,3.4219,3.4551,3.4648,3.5039,3.5723,3.5508,3.5391,3.5391,3.5723,3.5937,3.6016,3.6016,3.6016,3.6016,3.6016,3.6016,3.6016,3.6016,3.623,3.6543,3.6641,3.7129,3.7793,3.7891,3.8203,3.8574,4.1695,4.2132,4.2466,4.2466,4.2633,4.2716,4.2735,4.1258,3.9905,3.9258,3.6057,3.3561,3.3148,3.1415,3.036,3.0364,2.9749,2.931,2.9134,2.8973,2.8886,2.8886,2.8886,2.8886,2.8886,2.8886,2.8886,2.8886,2.8886,2.8886,2.8886,2.8578,2.8432,2.8326,2.7759,2.7481,2.7452,2.6939,2.6559,2.6237,2.59,2.5579,2.5301,2.5286,2.5286,2.5301,2.5286,2.5286,2.5271,2.5178,2.5169,2.5467,2.6353,2.7668,2.9275,3.1003,3.2466,3.3747,3.4491,3.4219,3.3867,3.4531,3.4023,3.3555,3.4219,3.4375,3.4492,3.4941,3.5195,3.5332,3.5332,3.5156,3.5,3.5019,3.4844,3.4629,3.4394,3.418,3.4023,3.4023,3.3848,3.3652,3.3437,3.3633,3.3848,3.4062,3.4258,3.4277,3.4043,3.4648,3.5098,3.5332,3.5527,3.5957,3.6621,3.6406,3.6309,3.6309,3.6328,3.6328,3.6328,3.6328,3.6328,3.6328,3.6113,3.6016,3.6016,3.6016,3.6152,3.6387,3.6582,3.6934,3.7344,3.7559,3.7891,3.8301,4.1779,4.1863,4.1863,4.1863,4.1882,4.2049,4.2318,4.1166,3.9949,3.9202,3.6041,3.3541,3.283,3.1277,3.0188,3.0305,2.9778,2.9442,2.9383,2.912,2.8973,2.8973,2.8973,2.8944,2.8886,2.8886,2.8886,2.8886,2.8886,2.8886,2.8886,2.8637,2.852,2.8491,2.7847,2.7583,2.7613,2.7174,2.6676,2.6179,2.612,2.574,2.5242,2.5447,2.5403,2.5242,2.5461,2.5403,2.5281,2.5154,2.5183,2.5271,2.5535,2.7274,2.9463,3.0259,3.2227,3.4222,3.4692,3.4766,3.4726,3.4883,3.4766,3.4648,3.4863,3.4863,3.4941,3.541,3.5723,3.5937,3.6016,3.5957,3.582,3.5547,3.543,3.5254,3.4863,3.4687,3.459,3.459,3.4277,3.3965,3.3672,3.3711,3.3906,3.4277,3.4629,3.4824,3.4824,3.5586,3.6094,3.623,3.6582,3.6973,3.7402,3.7324,3.7305,3.7285,3.6953,3.6738,3.668,3.668,3.6641,3.6543,3.6172,3.6016,3.6016,3.6016,3.6016,3.6055,3.6426,3.6601,3.6719,3.7148,3.7559,3.7969,4.1779,4.2383,4.2818,4.2402,4.2652,4.2818,4.2485,4.2178,4.124,3.8883,3.6794,3.4825,3.2921,3.1229,3.0101,2.9983,2.9851,2.9676,2.9398,2.9339,2.931,2.931,2.931,2.9178,2.89,2.8886,2.8886,2.8886,2.8886,2.8886,2.8886,2.8842,2.8827,2.8798,2.8169,2.8037,2.8242,2.7364,2.6939,2.6837,2.6559,2.6222,2.5857,2.5622,2.5681,2.5857,2.5622,2.5681,2.5842,2.5564,2.5652,2.5886,2.593,2.6417,2.7488,3.0096,3.1375,3.24,3.4701,3.5,3.4883,3.5644,3.5,3.4453,3.5586,3.5566,3.543,3.584,3.5684,3.5586,3.5957,3.5723,3.5586,3.5879,3.5625,3.5371,3.5312,3.4648,3.416,3.416,3.4101,3.4199,3.4492,3.4883,3.5156,3.5215,3.5273,3.5293,3.5293,3.5762,3.6367,3.7109,3.7187,3.7422,3.7832,3.748,3.7305,3.7305,3.7246,3.7031,3.668,3.668,3.6465,3.6094,3.6035,3.6016,3.6016,3.6016,3.6016,3.6035,3.6094,3.6348,3.6719,3.7148,3.7559,3.793,4.255,4.2818,4.3068,4.2818,4.2985,4.2902,4.2485,4.2652,4.199,3.9933,3.7227,3.5059,3.3632,3.1488,3.0076,2.978,2.9888,2.972,2.9398,2.9383,2.9383,2.9383,2.9383,2.931,2.9164,2.8988,2.8886,2.8886,2.8886,2.8886,2.8886,2.8886,2.8886,2.8871,2.8417,2.8122,2.8049,2.7525,2.7159,2.6969,2.6632,2.6413,2.6252,2.593,2.5886,2.6003,2.5857,2.5783,2.5754,2.5783,2.59,2.6047,2.6237,2.6937,2.8208,3.057,3.1792,3.2881,3.5094,3.543,3.5234,3.5859,3.5586,3.5312,3.5879,3.5879,3.5801,3.5976,3.5879,3.5801,3.5996,3.5859,3.5801,3.5996,3.5664,3.5391,3.5391,3.5059,3.4805,3.4805,3.4805,3.4785,3.4707,3.4883,3.5117,3.5371,3.5605,3.5742,3.5742,3.6367,3.6797,3.6953,3.7168,3.75,3.791,3.75,3.7539,3.8008,3.7519,3.7207,3.7012,3.6777,3.6562,3.6367,3.6133,3.6016,3.6016,3.6016,3.6016,3.6016,3.6016,3.6133,3.6348,3.6797,3.707,3.7285]}]]